[[{"header":{"parameterUnit":"m.s-1","parameterCategory":1,"la1":30.6,"la2":29.2853,"lo1":-89.7004,"lo2":-87.6739,"dy":0.0162,"dx":0.0183,"nx":112,"ny":82,"refTime":"2024-08-29T06:00:00:Z","depth":0,"parameterNumber":2,"parameterNumberName":"U-component_of_WINDS"},"data":[0.0,0.0,0.0,0.0,0.0,0.0,0.0,0.0,0.0,0.0,0.0,0.0,0.0,0.0,0.0,0.0,0.0,0.0,0.0,0.0,0.0,0.0,0.0,0.0,0.0,0.0,0.0,0.0,0.0,0.0,0.0,0.0,0.0,0.0,0.0,0.0,0.0,0.0,0.0,0.0,0.0,0.0,0.0,0.0,0.0,0.0,0.0,0.0,0.0,0.0,0.0,0.0,0.0,0.0,0.0,0.0,0.0,0.0,0.0,0.0,0.0,0.0,0.0,0.0,0.0,0.0,0.0,0.0,0.0,0.0,0.0,0.0,0.0,0.0,0.0,0.0,0.0,0.0,0.0,0.0,0.0,0.0,0.0,0.0,0.0,0.0,0.0,0.0,0.0,0.0,-3.8224,-4.1511,-4.4053,-4.5707,-4.6216,-4.6158,-4.4359,-4.0294,0.0,0.0,0.0,0.0,0.0,0.0,0.0,0.0,0.0,0.0,0.0,0.0,0.0,0.0,0.0,0.0,0.0,0.0,0.0,0.0,0.0,0.0,0.0,0.0,0.0,0.0,0.0,0.0,0.0,0.0,0.0,0.0,0.0,0.0,0.0,0.0,0.0,0.0,0.0,0.0,0.0,0.0,0.0,0.0,0.0,0.0,0.0,0.0,0.0,0.0,0.0,0.0,0.0,0.0,0.0,0.0,0.0,0.0,0.0,0.0,0.0,0.0,0.0,0.0,0.0,0.0,0.0,0.0,0.0,0.0,0.0,0.0,0.0,0.0,0.0,0.0,0.0,0.0,0.0,0.0,0.0,0.0,0.0,0.0,0.0,0.0,0.0,0.0,0.0,0.0,0.0,0.0,0.0,0.0,0.0,0.0,0.0,0.0,0.0,0.0,0.0,0.0,0.0,0.0,-3.9572,-4.4337,-4.5226,-4.5537,-4.5622,-4.5065,-4.3273,-3.9969,0.0,0.0,0.0,0.0,0.0,0.0,0.0,0.0,0.0,0.0,0.0,0.0,0.0,0.0,0.0,0.0,0.0,0.0,0.0,0.0,0.0,0.0,0.0,0.0,0.0,0.0,0.0,0.0,0.0,0.0,0.0,0.0,0.0,0.0,0.0,0.0,0.0,0.0,0.0,0.0,0.0,0.0,0.0,0.0,0.0,0.0,0.0,0.0,0.0,0.0,0.0,0.0,0.0,0.0,0.0,0.0,0.0,0.0,0.0,0.0,0.0,0.0,0.0,0.0,0.0,0.0,0.0,0.0,0.0,0.0,0.0,0.0,0.0,0.0,0.0,0.0,0.0,0.0,0.0,0.0,0.0,0.0,0.0,0.0,0.0,0.0,0.0,0.0,0.0,0.0,0.0,0.0,0.0,0.0,0.0,0.0,0.0,0.0,0.0,0.0,0.0,0.0,0.0,-3.8031,-4.0629,-4.4605,-4.4605,-4.4365,-4.4365,-4.369,-4.1898,-3.8656,-3.744,0.0,0.0,0.0,0.0,0.0,0.0,0.0,0.0,0.0,0.0,0.0,0.0,0.0,0.0,0.0,0.0,0.0,0.0,0.0,0.0,0.0,0.0,0.0,0.0,0.0,0.0,0.0,0.0,0.0,0.0,0.0,0.0,0.0,0.0,0.0,0.0,0.0,0.0,0.0,0.0,0.0,0.0,0.0,0.0,0.0,0.0,0.0,0.0,0.0,0.0,0.0,0.0,0.0,0.0,0.0,0.0,0.0,0.0,0.0,0.0,0.0,0.0,0.0,0.0,0.0,0.0,0.0,0.0,0.0,0.0,0.0,0.0,0.0,0.0,0.0,0.0,0.0,0.0,0.0,0.0,0.0,0.0,0.0,0.0,0.0,0.0,0.0,0.0,0.0,0.0,0.0,0.0,0.0,0.0,0.0,0.0,0.0,0.0,0.0,0.0,0.0,0.0,-4.0197,-4.1585,-4.4056,-4.3775,-4.3325,-4.3166,-4.2151,-4.0297,-3.744,-3.5328,0.0,0.0,0.0,0.0,0.0,0.0,0.0,0.0,0.0,0.0,0.0,0.0,0.0,0.0,0.0,0.0,0.0,0.0,0.0,0.0,0.0,0.0,0.0,0.0,0.0,0.0,0.0,0.0,0.0,0.0,0.0,0.0,0.0,0.0,0.0,0.0,0.0,0.0,0.0,0.0,0.0,0.0,0.0,0.0,0.0,0.0,0.0,0.0,0.0,0.0,0.0,0.0,0.0,0.0,0.0,0.0,0.0,0.0,0.0,0.0,0.0,0.0,0.0,0.0,0.0,0.0,0.0,0.0,0.0,0.0,0.0,0.0,0.0,0.0,0.0,0.0,0.0,0.0,0.0,0.0,0.0,0.0,0.0,0.0,0.0,0.0,0.0,0.0,0.0,0.0,0.0,0.0,0.0,0.0,0.0,0.0,0.0,0.0,0.0,0.0,0.0,0.0,-4.0443,-4.2489,-4.3403,-4.3426,-4.3132,-4.2439,-4.0426,-3.8556,-3.6943,-3.3469,0.0,0.0,0.0,0.0,0.0,0.0,0.0,0.0,0.0,0.0,0.0,0.0,0.0,0.0,0.0,0.0,0.0,0.0,0.0,0.0,0.0,0.0,0.0,0.0,0.0,0.0,0.0,0.0,0.0,0.0,0.0,0.0,0.0,0.0,0.0,0.0,0.0,0.0,0.0,0.0,0.0,0.0,0.0,0.0,0.0,0.0,0.0,0.0,0.0,0.0,0.0,0.0,0.0,0.0,0.0,0.0,0.0,0.0,0.0,0.0,0.0,0.0,0.0,0.0,0.0,0.0,0.0,0.0,0.0,0.0,0.0,0.0,0.0,0.0,0.0,0.0,0.0,0.0,0.0,0.0,0.0,0.0,0.0,0.0,0.0,0.0,0.0,0.0,0.0,0.0,0.0,0.0,0.0,0.0,0.0,0.0,0.0,0.0,0.0,0.0,0.0,0.0,-3.8988,-4.0882,-4.254,-4.2303,-4.1931,-4.1644,-4.0003,-3.7956,-3.5526,0.0,0.0,0.0,0.0,0.0,0.0,0.0,0.0,0.0,0.0,0.0,0.0,0.0,0.0,0.0,0.0,0.0,0.0,0.0,0.0,0.0,0.0,0.0,0.0,0.0,0.0,0.0,0.0,0.0,0.0,0.0,0.0,0.0,0.0,0.0,0.0,0.0,0.0,0.0,0.0,0.0,0.0,0.0,0.0,0.0,0.0,0.0,0.0,0.0,0.0,0.0,0.0,0.0,0.0,0.0,0.0,0.0,0.0,0.0,0.0,0.0,0.0,0.0,0.0,0.0,0.0,0.0,0.0,0.0,0.0,0.0,0.0,0.0,0.0,0.0,0.0,0.0,0.0,0.0,0.0,0.0,0.0,0.0,0.0,0.0,0.0,0.0,0.0,0.0,0.0,0.0,0.0,0.0,0.0,0.0,0.0,0.0,0.0,0.0,0.0,0.0,0.0,-3.628,-3.8293,-4.001,-4.1753,-4.1508,-4.1119,-4.0865,-3.9276,-3.7195,-3.4658,0.0,0.0,0.0,0.0,0.0,0.0,0.0,0.0,0.0,0.0,0.0,0.0,0.0,0.0,0.0,0.0,0.0,0.0,0.0,0.0,0.0,0.0,0.0,0.0,0.0,0.0,0.0,0.0,0.0,0.0,0.0,0.0,0.0,0.0,0.0,0.0,0.0,0.0,0.0,0.0,0.0,0.0,0.0,0.0,0.0,0.0,0.0,0.0,0.0,0.0,0.0,0.0,0.0,0.0,0.0,0.0,0.0,0.0,0.0,0.0,0.0,0.0,0.0,0.0,0.0,0.0,0.0,0.0,0.0,0.0,0.0,0.0,0.0,0.0,0.0,0.0,0.0,0.0,0.0,0.0,0.0,0.0,0.0,0.0,0.0,0.0,0.0,0.0,0.0,0.0,0.0,0.0,0.0,0.0,0.0,0.0,0.0,0.0,0.0,0.0,0.0,0.0,-3.6312,-3.8694,-4.0375,-4.1109,-4.1187,-4.0882,-4.0163,-3.8082,-3.6152,0.0,0.0,0.0,0.0,0.0,0.0,0.0,0.0,0.0,0.0,0.0,0.0,0.0,0.0,0.0,0.0,0.0,0.0,0.0,0.0,0.0,0.0,0.0,0.0,0.0,0.0,0.0,0.0,0.0,0.0,0.0,0.0,0.0,0.0,0.0,0.0,0.0,0.0,0.0,0.0,0.0,0.0,0.0,0.0,0.0,0.0,0.0,0.0,0.0,0.0,0.0,0.0,0.0,0.0,0.0,0.0,0.0,0.0,0.0,0.0,0.0,0.0,0.0,0.0,0.0,0.0,0.0,0.0,0.0,0.0,0.0,0.0,0.0,0.0,0.0,0.0,0.0,0.0,0.0,0.0,0.0,0.0,0.0,0.0,0.0,0.0,0.0,0.0,0.0,0.0,0.0,0.0,0.0,0.0,0.0,0.0,0.0,0.0,0.0,0.0,0.0,0.0,0.0,-3.3592,-3.6999,-3.9335,-3.9568,-4.0092,-4.035,-4.013,-3.8548,-3.6468,-3.3897,0.0,0.0,0.0,0.0,0.0,0.0,0.0,0.0,0.0,0.0,0.0,0.0,0.0,0.0,0.0,0.0,0.0,0.0,0.0,0.0,0.0,0.0,0.0,0.0,0.0,0.0,0.0,0.0,0.0,0.0,0.0,0.0,0.0,0.0,0.0,0.0,0.0,0.0,0.0,0.0,0.0,0.0,0.0,0.0,0.0,0.0,0.0,0.0,0.0,0.0,0.0,0.0,0.0,0.0,0.0,0.0,0.0,0.0,0.0,0.0,0.0,0.0,0.0,0.0,0.0,0.0,0.0,0.0,0.0,0.0,0.0,0.0,0.0,0.0,0.0,0.0,0.0,0.0,0.0,0.0,0.0,0.0,0.0,0.0,0.0,0.0,0.0,0.0,0.0,0.0,0.0,0.0,0.0,0.0,0.0,0.0,0.0,0.0,0.0,0.0,0.0,0.0,-3.2755,-3.5937,-3.8117,-3.8442,-3.8887,-3.9172,-3.9172,-3.7847,-3.5868,-3.3197,0.0,0.0,0.0,0.0,0.0,0.0,0.0,0.0,0.0,0.0,0.0,0.0,0.0,0.0,0.0,0.0,0.0,0.0,0.0,0.0,0.0,0.0,0.0,0.0,0.0,0.0,0.0,0.0,0.0,0.0,0.0,0.0,0.0,0.0,0.0,0.0,0.0,0.0,0.0,0.0,0.0,0.0,0.0,0.0,0.0,0.0,0.0,0.0,0.0,0.0,0.0,0.0,0.0,0.0,0.0,0.0,0.0,0.0,0.0,0.0,0.0,0.0,0.0,0.0,0.0,0.0,0.0,0.0,0.0,0.0,0.0,0.0,0.0,0.0,0.0,0.0,0.0,0.0,0.0,0.0,0.0,0.0,0.0,0.0,0.0,0.0,0.0,0.0,0.0,0.0,0.0,0.0,0.0,0.0,0.0,0.0,0.0,0.0,0.0,0.0,0.0,0.0,-3.2992,-3.524,-3.6873,-3.7602,-3.7764,-3.7793,-3.7793,-3.6574,-3.4883,-3.2723,0.0,0.0,0.0,0.0,0.0,0.0,0.0,0.0,0.0,0.0,0.0,0.0,0.0,0.0,0.0,0.0,0.0,0.0,0.0,0.0,0.0,0.0,0.0,0.0,0.0,0.0,0.0,0.0,0.0,0.0,0.0,0.0,0.0,0.0,0.0,0.0,0.0,0.0,0.0,0.0,0.0,0.0,0.0,0.0,0.0,0.0,0.0,0.0,0.0,0.0,0.0,0.0,0.0,0.0,0.0,0.0,0.0,0.0,0.0,0.0,-2.66,-2.5594,0.0,0.0,0.0,0.0,0.0,0.0,0.0,0.0,0.0,0.0,0.0,0.0,0.0,0.0,0.0,0.0,0.0,0.0,0.0,0.0,0.0,0.0,0.0,0.0,0.0,0.0,0.0,0.0,0.0,0.0,0.0,0.0,0.0,0.0,0.0,0.0,0.0,0.0,0.0,0.0,-3.1086,-3.4338,-3.6676,-3.6843,-3.7427,-3.7793,-3.7793,-3.6993,-3.5575,-3.3415,-3.1942,0.0,0.0,0.0,0.0,0.0,0.0,0.0,0.0,0.0,0.0,0.0,0.0,0.0,0.0,0.0,0.0,0.0,0.0,0.0,0.0,0.0,0.0,0.0,0.0,0.0,0.0,0.0,0.0,0.0,0.0,0.0,0.0,0.0,0.0,0.0,0.0,0.0,0.0,0.0,0.0,0.0,0.0,0.0,0.0,0.0,0.0,0.0,0.0,0.0,0.0,0.0,0.0,0.0,0.0,0.0,0.0,0.0,0.0,0.0,-2.8386,-2.7783,0.0,0.0,0.0,0.0,0.0,0.0,0.0,0.0,0.0,0.0,0.0,0.0,0.0,0.0,0.0,0.0,0.0,0.0,0.0,0.0,0.0,0.0,0.0,0.0,0.0,0.0,0.0,0.0,0.0,0.0,0.0,0.0,0.0,0.0,0.0,0.0,0.0,0.0,0.0,0.0,-3.0883,-3.3683,-3.5705,-3.6055,-3.6446,-3.6692,-3.6692,-3.6056,-3.5019,-3.3584,-3.2164,0.0,0.0,0.0,0.0,0.0,0.0,0.0,0.0,0.0,0.0,0.0,0.0,0.0,0.0,0.0,0.0,0.0,0.0,0.0,0.0,0.0,0.0,0.0,0.0,0.0,0.0,0.0,0.0,0.0,0.0,0.0,0.0,0.0,0.0,0.0,0.0,0.0,0.0,0.0,0.0,0.0,0.0,0.0,0.0,0.0,0.0,0.0,0.0,0.0,0.0,0.0,0.0,0.0,-3.0997,-3.1047,-3.1047,-3.1047,-3.1047,-3.0984,-3.0055,-3.0018,-3.0482,-2.8725,0.0,0.0,0.0,0.0,0.0,0.0,0.0,0.0,0.0,0.0,0.0,0.0,0.0,0.0,0.0,0.0,0.0,0.0,0.0,0.0,0.0,0.0,0.0,0.0,-3.0688,-3.0911,-3.0147,0.0,0.0,0.0,0.0,0.0,0.0,0.0,0.0,0.0,0.0,0.0,-3.154,-3.332,-3.4728,-3.5265,-3.522,-3.5205,-3.5325,-3.4801,-3.4279,-3.3709,-3.2437,-3.1377,0.0,0.0,0.0,0.0,0.0,0.0,0.0,0.0,0.0,0.0,0.0,0.0,0.0,0.0,0.0,0.0,0.0,0.0,0.0,0.0,0.0,0.0,0.0,0.0,0.0,0.0,0.0,0.0,0.0,0.0,0.0,0.0,-2.6992,-2.7695,0.0,0.0,0.0,0.0,0.0,0.0,0.0,0.0,0.0,0.0,0.0,0.0,0.0,-3.1097,-3.1185,-3.2152,-3.2428,-3.2014,-3.2516,-3.2754,-3.2754,-3.2754,-3.2754,-3.2742,-3.2591,0.0,-3.062,-3.0783,0.0,0.0,0.0,0.0,0.0,0.0,0.0,0.0,0.0,0.0,0.0,0.0,0.0,0.0,0.0,0.0,0.0,0.0,0.0,0.0,0.0,0.0,-3.18,-3.1876,-3.1971,-3.1978,0.0,-3.0556,-2.9343,-2.9309,-2.8922,0.0,0.0,0.0,0.0,0.0,0.0,0.0,-3.2333,-3.3604,-3.4533,-3.4638,-3.4098,-3.3993,-3.4593,-3.4563,-3.4474,-3.4384,-3.3651,-3.2916,-3.2226,-3.0451,0.0,0.0,0.0,0.0,0.0,0.0,0.0,0.0,0.0,0.0,0.0,0.0,0.0,0.0,0.0,0.0,0.0,0.0,0.0,0.0,0.0,0.0,0.0,0.0,0.0,0.0,0.0,0.0,0.0,-2.6854,-2.8298,-2.8499,-2.885,-2.8925,0.0,0.0,0.0,0.0,0.0,0.0,0.0,0.0,0.0,-3.2428,-3.2679,-3.2955,-3.3257,-3.3445,-3.309,-3.215,-3.2089,-3.1689,-3.1012,-3.1012,-3.1012,-3.1012,-3.1012,-3.0579,-2.9973,-3.0242,-2.9551,-2.8152,0.0,0.0,0.0,0.0,-2.6855,-2.6606,-2.6498,-2.63,-2.6043,-2.5402,0.0,0.0,0.0,0.0,0.0,0.0,0.0,0.0,0.0,0.0,-3.1449,-3.2446,-3.2704,-3.2704,-3.2704,-3.1839,-3.0884,0.0,-3.013,-2.9862,-2.97,0.0,0.0,0.0,0.0,-3.1511,-3.2182,-3.3266,-3.4068,-3.4474,-3.3888,-3.3619,-3.3903,-3.4294,-3.4503,-3.4503,-3.3858,-3.3529,-3.3619,-3.1734,-3.0537,0.0,0.0,0.0,0.0,0.0,0.0,0.0,0.0,0.0,0.0,0.0,0.0,0.0,0.0,0.0,0.0,0.0,0.0,0.0,0.0,0.0,0.0,0.0,0.0,0.0,0.0,0.0,0.0,-2.831,-2.9377,-2.9502,-2.9942,-2.998,0.0,0.0,0.0,0.0,0.0,0.0,-3.1989,-3.2164,-3.2817,-3.4073,-3.3923,-3.3917,-3.4189,-3.351,-3.2584,-3.1551,-3.1011,-3.0271,-2.9407,-2.9407,-2.9407,-2.9407,-2.9407,-2.9223,-2.8984,-2.9364,-2.893,-2.7854,-2.7045,-2.6637,-2.6539,-2.6768,-2.6867,-2.6813,-2.6551,-2.6387,-2.6203,-2.5467,-2.5265,-2.5165,-2.4523,0.0,0.0,0.0,0.0,-2.7584,-2.8786,-2.9823,-3.0922,-3.2284,-3.2728,-3.2855,-3.2855,-3.2403,-3.183,0.0,-3.0944,-3.065,-3.0229,0.0,0.0,0.0,0.0,-3.1037,-3.2206,-3.2828,-3.3401,-3.4173,-3.3484,-3.3066,-3.323,-3.3694,-3.4038,-3.4249,-3.3769,-3.3709,-3.4234,-3.2826,-3.1929,-3.1765,0.0,0.0,0.0,0.0,0.0,0.0,0.0,0.0,0.0,0.0,0.0,0.0,0.0,0.0,0.0,0.0,0.0,0.0,0.0,0.0,0.0,0.0,0.0,0.0,0.0,0.0,0.0,0.0,0.0,-3.121,-3.1286,0.0,0.0,0.0,0.0,-3.1235,-3.229,-3.3169,-3.3746,-3.4274,-3.4555,-3.4675,-3.3914,-3.3268,-3.2804,-3.1628,-3.0748,-3.0113,-2.9688,-2.9453,-2.9407,-2.9407,-2.9407,-2.9407,-2.9407,-2.8773,-2.7767,-2.8938,-2.9048,-2.8533,-2.8489,-2.8132,-2.7546,-2.6931,-2.671,-2.6609,-2.595,-2.5516,-2.5222,-2.5556,-2.5755,-2.5827,-2.5823,-2.627,0.0,0.0,-2.7122,-2.8398,-2.7846,-2.9442,-3.1187,-3.1255,-3.1792,-3.2252,-3.2252,-3.1813,-3.1452,0.0,-3.0989,-3.0532,-3.022,0.0,-3.0188,-3.0487,-3.1103,-3.1907,-3.293,-3.2529,-3.2521,-3.3437,-3.2392,-3.1854,-3.2512,-3.2587,-3.2886,-3.3499,-3.3514,-3.3514,-3.3544,-3.344,-3.3095,-3.2452,-3.175,0.0,0.0,0.0,0.0,0.0,0.0,0.0,0.0,0.0,0.0,0.0,0.0,0.0,0.0,0.0,0.0,0.0,0.0,0.0,0.0,0.0,0.0,0.0,0.0,0.0,0.0,0.0,0.0,-3.0586,-3.1077,0.0,-3.2173,-3.2516,-3.2805,-3.2993,-3.3709,-3.4374,-3.4881,-3.5094,-3.5416,-3.5768,-3.5521,-3.5273,-3.5075,-3.391,-3.2417,-3.0642,-2.9788,-2.8588,-2.702,-2.702,-2.702,-2.702,-2.702,-2.6744,-2.6428,-2.6839,-2.6927,-2.6736,-2.6736,-2.6587,-2.637,-2.6127,-2.6054,-2.6026,-2.5771,-2.5635,-2.5527,-2.5635,-2.5561,-2.5375,-2.5375,-2.5532,-2.5706,-2.5464,-2.6023,-2.6872,-2.7453,-2.8,-2.8665,-2.9475,-2.9625,-2.9768,-3.0513,-3.0506,-3.0482,-3.0838,-3.0746,-3.0505,-3.0241,-2.9729,-2.9591,-3.0246,-3.0619,-3.1065,-3.1787,-3.1522,-3.1411,-3.1738,-3.0628,-2.9974,-3.0233,-3.0649,-3.1008,-3.1222,-3.1236,-3.1454,-3.1854,-3.1959,-3.1671,-3.0922,-3.0783,-2.9754,0.0,0.0,0.0,0.0,0.0,0.0,0.0,0.0,0.0,0.0,0.0,0.0,0.0,0.0,0.0,0.0,0.0,0.0,0.0,0.0,0.0,0.0,0.0,0.0,0.0,-2.7476,-2.8486,-2.9839,-3.0483,-3.1113,-3.1966,-3.291,-3.3391,-3.3095,-3.4264,-3.5011,-3.5112,-3.5584,-3.5994,-3.6405,-3.5966,-3.5511,-3.4993,-3.3684,-3.1859,-2.9661,-2.878,-2.745,-2.5693,-2.5693,-2.5693,-2.5693,-2.5693,-2.5693,-2.5693,-2.5693,-2.5693,-2.5693,-2.5693,-2.5693,-2.5693,-2.5693,-2.5693,-2.5693,-2.5693,-2.5693,-2.5693,-2.5693,-2.5537,-2.5293,-2.5293,-2.5293,-2.5293,-2.5293,-2.5508,-2.5839,-2.6561,-2.6848,-2.7073,-2.7808,-2.7876,-2.8048,-2.8773,-2.9106,-2.9347,-2.9668,-3.0231,-3.0503,-3.012,-2.9604,-2.9391,-2.999,-3.0151,-3.0429,-3.109,-3.086,-3.0726,-3.1034,-3.0138,-2.9463,-2.9288,-2.9955,-3.0173,-2.9675,-2.9949,-3.0163,-3.0308,-3.0885,-3.0942,-3.0403,-3.0494,-2.9741,-2.8047,0.0,0.0,0.0,0.0,0.0,0.0,0.0,0.0,0.0,0.0,0.0,0.0,0.0,0.0,0.0,0.0,0.0,0.0,0.0,0.0,0.0,0.0,0.0,-2.7327,-2.8155,-2.87,-2.9144,-2.9669,-2.9969,-2.9967,-3.1633,-3.2369,-3.158,-3.3946,-3.5125,-3.4459,-3.5619,-3.6358,-3.6358,-3.5078,-3.3712,-3.2331,-3.0619,-2.8869,-2.7063,-2.6632,-2.6211,-2.5693,-2.5693,-2.5693,-2.5693,-2.5693,-2.5693,-2.5693,-2.5693,-2.5693,-2.5693,-2.5693,-2.5693,-2.5693,-2.5693,-2.5693,-2.5693,-2.5693,-2.5693,-2.5693,-2.5693,-2.5693,-2.5693,-2.5693,-2.5693,-2.5693,-2.5693,-2.5693,-2.5635,-2.5185,-2.5969,-2.6704,-2.6312,-2.6715,-2.7189,-2.7231,-2.7625,-2.8004,-2.8044,-2.9404,-3.038,-2.988,-2.9792,-2.9792,-2.9792,-2.9792,0.0,-3.1044,-3.0569,-3.0525,-3.1418,-3.0918,-3.0295,-2.9772,-3.0509,-3.04,-2.904,-2.9704,-2.9797,-2.8998,-3.0332,-3.113,-3.1145,-3.1094,-3.0524,-2.95,0.0,0.0,0.0,0.0,0.0,0.0,0.0,0.0,0.0,0.0,0.0,0.0,0.0,0.0,0.0,0.0,0.0,0.0,0.0,0.0,0.0,-2.4453,-2.5117,-2.574,-2.6229,-2.7123,-2.8849,-2.9208,-2.9883,-3.1461,-3.2097,-3.2331,-3.2118,-3.2788,-3.356,-3.4374,-3.4727,-3.4933,-3.4933,-3.4581,-3.3712,-3.2331,-3.1451,-3.0134,-2.8456,-2.7963,-2.6996,-2.5693,-2.5693,-2.5693,-2.5693,-2.5693,-2.5693,-2.5693,-2.5693,-2.5693,-2.5693,-2.5693,-2.5693,-2.5693,-2.5693,-2.5693,-2.5693,-2.5693,-2.5693,-2.5693,-2.5693,-2.5693,-2.5693,-2.5693,-2.5693,-2.5693,-2.5693,-2.5693,-2.5635,-2.5185,-2.5105,-2.4979,-2.4586,-2.4357,-2.4492,-2.5317,-2.558,-2.5953,-2.6789,-2.7933,-2.8977,-2.9688,-2.9792,-2.9792,-2.9792,-2.9792,0.0,-3.0139,-2.963,-2.9349,-2.9619,-2.9117,-2.8718,-2.8599,-2.8443,-2.8165,-2.7782,-2.7618,-2.76,-2.7756,-2.8711,-2.945,-2.9896,-2.9773,-2.9594,0.0,0.0,0.0,0.0,0.0,0.0,0.0,0.0,0.0,0.0,0.0,0.0,0.0,0.0,0.0,0.0,0.0,0.0,0.0,0.0,0.0,0.0,-2.5215,-2.5684,-2.5859,-2.5801,-2.633,-2.7974,-2.8176,-2.8817,-3.0481,-3.1122,-3.1224,-3.0669,-3.1673,-3.2392,-3.2655,-3.3216,-3.3514,-3.3514,-3.3514,-3.2855,-3.148,-3.1146,-3.0133,-2.8452,-2.7953,-2.7082,-2.6006,-2.5771,-2.5693,-2.5693,-2.5693,-2.5693,-2.5693,-2.5693,-2.5693,0.0,0.0,0.0,0.0,0.0,-2.5693,-2.5693,-2.5693,-2.5693,-2.5693,-2.5693,-2.5693,-2.5693,-2.5693,-2.5693,-2.5693,-2.5693,-2.5605,-2.5352,-2.4912,-2.4473,-2.4043,-2.3613,-2.3276,-2.3256,-2.3963,-2.4457,-2.4999,-2.5672,-2.6666,0.0,-2.8291,-2.917,-2.9792,-2.9792,-2.9792,-2.9792,-2.9792,-2.9503,-2.9289,-2.9289,-2.9001,-2.8712,-2.8473,-2.8499,0.0,0.0,0.0,-2.7853,-2.8187,-2.8838,0.0,0.0,0.0,0.0,0.0,0.0,0.0,0.0,-3.1942,-3.2313,0.0,0.0,0.0,0.0,0.0,0.0,0.0,0.0,0.0,0.0,0.0,0.0,0.0,0.0,0.0,0.0,-2.5947,-2.6602,-2.7031,-2.6348,-2.6074,-2.6992,-2.7041,-2.7353,-2.8213,-2.9355,-2.9555,-2.8398,-3.0514,-3.1378,-3.0369,-3.1429,0.0,0.0,0.0,-3.1429,-3.0068,-3.0068,-2.9288,-2.7708,-2.7217,-2.6797,-2.6367,-2.5888,-2.5693,-2.5693,-2.5693,-2.5693,-2.5693,-2.5693,-2.5693,-2.5693,-2.5693,-2.5693,-2.5693,-2.5693,-2.5693,-2.5693,-2.5693,0.0,0.0,-2.5693,-2.5693,-2.5693,-2.5693,-2.5693,-2.5693,-2.5693,-2.5449,-2.5029,-2.4541,-2.4141,-2.374,-2.3208,-2.3091,-2.3091,-2.3091,-2.3877,-2.4628,-2.4628,-2.5546,-2.6307,-2.6307,-2.8131,-2.9624,-2.9624,-2.9702,-2.9792,-2.9792,-2.9792,-2.9792,-2.9792,0.0,0.0,-2.9026,-2.9658,-2.951,-2.8259,-2.8908,-2.9371,-2.945,-2.9964,-3.0503,-3.104,-3.1641,-3.2014,-3.2215,-3.2277,-3.2579,-3.3061,-3.2011,-3.2471,0.0,0.0,0.0,0.0,0.0,0.0,0.0,0.0,0.0,0.0,0.0,0.0,0.0,0.0,0.0,-2.6455,-2.6777,-2.7041,-2.748,-2.6807,-2.6582,-2.7441,-2.7226,-2.7353,-2.8213,-2.8548,-2.8601,-2.8291,-2.8804,-2.9408,-3.0266,-3.0577,-3.0669,-3.0669,-3.0669,-3.0068,-2.8698,-2.8698,-2.8331,-2.7708,0.0,0.0,-2.6367,-2.5888,-2.5693,-2.5693,-2.5693,-2.5693,-2.5693,-2.5693,-2.5693,-2.5693,-2.5693,-2.5693,-2.5693,-2.5693,-2.5693,-2.5693,-2.5693,-2.5693,-2.5693,-2.5693,-2.5693,-2.5693,-2.5693,-2.5693,0.0,-2.5693,-2.5625,-2.5372,-2.4629,-2.4355,-2.4102,-2.3276,-2.3091,-2.3091,-2.3091,-2.3256,-2.343,-2.343,-2.4339,-2.5126,-2.5126,-2.6942,-2.8426,-2.8426,-2.9197,-2.9792,-2.9792,-2.9792,-2.9792,-2.9792,-2.9792,-2.9741,-2.9641,-2.9341,-2.9025,-2.8775,-2.8911,-2.9226,-2.9694,-3.0252,-3.0757,-3.1329,-3.1845,-3.2155,-3.2215,-3.2679,-3.3011,-3.3111,-3.2882,-3.296,0.0,0.0,0.0,0.0,0.0,0.0,0.0,0.0,0.0,0.0,0.0,-2.4362,-2.4961,0.0,-2.6328,-2.7197,-2.7344,-2.749,-2.792,-2.7432,-2.7187,-2.7669,-2.7285,-2.7353,-2.8213,-2.8291,-2.8291,-2.8291,-2.8291,-2.8601,-2.926,-2.9303,-2.9303,-2.9303,-2.9303,-2.9006,-2.8291,-2.8291,-2.8193,-2.7969,-2.7324,-2.6904,-2.668,-2.6035,-2.5693,-2.5693,-2.5693,-2.5693,-2.5693,-2.5693,-2.5693,-2.5693,-2.5693,-2.5693,-2.5693,-2.5693,-2.5693,-2.5693,-2.5693,-2.5693,-2.5693,-2.5693,-2.5693,-2.5693,-2.5693,-2.5693,-2.5693,-2.5693,-2.5372,-2.4923,-2.4531,-2.4102,-2.3627,-2.3198,-2.3091,-2.3091,-2.3091,-2.3091,-2.3091,-2.3091,-2.3551,-2.3963,-2.3963,-2.5326,-2.6655,-2.7197,-2.8227,-2.8937,-2.8937,-2.9456,-2.9792,-2.9792,-2.9792,-2.9792,-2.9792,-2.9528,-2.9365,-2.9365,-2.9365,-2.9616,-3.0181,-3.0721,-3.1248,-3.1788,-3.2353,-3.2641,-3.2641,-3.293,-3.3124,-3.3124,-3.3124,-3.3124,0.0,0.0,0.0,0.0,0.0,0.0,0.0,-2.1142,-2.1898,-2.345,-2.4635,-2.5459,-2.5908,-2.6621,-2.7285,-2.7715,-2.7836,-2.791,-2.8242,-2.793,-2.7718,-2.7718,-2.7363,-2.7441,-2.8213,-2.8291,-2.8291,-2.8291,-2.8291,-2.8291,-2.8291,-2.8291,-2.8291,-2.8291,-2.8291,-2.8291,-2.8291,-2.8291,-2.8291,-2.8281,-2.751,-2.71,-2.6982,-2.6161,-2.5771,-2.5693,-2.5693,-2.5693,-2.5693,-2.5693,-2.5693,-2.5693,-2.5693,-2.5693,-2.5693,-2.5693,-2.5693,-2.5693,-2.5693,-2.5693,-2.5693,-2.5693,-2.5693,-2.5693,-2.5693,-2.5693,-2.5693,-2.5693,-2.5156,-2.4521,-2.4443,-2.3793,-2.3198,-2.311,-2.3091,-2.3091,-2.3091,-2.3091,-2.3091,-2.3091,-2.3091,-2.3091,-2.3091,-2.3877,-2.4882,-2.6016,-2.7075,-2.7804,-2.7804,-2.8779,-2.9495,-2.9495,-2.9663,-2.9792,-2.9792,-2.9792,-2.9792,-2.9792,-2.9892,-3.0193,-3.0746,-3.1273,-3.1813,-3.2365,-3.283,-3.3124,-3.3124,-3.3124,-3.3124,-3.3124,-3.3124,-3.3124,-1.6361,-1.7065,-1.7684,-1.7988,-1.8855,-1.9653,0.0,-2.1312,-2.2958,-2.3559,-2.5074,-2.6367,-2.6797,-2.7266,-2.7787,-2.8154,-2.8223,-2.8242,-2.8281,-2.793,-2.7718,-2.7718,-2.7679,-2.7773,-2.8252,-2.8291,-2.8291,-2.8291,-2.8291,-2.8291,-2.8291,-2.8291,-2.8291,-2.8291,-2.8291,-2.8291,-2.8291,-2.8291,-2.8291,-2.8281,-2.7822,-2.7393,-2.6992,-2.6533,-2.6103,-2.5693,-2.5693,-2.5693,-2.5693,-2.5693,-2.5693,-2.5693,-2.5693,-2.5693,-2.5693,-2.5693,-2.5693,-2.5693,-2.5693,-2.5693,-2.5693,-2.5693,-2.5693,-2.5693,-2.5693,-2.5693,-2.5693,-2.5693,-2.5381,-2.4912,-2.4521,-2.4062,-2.3623,-2.3188,-2.3091,-2.3091,-2.3091,-2.3091,-2.3091,-2.3091,-2.3091,-2.3091,-2.3091,-2.3222,-2.3681,-2.484,-2.5964,-2.6678,-2.6678,-2.7614,-2.8307,-2.8307,-2.9197,-2.9792,-2.9792,-2.9792,-2.9792,-2.9792,-3.0256,-3.0758,-3.1286,-3.1838,-3.239,-3.2968,-3.3086,-3.3124,-3.3124,-3.3124,-3.3124,-3.3124,-3.3124,-3.3124,-1.6583,-1.6949,-1.7163,-1.7608,-1.8124,-1.8867,-2.0437,-2.1535,-2.2725,-2.4522,-2.5862,-2.6807,-2.6982,-2.7568,-2.8164,-2.8584,-2.8447,-2.8379,-2.8623,-2.8086,-2.7718,-2.7718,-2.7718,-2.7787,-2.791,-2.8144,-2.8291,-2.8291,-2.8291,-2.8291,-2.8291,-2.8291,-2.8291,-2.8291,-2.8291,-2.8291,-2.8291,-2.8291,-2.8291,-2.8291,-2.7861,-2.762,-2.7373,-2.6699,-2.6152,-2.5693,-2.5693,-2.5693,-2.5693,-2.5693,-2.5693,-2.5693,-2.5693,-2.5693,-2.5693,-2.5693,-2.5693,-2.5693,-2.5693,-2.5693,-2.5693,-2.5693,-2.5693,-2.5693,-2.5693,-2.5693,-2.5693,-2.5693,-2.541,-2.5077,-2.4844,-2.4297,-2.374,-2.3555,-2.3276,-2.3091,-2.3091,-2.3091,-2.3091,-2.3091,-2.3091,-2.3091,-2.3091,-2.3091,-2.3266,-2.3757,-2.4798,-2.5504,-2.5504,-2.6502,-2.7412,-2.8044,-2.9106,-2.9792,-2.9792,-2.9792,-2.9792,-2.9792,-3.0306,-3.0846,-3.1373,-3.1913,-3.2491,-3.3111,-3.3124,-3.3124,-3.3124,-3.3124,-3.3124,-3.3124,-3.3124,-3.3124,-1.677,-1.6918,-1.6927,-1.7355,-1.7522,-1.8244,-2.0582,-2.1448,-2.2357,-2.4658,-2.6069,-2.6875,-2.6992,-2.7617,-2.8291,-2.8838,-2.8662,-2.8574,-2.8877,-2.8301,-2.7793,-2.7728,-2.7718,-2.7718,-2.7718,-2.8047,-2.8291,-2.8291,-2.8398,-2.8467,-2.8467,-2.8467,-2.8467,-2.8467,-2.8359,-2.8291,-2.8291,-2.8291,-2.8291,-2.8291,-2.7988,-2.7836,-2.7689,-2.6777,-2.6211,-2.5908,-2.5742,-2.5693,-2.5693,-2.5693,-2.5693,-2.5693,-2.5693,-2.5693,-2.5693,-2.5693,-2.5693,-2.5693,-2.5693,-2.5693,-2.5693,-2.5693,-2.5693,-2.5693,-2.5693,-2.5693,-2.5693,-2.5693,-2.541,-2.5116,-2.5116,-2.4521,-2.3965,-2.3965,-2.3721,-2.3413,-2.3305,-2.3276,-2.3237,-2.312,-2.3091,-2.3091,-2.3091,-2.3091,-2.3091,-2.3091,-2.3901,-2.4483,-2.4349,-2.5347,-2.6461,-2.7522,-2.841,-2.8882,-2.8882,-2.9293,-2.9549,-2.9549,-3.0498,-3.1223,-3.1599,-3.2152,-3.2641,-3.3111,-3.3124,-3.3124,-3.3124,-3.3124,-3.3124,-3.3124,-3.3124,-3.3124,-1.6496,-1.6757,-1.7192,-1.7206,-1.7427,-1.7943,-1.9376,-2.0743,-2.2106,-2.3484,-2.5154,-2.6533,-2.6943,-2.7383,-2.7959,-2.8779,-2.8906,-2.8906,-2.8916,-2.8545,-2.8125,-2.7767,-2.7718,-2.7718,-2.7718,-2.8047,-2.8291,-2.8291,-2.8672,-2.8896,-2.8896,-2.8896,-2.8896,-2.8896,-2.8506,-2.8291,-2.8291,-2.8291,-2.8291,-2.8291,-2.8281,-2.8057,-2.7689,-2.6777,-2.6387,-2.6348,-2.5918,-2.5693,-2.5693,-2.5693,-2.5693,-2.5693,-2.5693,-2.5693,-2.5693,-2.5693,-2.5693,-2.5693,-2.5693,-2.5693,-2.5693,-2.5693,-2.5693,-2.5693,-2.5693,-2.5693,-2.5693,-2.5693,-2.541,-2.5116,-2.5116,-2.4736,-2.4394,-2.4394,-2.4385,-2.4268,-2.3857,-2.3769,-2.3643,-2.3179,-2.3091,-2.3091,-2.3091,-2.3091,-2.3091,-2.3091,-2.3496,-2.3658,-2.3193,-2.4168,-2.5294,-2.6431,-2.6595,-2.6607,-2.6607,-2.8029,-2.8939,-2.8939,-3.0947,-3.2177,-3.219,-3.2742,-3.3056,-3.3124,-3.3124,-3.3124,-3.3124,-3.3124,-3.3124,-3.3124,-3.3124,-3.3124,-1.6851,-1.7052,-1.7246,-1.744,-1.7508,-1.7943,-1.9272,-2.0692,-2.2055,-2.3434,-2.5145,-2.6435,-2.6572,-2.7178,-2.7939,-2.8779,-2.8916,-2.9111,-2.9687,-2.915,-2.8555,-2.8135,-2.833,-2.8281,-2.7767,-2.8047,-2.8408,-2.8682,-2.8838,-2.9043,-2.9336,-2.9082,-2.8916,-2.8916,-2.8506,-2.8291,-2.8291,-2.8291,-2.8291,-2.8291,-2.8291,-2.8066,-2.7708,-2.7425,-2.6934,-2.6387,-2.623,-2.6006,-2.5693,-2.5693,-2.5693,-2.5693,-2.5693,-2.5693,-2.5693,-2.5693,-2.5693,-2.5693,-2.5693,-2.5693,-2.5693,-2.5693,-2.5693,-2.5693,-2.5693,-2.5693,-2.5693,-2.5693,-2.5586,-2.5518,-2.5518,-2.5185,-2.4844,-2.4844,-2.4629,-2.4375,-2.4238,-2.4209,-2.416,-2.3968,-2.376,-2.3662,-2.3945,-2.375,-2.3672,-2.39,-2.3578,-2.3506,-2.389,-2.4448,-2.5157,-2.614,-2.6645,-2.7004,-2.7273,-2.7784,-2.8089,-2.8089,-2.9173,-3.0178,-3.0967,-3.153,-3.2239,-3.3068,-3.3124,-3.3124,-3.3124,-3.3124,-3.3124,-3.3124,-3.3124,-3.3124,-1.7072,-1.7199,-1.7266,-1.7508,-1.7582,-1.7943,-1.9272,-2.029,-2.1347,-2.2717,-2.4308,-2.5467,-2.5619,-2.6512,-2.7588,-2.873,-2.8916,-2.9219,-3.0078,-2.959,-2.9053,-2.8779,-2.8848,-2.8769,-2.8389,-2.8594,-2.8799,-2.8906,-2.9199,-2.9502,-2.9785,-2.9531,-2.9307,-2.915,-2.874,-2.8447,-2.8291,-2.8291,-2.8291,-2.8291,-2.8291,-2.8144,-2.7881,-2.7578,-2.7129,-2.6592,-2.6289,-2.5996,-2.5693,-2.5693,-2.5693,-2.5693,-2.5693,-2.5693,-2.5693,-2.5693,-2.5693,-2.5693,-2.5693,-2.5693,-2.5693,-2.5693,-2.5693,-2.5693,-2.5693,-2.5693,-2.5693,-2.5693,-2.5693,-2.5693,-2.5693,-2.5527,-2.5303,-2.5303,-2.5098,-2.4844,-2.4687,-2.4648,-2.4609,-2.4443,-2.4199,-2.4102,-2.4375,-2.4199,-2.416,-2.459,-2.4043,-2.3754,-2.4346,-2.4536,-2.4873,-2.5431,-2.5876,-2.6244,-2.6487,-2.707,-2.739,-2.739,-2.8343,-2.9251,-3.0008,-3.0367,-3.0956,-3.1745,-3.2196,-3.2426,-3.2426,-3.2884,-3.3124,-3.3124,-3.3124,-3.3124,-1.7125,-1.7213,-1.7286,-1.7515,-1.7582,-1.7943,-1.922,-1.9524,-1.9981,-2.1347,-2.2717,-2.38,-2.422,-2.5437,-2.6963,-2.8623,-2.8926,-2.9248,-3.0107,-2.9893,-2.9685,-2.96,-2.9258,-2.917,-2.9531,-2.9665,-2.9453,-2.9014,-2.9736,-3.0205,-3.0234,-3.0205,-3.0,-2.9636,-2.9141,-2.8721,-2.8301,-2.8291,-2.8291,-2.8291,-2.8291,-2.8291,-2.8262,-2.7451,-2.7051,-2.6973,-2.6103,-2.5732,-2.5693,-2.5693,-2.5693,-2.5693,-2.5693,-2.5693,-2.5693,-2.5693,-2.5693,-2.5693,-2.5693,-2.5693,-2.5693,-2.5693,-2.5693,-2.5693,-2.5693,-2.5693,-2.5693,-2.5693,-2.5693,-2.5693,-2.5693,-2.5693,-2.5693,-2.5693,-2.5693,-2.5625,-2.5195,-2.5145,-2.498,-2.456,-2.4482,-2.4473,-2.4453,-2.4473,-2.4629,-2.5039,-2.4746,-2.4482,-2.4482,-2.4443,-2.4434,-2.4482,-2.4463,-2.4453,-2.4482,-2.5905,-2.6836,-2.6836,-2.8326,-2.9223,-2.9315,-2.9315,-2.9315,-2.9407,-3.0541,-3.1134,-3.1122,-3.2339,-3.2896,-3.2896,-3.2896,-3.2896,-1.7179,-1.736,-1.7488,-1.7562,-1.7582,-1.7687,-1.8048,-1.8864,-1.9679,-2.0084,-2.2064,-2.3719,-2.3818,-2.5475,-2.7207,-2.8281,-2.8984,-2.9707,-3.0596,-3.0625,-3.043,-3.0078,-3.0244,-3.0176,-2.9675,-3.0166,-3.0361,-2.9902,-3.0068,-3.0342,-3.0693,-3.0391,-3.0,-2.9636,-2.9141,-2.8721,-2.8301,-2.8291,-2.8291,-2.8291,-2.8291,-2.8291,-2.8281,-2.8066,-2.7617,-2.7002,-2.6787,-2.6278,-2.5693,-2.5693,-2.5693,-2.5693,-2.5693,-2.5693,-2.5693,-2.5693,-2.5693,-2.5693,-2.5693,-2.5693,-2.5693,-2.5693,-2.5693,-2.5693,-2.5693,-2.5693,-2.5693,-2.5693,-2.5693,-2.5693,-2.5693,-2.5693,-2.5693,-2.5693,-2.5693,-2.5654,-2.5596,-2.5566,-2.5537,-2.5372,-2.5352,-2.5293,-2.4961,-2.5176,-2.5391,-2.5557,-2.5469,-2.5352,-2.5352,-2.4777,-2.4668,-2.5284,-2.5098,-2.5039,-2.5323,-2.5777,-2.6038,-2.6038,-2.6416,-2.7078,-2.8002,-2.8049,-2.8495,-2.9361,-2.9727,-2.9863,-2.9863,-3.0181,-3.0316,-3.0316,-3.0316,-3.0316,-1.7353,-1.7514,-1.7582,-1.7582,-1.7582,-1.7549,-1.7474,-1.7998,-1.8517,-1.8374,-2.0604,-2.2563,-2.2357,-2.474,-2.7021,-2.7881,-2.873,-2.9726,-3.0986,-3.1006,-3.0859,-3.0781,-3.084,-3.0693,-3.0195,-3.0596,-3.0781,-3.0518,-3.0508,-3.0615,-3.0879,-3.0644,-3.0215,-2.9646,-2.9336,-2.8906,-2.8301,-2.8291,-2.8291,-2.8291,-2.8291,-2.8291,-2.8281,-2.8096,-2.7656,-2.7002,0.0,-2.6357,-2.5693,-2.5693,-2.5693,-2.5693,-2.5693,-2.5693,-2.5693,-2.5693,-2.5693,-2.5693,-2.5693,-2.5693,-2.5693,-2.5693,-2.5693,-2.5693,-2.5693,-2.5693,-2.5693,-2.5693,-2.5693,-2.5693,-2.5693,-2.5693,-2.5693,-2.5693,-2.5693,-2.5693,-2.5693,-2.5693,-2.5693,-2.5693,-2.5693,-2.5615,-2.54,-2.5566,-2.5693,-2.5693,-2.5693,-2.5693,-2.5693,-2.5255,-2.5138,-2.5635,-2.5518,-2.5459,-2.5664,-2.5693,-2.5693,-2.5693,-2.5693,-2.6014,-2.6754,-2.6754,-2.7078,-2.7757,-2.8319,-2.8588,-2.8588,-2.9131,-2.9407,-2.9407,-2.9407,-2.9407,-1.7515,-1.7582,-1.7582,-1.7582,-1.7582,-1.7508,-1.7266,-1.7199,-1.7177,-1.7065,-1.9273,-2.1163,-2.105,-2.396,-2.668,-2.765,-2.8408,-2.9521,-3.1269,-3.1201,-3.1103,-3.1475,-3.1201,-3.0957,-3.0898,-3.0889,-3.0889,-3.0889,-3.0889,-3.0889,-3.0889,-3.0889,-3.0488,-2.9655,-2.9518,-2.9043,-2.8301,-2.8291,-2.8291,-2.8291,-2.8291,-2.8291,-2.8281,-2.792,-2.751,-2.708,-2.6719,-2.6279,-2.5771,-2.5771,-2.5742,-2.5693,-2.5693,-2.5693,-2.5693,-2.5693,-2.5693,-2.5693,-2.5693,-2.5693,-2.5693,-2.5693,-2.5693,-2.5693,-2.5693,-2.5693,-2.5693,-2.5693,-2.5693,-2.5693,-2.5693,-2.5693,-2.5693,-2.5693,-2.5693,-2.5693,-2.5693,-2.5693,-2.5693,-2.5693,-2.5693,-2.5693,-2.5693,-2.5693,-2.5693,-2.5693,-2.5693,-2.5693,-2.5693,-2.5693,-2.5693,-2.5693,-2.5693,-2.5693,-2.5693,-2.5693,-2.5693,-2.5693,-2.5693,-2.5693,-2.5693,-2.5693,-2.5693,-2.5693,-2.6802,-2.7363,-2.7363,-2.8402,-2.8901,-2.8901,-2.8901,-2.8901,-1.7569,-1.7582,-1.7582,-1.7582,-1.7582,-1.7508,-1.7266,-1.7199,-1.7487,-1.8528,-2.0082,-2.1617,-2.2929,-2.4961,-2.6777,-2.7988,-2.8603,-2.9521,-3.1269,-3.1455,-3.1435,-3.1504,-3.1455,-3.1269,-3.0928,-3.0889,-3.0889,-3.0889,-3.0889,-3.0889,-3.0889,-3.0889,-3.0488,-2.9655,-2.8887,-2.8447,-2.8291,-2.8291,-2.8291,-2.8291,-2.8291,-2.8291,-2.8291,-2.8223,-2.7959,-2.7549,-2.7523,0.0,-2.6279,-2.6279,-2.6064,-2.5693,-2.5693,-2.5693,-2.5693,-2.5693,-2.5693,-2.5693,-2.5693,-2.5693,-2.5693,-2.5693,-2.5693,-2.5693,-2.5693,-2.5693,-2.5693,-2.5693,-2.5693,-2.5693,-2.5693,-2.5693,-2.5693,-2.5693,-2.5693,-2.5693,-2.5693,-2.5693,-2.5693,-2.5693,-2.5693,-2.5693,-2.5693,-2.5693,-2.5693,-2.5693,-2.5693,-2.5693,-2.5693,-2.5693,-2.5693,-2.5693,-2.5693,-2.5693,-2.5693,-2.5693,-2.5693,-2.5693,-2.5693,-2.5693,-2.5693,-2.5693,-2.5693,-2.5693,-2.5927,-2.6014,-2.6014,-2.6245,-2.6332,-2.6332,-2.6332,-2.6332,-1.7542,-1.7582,-1.7582,-1.7582,-1.7582,-1.7468,-1.7021,-1.7092,-1.7513,-1.8511,-2.0067,-2.159,-2.2876,-2.492,-2.6592,-2.7197,-2.7842,-2.8955,-3.0918,-3.0986,-3.1172,-3.208,-3.1787,-3.1435,-3.124,-3.1025,-3.0889,-3.0889,-3.0889,-3.0889,-3.0889,-3.0459,-2.9902,-2.9248,-2.8623,-2.8291,-2.8291,-2.8291,-2.8291,-2.8291,-2.8291,-2.8291,-2.8291,-2.8291,-2.8066,-2.7718,-2.7718,-2.7229,-2.6387,-2.6387,-2.6133,-2.5693,-2.5693,-2.5693,-2.5693,-2.5693,-2.5693,-2.5693,-2.5693,-2.5693,-2.5693,-2.5693,-2.5693,-2.5693,-2.5693,-2.5693,-2.5693,-2.5693,-2.5693,-2.5693,-2.5693,-2.5693,-2.5693,-2.5693,-2.5693,-2.5693,-2.5693,-2.5693,-2.5693,-2.5693,-2.5693,-2.5693,-2.5693,-2.5693,-2.5693,-2.5693,-2.5693,-2.5693,-2.5693,-2.5693,-2.5693,-2.5693,-2.5693,-2.5693,-2.5693,-2.5693,-2.5693,-2.5693,-2.5693,-2.5693,-2.5693,-2.5693,-2.5693,-2.5693,-2.5693,-2.5693,-2.5693,-2.5693,-2.5693,-2.5693,-2.5693,-2.5693,-1.7481,-1.7535,-1.7582,-1.7582,-1.7582,-1.7428,-1.684,-1.7181,-1.7843,-1.8677,-2.0321,-2.1979,-2.3046,-2.4898,-2.6309,-2.6494,-2.7168,-2.8389,-3.0449,-3.0586,-3.1025,-3.249,-3.207,-3.1621,-3.1533,-3.1133,-3.0889,-3.0889,-3.0889,-3.0889,-3.0889,-3.0049,-2.9414,-2.9062,-2.8564,-2.8291,-2.8291,-2.8291,-2.8291,-2.8291,-2.8291,-2.8291,-2.8291,-2.8291,-2.8115,-2.7855,-2.7855,-2.7363,-2.666,-2.6562,-2.6269,-2.582,-2.5723,-2.5693,-2.5693,-2.5693,-2.5693,-2.5693,-2.5693,-2.5693,-2.5693,-2.5693,-2.5693,-2.5693,-2.5693,-2.5693,-2.5693,-2.5693,-2.5693,-2.5693,-2.5693,-2.5693,-2.5693,-2.5693,-2.5693,-2.5693,-2.5693,-2.5693,-2.5693,-2.5693,-2.5693,-2.5693,-2.5693,-2.5693,-2.5693,-2.5693,-2.5693,-2.5693,-2.5693,-2.5693,-2.5693,-2.5693,-2.5693,-2.5693,-2.5693,-2.5693,-2.5693,-2.5693,-2.5693,-2.5693,-2.5693,-2.5693,-2.5693,-2.5693,-2.5693,-2.5693,-2.5693,-2.5693,-2.5693,-2.5693,-2.5693,-2.5693,-1.7233,-1.7434,-1.7582,-1.7582,-1.7582,-1.7428,-1.684,-1.7924,-1.9287,-2.0361,-2.1917,-2.3602,-2.515,-2.5616,-2.6005,-2.6836,-2.7353,-2.8271,-3.001,-3.0918,-3.1601,-3.2158,-3.2158,-3.1953,-3.1553,-3.1133,-3.0889,-3.0889,-3.0889,-3.0889,-3.0889,-3.0049,-2.9551,-2.9567,-2.8721,-2.8291,-2.8291,-2.8291,-2.8291,-2.8291,-2.8291,-2.8291,-2.8291,-2.8291,-2.8271,-2.8232,-2.8232,-2.7969,0.0,-2.7119,-2.6709,-2.6289,-2.5889,-2.5693,-2.5693,-2.5693,-2.5693,-2.5693,-2.5693,-2.5693,-2.5693,-2.5693,-2.5693,-2.5693,-2.5693,-2.5693,-2.5693,-2.5693,-2.5693,-2.5693,-2.5693,-2.5693,-2.5693,-2.5693,-2.5693,-2.5693,-2.5693,-2.5693,-2.5693,-2.5693,-2.5693,-2.5693,-2.5693,-2.5693,-2.5693,-2.5693,-2.5693,-2.5693,-2.5693,-2.5693,-2.5693,-2.5693,-2.5693,-2.5693,-2.5693,-2.5693,-2.5693,-2.5693,-2.5693,-2.5693,-2.5693,-2.5693,-2.5693,-2.5693,-2.5693,-2.5693,-2.5693,-2.5693,-2.5693,-2.5693,-2.5693,-2.5693,-1.7152,-1.7414,-1.7582,-1.7582,-1.7582,-1.773,-1.8109,-1.8854,-1.9996,-2.191,-2.2983,-2.3963,-2.545,-2.5693,-2.5801,-2.6142,-2.6387,-2.7012,-2.8467,-2.9189,-3.0127,-3.1601,-3.1553,-3.1533,-3.1875,-3.1289,-3.0889,-3.0889,-3.0889,-3.0771,-3.0488,-2.9893,-2.9336,-2.8818,-2.8476,-2.8291,-2.8291,-2.8291,-2.8291,-2.8291,-2.8291,-2.8291,-2.8291,-2.8291,-2.8291,-2.8291,-2.8291,-2.79,0.0,-2.709,-2.6611,-2.5977,-2.5752,-2.5693,-2.5693,-2.5693,-2.5693,-2.5693,-2.5693,-2.5693,-2.5693,-2.5693,-2.5693,-2.5693,-2.5693,-2.5693,-2.5693,-2.5693,-2.5693,-2.5693,-2.5693,-2.5693,-2.5693,-2.5693,-2.5693,-2.5693,-2.5693,-2.5693,-2.5693,-2.5693,-2.5693,-2.5693,-2.5693,-2.5693,-2.5693,-2.5693,-2.5693,-2.5693,-2.5693,-2.5693,-2.5693,-2.5693,-2.5693,-2.5693,-2.5693,-2.5693,-2.5693,-2.5693,-2.5693,-2.5693,-2.5693,-2.5693,-2.5693,-2.5693,-2.5693,-2.5693,-2.5693,-2.5693,-2.5693,-2.5693,-2.5693,-2.5693,-1.7012,-1.7295,-1.7582,-1.7582,-1.7891,-1.8376,-1.9072,-2.005,-2.1308,-2.2943,-2.3822,-2.4559,-2.5538,-2.5693,-2.5693,-2.5693,-2.5801,-2.6338,-2.7552,-2.8242,-2.9336,-3.1123,-3.1074,-3.1172,-3.1904,-3.1318,-3.0889,-3.0889,-3.0762,-3.0488,-3.0039,-2.9609,-2.9101,-2.8496,-2.8359,-2.8291,-2.8291,-2.8291,-2.8291,-2.8291,-2.8291,-2.8291,-2.8291,-2.8291,-2.8291,-2.8281,-2.8164,-2.7764,0.0,-2.6934,-2.6475,-2.5869,-2.5742,-2.5693,-2.5693,-2.5693,-2.5693,-2.5693,-2.5693,-2.5693,-2.5693,-2.5693,-2.5693,-2.5693,-2.5693,-2.5693,-2.5693,-2.5693,-2.5693,-2.5693,-2.5693,-2.5693,-2.5693,-2.5693,-2.5693,-2.5693,-2.5693,-2.5693,-2.5693,-2.5693,-2.5693,-2.5693,-2.5693,-2.5693,-2.5693,-2.5693,-2.5693,-2.5693,-2.5693,-2.5693,-2.5693,-2.5693,-2.5693,-2.5693,-2.5693,-2.5693,-2.5693,-2.5693,-2.5693,-2.5693,-2.5693,-2.5693,-2.5693,-2.5693,-2.5693,-2.5693,-2.5693,-2.5693,-2.5693,-2.5693,-2.5693,-2.5693,-1.6707,-1.7134,-1.7582,-1.7582,-1.861,-1.9494,-1.9267,-2.1503,-2.3583,-2.3341,-2.458,-2.5684,-2.5693,-2.5693,-2.5693,-2.5693,-2.6103,-2.668,-2.7601,-2.8814,-2.9893,-3.0791,-3.0889,-3.1055,-3.1484,-3.1143,-3.0889,-3.0889,-3.0459,-3.0019,-2.9655,-2.916,-2.8916,-2.8916,-2.8506,-2.8291,-2.8291,-2.8291,-2.8291,-2.8291,-2.8291,-2.8291,-2.8291,-2.8291,-2.8291,-2.8271,-2.7851,-2.7718,0.0,-2.6738,-2.6387,-2.6338,-2.5859,-2.5693,-2.5693,-2.5693,-2.5693,-2.5693,-2.5693,-2.5693,-2.5693,-2.5693,-2.5693,-2.5693,-2.5693,-2.5693,-2.5693,-2.5693,-2.5693,-2.5693,-2.5693,-2.5693,-2.5693,-2.5693,-2.5693,-2.5693,-2.5693,-2.5693,-2.5693,-2.5693,-2.5693,-2.5693,-2.5693,-2.5693,-2.5693,-2.5693,-2.5693,-2.5693,-2.5693,-2.5693,-2.5693,-2.5693,-2.5693,-2.5693,-2.5693,-2.5693,-2.5693,-2.5693,-2.5693,-2.5693,-2.5693,-2.5693,-2.5693,-2.5693,-2.5693,-2.5693,-2.5693,-2.5693,-2.5693,-2.5693,-2.5693,-2.5693,-1.7413,-1.7321,-1.7177,-1.8024,-1.8788,-1.9767,-2.1444,-2.2795,-2.3962,-2.4752,-2.5344,-2.5693,-2.5693,-2.5693,-2.5879,-2.6464,-2.6728,-2.7119,-2.7969,-2.8945,-2.9785,-3.0351,-3.0947,-3.126,-3.1103,-3.0967,-3.0889,-3.0889,-3.0459,-3.001,-2.959,-2.915,-2.8789,-2.8496,-2.8359,-2.8291,-2.8291,-2.8291,-2.8291,-2.8291,-2.8291,-2.8291,-2.8291,-2.8291,-2.8291,-2.8271,-2.7851,-2.75,-2.7178,-2.6621,-2.6211,-2.5937,-2.5742,-2.5693,-2.5693,-2.5693,-2.5693,-2.5693,-2.5693,-2.5693,-2.5693,-2.5693,-2.5693,-2.5693,-2.5693,-2.5693,-2.5693,-2.5693,-2.5693,-2.5693,-2.5693,-2.5693,-2.5693,-2.5693,-2.5693,-2.5693,-2.5693,-2.5693,-2.5693,-2.5693,-2.5693,-2.5693,-2.5693,-2.5693,-2.5693,-2.5693,-2.5693,-2.5693,-2.5693,-2.5693,-2.5693,-2.5693,-2.5693,-2.5693,-2.5693,-2.5693,-2.5693,-2.5693,-2.5693,-2.5693,-2.5693,-2.5693,-2.5693,-2.5693,-2.5693,-2.5693,-2.5693,-2.5693,-2.5693,-2.5693,-2.5693,-2.5693,-1.8554,-1.8443,-1.8284,-1.9235,-2.0022,-2.1106,-2.2886,-2.3865,-2.4707,-2.5538,-2.5693,-2.5693,-2.5693,-2.5693,-2.5918,-2.667,-2.6777,-2.7139,-2.8144,-2.9033,-2.9795,-3.0391,-3.0947,-3.1113,-3.0674,-3.0791,-3.082,-3.0644,-3.0215,-2.9775,-2.9346,-2.8916,-2.8564,-2.8301,-2.8291,-2.8291,-2.8291,-2.8291,-2.8291,-2.8291,-2.8291,-2.8291,-2.8291,-2.8291,-2.8203,-2.8027,-2.7607,-2.7178,0.0,-2.6318,-2.5977,-2.5693,-2.5693,-2.5693,-2.5693,-2.5693,-2.5693,-2.5693,-2.5693,-2.5693,-2.5693,-2.5693,-2.5693,-2.5693,-2.5693,-2.5693,-2.5693,-2.5693,-2.5693,-2.5693,-2.5693,-2.5693,-2.5693,-2.5693,-2.5693,-2.5693,-2.5693,-2.5693,-2.5693,-2.5693,-2.5693,-2.5693,-2.5693,-2.5693,-2.5693,-2.5693,-2.5693,-2.5693,-2.5693,-2.5693,-2.5693,-2.5693,-2.5693,-2.5693,-2.5693,-2.5693,-2.5693,-2.5693,-2.5693,-2.5693,-2.5693,-2.5693,-2.5693,-2.5693,-2.5693,-2.5693,-2.5693,-2.5693,-2.5693,-2.5693,-2.5693,-2.5693,0.0,-2.0272,-2.0474,-2.0974,-2.208,-2.3138,-2.3664,-2.4796,0.0,-2.5693,-2.5693,-2.5703,-2.5771,-2.5752,-2.5908,-2.6484,-2.6572,-2.7002,-2.8252,-2.9141,-2.998,-3.083,-3.0908,-3.0723,-3.0293,-3.0605,-3.0664,-3.0234,-2.9785,-2.9346,-2.8945,-2.8525,-2.8291,-2.8291,-2.8291,-2.8291,-2.8291,-2.8291,-2.8291,-2.8291,-2.8291,-2.8291,-2.8291,-2.8291,-2.8066,0.0,-2.7207,-2.6777,-2.6357,-2.5869,-2.5693,-2.5693,-2.5693,-2.5693,-2.5693,-2.5693,-2.5693,-2.5693,-2.5693,-2.5693,-2.5693,-2.5693,-2.5693,-2.5693,-2.5693,-2.5693,-2.5693,-2.5693,-2.5693,-2.5693,-2.5693,-2.5693,-2.5693,-2.5693,-2.5693,-2.5693,-2.5693,-2.5693,-2.5693,-2.5693,-2.5693,-2.5693,-2.5693,-2.5693,-2.5693,-2.5693,-2.5693,-2.5693,-2.5693,-2.5693,-2.5693,-2.5693,-2.5693,-2.5693,-2.5693,-2.5693,-2.5693,-2.5693,-2.5693,-2.5693,-2.5693,-2.5693,-2.5693,-2.5693,-2.5693,-2.5693,-2.5693,-2.5693,-2.5693,-2.5693,-2.5693,-2.5693,-2.2779,0.0,-2.0523,-2.1865,-2.2727,-2.3519,0.0,-2.5237,-2.5693,-2.5693,-2.5693,-2.5888,-2.6592,-2.6455,-2.6699,-2.8096,-2.833,-2.8662,-2.9609,-3.0225,-3.0771,-3.1309,-3.1084,-3.085,-3.0742,-3.0508,-3.0312,-3.0205,-2.9492,-2.9023,-2.8926,-2.8525,-2.8291,-2.8291,-2.8291,-2.8291,-2.8291,-2.8291,-2.8291,-2.8291,-2.8291,-2.8291,-2.8291,-2.8291,-2.8066,-2.7689,-2.7207,-2.6777,-2.6357,-2.5869,-2.5693,-2.5693,-2.5693,-2.5693,-2.5693,-2.5693,-2.5693,-2.5693,-2.5693,-2.5693,-2.5693,-2.5693,-2.5693,-2.5693,-2.5693,-2.5693,-2.5693,-2.5693,-2.5693,-2.5693,-2.5693,-2.5693,-2.5693,-2.5693,-2.5693,-2.5693,-2.5693,-2.5693,-2.5693,-2.5693,-2.5693,-2.5693,-2.5693,-2.5693,-2.5693,-2.5693,-2.5693,-2.5693,-2.5693,-2.5693,-2.5693,-2.5693,-2.5693,-2.5693,-2.5693,-2.5693,-2.5693,-2.5693,-2.5693,-2.5693,-2.5693,-2.5693,-2.5693,-2.5693,-2.5693,-2.5693,-2.5693,-2.5693,-2.5693,-2.5693,-2.5693,-2.5693,-2.3965,-2.3119,-2.2405,-2.3699,-2.4218,-2.4629,-2.548,-2.5703,-2.5693,-2.5693,-2.5693,-2.5888,-2.6611,-2.6114,-2.6238,-2.8301,-2.8179,-2.8434,-3.0246,-3.0732,-3.1045,-3.1465,-3.1143,-3.081,-3.0596,-3.0342,-3.0029,-2.9639,-2.918,-2.8838,-2.8643,-2.8418,-2.8291,-2.8291,-2.8291,-2.8291,-2.8291,-2.8291,-2.8291,-2.8291,-2.8291,-2.8291,-2.8291,-2.8291,-2.7949,-2.7353,-2.7119,-2.666,-2.6074,-2.5781,-2.5693,-2.5693,-2.5693,-2.5693,-2.5693,-2.5693,-2.5693,-2.5693,-2.5693,-2.5693,-2.5693,-2.5693,-2.5693,-2.5693,-2.5693,-2.5693,-2.5693,-2.5693,-2.5693,-2.5693,-2.5693,-2.5693,-2.5693,-2.5693,-2.5693,-2.5693,-2.5693,-2.5693,-2.5693,-2.5693,-2.5693,-2.5693,-2.5693,-2.5693,-2.5693,-2.5693,-2.5693,-2.5693,-2.5693,-2.5693,-2.5693,-2.5693,-2.5693,-2.5693,-2.5693,-2.5693,-2.5693,-2.5693,-2.5693,-2.5693,-2.5693,-2.5693,-2.5693,-2.5693,-2.5693,-2.5693,-2.5693,-2.5693,-2.5693,-2.5693,-2.5693,-2.5693,-2.4385,-2.4462,-2.462,-2.5479,-2.5732,-2.5869,-2.6221,-2.6006,-2.5693,-2.5693,-2.5693,-2.581,-2.6155,-2.5591,-2.5745,-2.7924,-2.7641,-2.8049,-3.0548,-3.0889,-3.0996,-3.1279,-3.1006,-3.0605,-3.0146,-3.0039,-2.9707,-2.8975,-2.8857,-2.8672,-2.831,-2.8291,-2.8291,-2.8291,-2.8291,-2.8291,-2.8291,-2.8291,-2.8291,-2.8291,-2.8291,-2.8291,-2.8291,-2.8291,-2.7822,-2.7012,0.0,0.0,-2.5693,-2.5693,-2.5693,-2.5693,-2.5693,-2.5693,-2.5693,-2.5693,-2.5693,-2.5693,-2.5693,-2.5693,-2.5693,-2.5693,-2.5693,-2.5693,-2.5693,-2.5693,-2.5693,-2.5693,-2.5693,-2.5693,-2.5693,-2.5693,-2.5693,-2.5693,-2.5693,-2.5693,-2.5693,-2.5693,-2.5693,-2.5693,-2.5693,-2.5693,-2.5693,-2.5693,-2.5693,-2.5693,-2.5693,-2.5693,-2.5693,-2.5693,-2.5693,-2.5693,-2.5693,-2.5693,-2.5693,-2.5693,-2.5693,-2.5693,-2.5693,-2.5693,-2.5693,-2.5693,-2.5693,-2.5693,-2.5693,-2.5693,-2.5693,-2.5693,-2.5693,-2.5693,-2.5693,-2.5693,-2.4803,-2.4803,-2.4743,-2.5526,-2.6016,-2.6211,-2.5859,-2.5732,-2.5693,-2.5693,-2.5693,-2.5669,-2.5561,-2.6469,-2.7418,-2.7972,-2.9286,-3.0355,-3.0859,-3.0889,-3.0771,-3.0439,-3.0342,-3.0137,-2.9707,-2.9326,-2.9062,-2.8926,-2.8584,-2.8359,-2.8301,-2.8291,-2.8291,-2.8291,-2.8291,-2.8291,-2.8291,-2.8291,-2.8291,-2.8291,-2.8291,-2.8291,-2.8291,-2.8291,-2.7822,-2.7012,0.0,-2.6533,-2.5693,-2.5693,-2.5693,-2.5693,-2.5693,-2.5693,-2.5693,-2.5693,-2.5693,-2.5693,-2.5693,-2.5693,-2.5693,-2.5693,-2.5693,-2.5693,-2.5693,-2.5693,-2.5693,-2.5693,-2.5693,-2.5693,-2.5693,-2.5693,-2.5693,-2.5693,-2.5693,-2.5693,-2.5693,-2.5693,-2.5693,-2.5693,-2.5693,-2.5693,-2.5693,-2.5693,-2.5693,-2.5693,-2.5693,-2.5693,-2.5693,-2.5693,-2.5693,-2.5693,-2.5693,-2.5693,-2.5693,-2.5693,-2.5693,-2.5693,-2.5693,-2.5693,-2.5693,-2.5693,-2.5693,-2.5693,-2.5693,-2.5693,-2.5693,-2.5693,-2.5693,-2.5693,-2.5693,-2.5693,-2.4609,-2.5119,-2.5635,-2.5983,-2.5605,-2.5246,-2.5709,-2.5596,-2.5438,-2.5438,-2.5948,-2.6205,-2.5527,-2.5585,-2.5712,-2.5666,-2.7833,-2.953,-2.953,-3.0122,-3.043,-3.0225,-3.0,-2.9687,-2.9258,-2.9033,-2.8818,-2.8603,-2.8398,-2.8291,-2.8291,-2.8076,-2.7959,-2.7959,-2.7725,-2.7598,-2.7598,-2.7598,-2.7832,-2.8291,-2.8291,-2.8291,-2.8291,-2.8291,-2.7949,-2.7353,0.0,-2.666,-2.6074,-2.5781,-2.5693,-2.5693,-2.5693,-2.5693,-2.5693,-2.5693,-2.5693,-2.5693,-2.5693,-2.5693,-2.5693,-2.5693,-2.5693,-2.5693,-2.5693,-2.5693,-2.5693,-2.5693,-2.5693,-2.5693,-2.5693,-2.5693,-2.5693,-2.5693,-2.5693,-2.5693,-2.5693,-2.5693,-2.5693,-2.5693,-2.5693,-2.5693,-2.5693,-2.5693,-2.5693,-2.5693,-2.5693,-2.5693,-2.5693,-2.5693,-2.5693,-2.5693,-2.5693,-2.5693,-2.5693,-2.5693,-2.5693,-2.5693,-2.5693,-2.5693,-2.5693,-2.5693,-2.5693,-2.5693,-2.5693,-2.5693,-2.5693,-2.5693,-2.5693,-2.5693,-2.5693,-2.5693,-2.4512,-2.4957,-2.5465,-2.5932,-2.5102,-2.4441,-2.5493,-2.5102,-2.4604,-2.4734,-2.5447,-2.5835,-2.5138,-2.4687,-2.4495,-2.4595,-2.6495,-2.8097,-2.8367,-2.9089,-2.9747,-3.0002,-2.9678,-2.9248,-2.8809,-2.8769,-2.8643,-2.831,-2.8291,-2.8252,-2.8144,-2.7894,-2.7669,-2.7519,-2.7187,-2.7012,-2.7012,-2.7012,-2.7393,-2.8144,-2.8144,-2.8193,-2.8291,-2.8291,-2.8066,-2.7689,-2.7207,-2.6777,-2.6357,-2.5869,-2.5693,-2.5693,-2.5693,-2.5693,-2.5693,-2.5693,-2.5693,-2.5693,-2.5693,-2.5693,-2.5693,-2.5693,-2.5693,-2.5693,-2.5693,-2.5693,-2.5693,-2.5693,-2.5693,-2.5693,-2.5693,-2.5693,-2.5693,-2.5693,-2.5693,-2.5693,-2.5693,-2.5693,-2.5693,-2.5693,-2.5693,-2.5693,-2.5693,-2.5693,-2.5693,-2.5693,-2.5693,-2.5693,-2.5693,-2.5693,-2.5693,-2.5693,-2.5693,-2.5693,-2.5693,-2.5693,-2.5693,-2.5693,-2.5693,-2.5693,-2.5693,-2.5693,-2.5693,-2.5693,-2.5693,-2.5693,-2.5693,-2.5693,-2.5693,-2.5693,-2.5791,-2.5791,-2.4851,-2.3656,-2.2711,-2.4625,-2.4681,-2.4466,-2.5111,-2.3896,-2.2864,-2.3427,-2.3398,-2.3368,-2.3667,-2.4713,-2.5932,-2.7273,-2.7039,-2.7119,-2.8224,-2.8142,-2.8408,-2.949,-2.9228,-2.8799,-2.8379,-2.834,-2.833,-2.8291,-2.8291,-2.8125,-2.7787,-2.7738,-2.748,-2.707,-2.7031,-2.7012,-2.7012,-2.7012,-2.7246,-2.7767,-2.7767,-2.792,-2.8291,-2.8291,-2.8066,-2.7689,-2.7207,-2.6777,-2.6357,-2.5869,-2.5693,-2.5693,-2.5693,-2.5693,-2.5693,-2.5693,-2.5693,-2.5693,-2.5693,-2.5693,-2.5693,-2.5693,-2.5693,-2.5693,-2.5693,-2.5693,-2.5693,-2.5693,-2.5693,-2.5693,-2.5693,-2.5693,-2.5693,-2.5693,-2.5693,-2.5693,-2.5693,-2.5693,-2.5693,-2.5693,-2.5693,-2.5693,-2.5693,-2.5693,-2.5693,-2.5693,-2.5693,-2.5693,-2.5693,-2.5693,-2.5693,-2.5693,-2.5693,-2.5693,-2.5693,-2.5693,-2.5693,-2.5693,-2.5693,-2.5693,-2.5693,-2.5693,-2.5693,-2.5693,-2.5693,-2.5693,-2.5693,-2.5693,-2.5693,-2.5703,-2.6152,-2.6123,-2.3495,-2.3287,-2.3169,-2.3263,-2.2739,-2.2351,-2.3047,-2.2661,-2.2382,-2.2958,-2.3634,-2.4106,-2.4245,-2.3037,-2.2595,-2.4436,-2.4435,-2.4723,-2.6236,-2.6853,-2.7621,-2.9014,-2.8789,-2.8467,-2.831,-2.8291,-2.8184,-2.792,-2.791,-2.7715,-2.7285,-2.7012,-2.6797,-2.6631,-2.6357,-2.6171,-2.6171,-2.6171,-2.6435,-2.6875,-2.7464,-2.7891,-2.8281,-2.8027,-2.7959,-2.8018,-2.7314,-2.708,-2.7129,-2.6435,-2.6143,-2.6113,-2.5791,-2.5693,-2.5693,-2.5693,-2.5693,-2.5693,-2.5693,-2.5693,-2.5693,-2.5693,-2.5693,-2.5693,-2.5693,-2.5693,-2.5693,-2.5693,-2.5693,-2.5693,-2.5693,-2.5693,-2.5693,-2.5693,-2.5693,-2.5693,-2.5693,-2.5693,-2.5693,-2.5693,-2.5693,-2.5693,-2.5693,-2.5693,-2.5693,-2.5693,-2.5693,-2.5693,-2.5693,-2.5693,-2.5693,-2.5693,-2.5693,-2.5693,-2.5693,-2.5693,-2.5693,-2.5693,-2.5986,-2.6143,-2.6143,-2.6143,-2.626,-2.6473,-2.5966,-2.582,-2.6143,-2.6143,-2.6143,-2.6152,-2.6582,-2.6689,-2.2552,-2.2397,-2.2222,-2.1739,-2.0863,-2.0377,-2.1104,-2.1335,-2.1457,-2.2105,-2.3164,-2.397,-2.3739,-2.1935,-2.0963,-2.2393,-2.2191,-2.2483,-2.4233,-2.5332,-2.6482,-2.8019,-2.8265,-2.8291,-2.8291,-2.8174,-2.7978,-2.7738,-2.7539,-2.7275,-2.6836,-2.6543,-2.6328,-2.6182,-2.5889,-2.5693,-2.5693,-2.5693,-2.5957,-2.6396,-2.6982,-2.748,-2.7881,-2.7588,-2.7695,-2.8057,-2.7324,-2.7266,-2.766,-2.6885,-2.6504,-2.6348,-2.5859,-2.5693,-2.5693,-2.5693,-2.5693,-2.5693,-2.5693,-2.5693,-2.5693,-2.5693,-2.5693,-2.5693,-2.5693,-2.5693,-2.5693,-2.5693,-2.5693,-2.5693,-2.5693,-2.5693,-2.5693,-2.5693,-2.5693,-2.5693,-2.5693,-2.5693,-2.5693,-2.5693,-2.5693,-2.5693,-2.5693,-2.5693,-2.5693,-2.5693,-2.5693,-2.5693,-2.5693,-2.5693,-2.5693,-2.5693,-2.5693,-2.5693,-2.5693,-2.5693,-2.5742,-2.5937,-2.6348,-2.6523,-2.6396,-2.6514,-2.6719,-2.7012,-2.6386,-2.6289,-2.6592,-2.6592,-2.6592,-2.6602,-2.7021,-2.7148,-2.2261,-2.0704,-1.9161,-1.9911,-1.9278,-1.8731,-1.9599,-1.98,-1.9967,-2.0555,-2.1633,-2.2275,-2.1713,-2.179,-2.2006,-2.2006,-2.0956,-2.0758,-2.2468,-2.3623,-2.4878,-2.6482,-2.7649,-2.8281,-2.8281,-2.791,-2.7708,-2.7708,-2.7256,-2.6826,-2.6406,-2.6387,-2.6182,-2.5703,-2.5693,-2.5693,-2.5693,-2.5693,-2.5908,-2.6387,-2.6387,-2.6602,-2.7012,-2.7012,-2.7246,-2.7689,-2.7207,-2.7266,-2.7679,-2.7197,-2.6758,-2.6338,-2.5859,-2.5693,-2.5693,-2.5693,-2.5693,-2.5693,-2.5693,-2.5693,-2.5693,-2.5693,-2.5693,-2.5693,-2.5693,-2.5693,-2.5693,-2.5693,-2.5693,-2.5693,-2.5693,-2.5693,-2.5693,-2.5693,-2.5693,-2.5693,-2.5693,-2.5693,-2.5693,-2.5693,-2.5693,-2.5693,-2.5693,-2.5693,-2.5693,-2.5693,-2.5693,-2.5693,-2.5693,-2.5693,-2.5693,-2.5693,-2.5693,-2.5693,-2.5693,-2.5693,-2.5928,-2.6357,-2.6787,-2.6836,-2.6416,-2.6797,-2.7021,-2.7021,-2.7021,-2.7012,-2.7021,-2.7021,-2.7021,-2.7031,-2.7471,-2.7441,-2.0055,-1.9453,-1.9184,-1.8726,-1.9005,-1.9372,-1.9219,-1.9506,-1.9907,-2.0287,-2.0489,-2.0854,-2.1735,-2.0916,-2.0575,-2.1802,-2.0658,-2.0261,-2.1965,-2.3194,-2.439,-2.5621,-2.7034,-2.7734,-2.7422,-2.7275,-2.709,-2.6787,-2.665,-2.6387,-2.5908,-2.5937,-2.582,-2.5693,-2.5693,-2.5693,-2.5693,-2.5693,-2.5752,-2.5937,-2.5937,-2.6309,-2.7002,-2.6709,-2.6973,-2.7689,-2.7207,-2.7266,-2.766,-2.6875,-2.6318,-2.5869,-2.5742,-2.5693,-2.5693,-2.5693,-2.5693,-2.5693,-2.5693,-2.5693,-2.5693,-2.5693,-2.5693,-2.5693,-2.5693,-2.5693,-2.5693,-2.5693,-2.5693,-2.5693,-2.5693,-2.5693,-2.5693,-2.5693,-2.5693,-2.5693,-2.5693,-2.5693,-2.5693,-2.5693,-2.5693,-2.5693,-2.5693,-2.5693,-2.5693,-2.5693,-2.5693,-2.5693,-2.5693,-2.5693,-2.5693,-2.5693,-2.5693,-2.5693,-2.5693,-2.6016,-2.625,-2.6387,-2.707,-2.7422,-2.7346,-2.7412,-2.7617,-2.791,-2.7324,-2.7168,-2.7471,-2.7471,-2.7471,-2.748,-2.791,-2.8037,-1.9197,-1.8782,-1.872,-1.8306,-1.8931,-1.9566,-1.9325,-1.9546,-1.9853,-2.0027,-1.992,-2.0049,-2.0835,-2.0099,-1.9761,-2.0778,-2.0099,-1.972,-2.0615,-2.1907,-2.2916,-2.3473,-2.4854,-2.5897,-2.6182,-2.6053,-2.6075,-2.6356,-2.623,-2.6016,-2.5703,-2.5693,-2.5693,-2.5693,-2.5693,-2.5693,-2.5693,-2.5693,-2.5693,-2.5693,-2.5693,-2.5966,-2.6504,-2.625,-2.6504,-2.7158,-2.706,-2.7168,-2.7353,-2.667,-2.623,-2.5977,-2.5752,-2.5693,-2.5693,-2.5693,-2.5693,-2.5693,-2.5693,-2.5693,-2.5693,-2.5693,-2.5693,-2.5693,-2.5693,-2.5693,-2.5693,-2.5693,-2.5693,-2.5693,-2.5693,-2.5693,-2.5693,-2.5693,-2.5693,-2.5693,-2.5693,-2.5693,-2.5693,-2.5693,-2.5693,-2.5693,-2.5693,-2.5693,-2.5693,-2.5693,-2.5693,-2.5693,-2.5693,-2.5693,-2.5693,-2.5693,-2.5693,-2.5762,-2.5977,-2.6084,-2.6348,-2.6865,-2.7217,-2.7559,-2.79,-2.792,-2.8037,-2.8291,-2.7783,-2.7656,-2.792,-2.792,-2.792,-2.792,-2.8174,-2.8291,-1.911,-1.8387,-1.8035,-1.8444,-1.8951,-1.9446,-1.9733,-1.976,-1.9726,-1.976,-1.976,-1.9679,-1.9412,-1.9424,-1.9417,-1.939,-1.9325,-1.9225,-1.8925,-2.013,-2.0976,-2.0708,-2.1945,-2.3317,-2.46,-2.4431,-2.479,-2.606,-2.5859,-2.5693,-2.5693,-2.5693,-2.5693,-2.5693,-2.5693,-2.5693,-2.5693,-2.5693,-2.5693,-2.5693,-2.5693,-2.5693,-2.5693,-2.5693,-2.5977,-2.6406,-2.6797,-2.6963,-2.6924,-2.6504,-2.6328,-2.6289,-2.5889,-2.5693,-2.5693,-2.5693,-2.5693,-2.5693,-2.5693,-2.5693,-2.5693,-2.5693,-2.5693,-2.5693,-2.5693,-2.5693,-2.5693,-2.5693,-2.5693,-2.5693,-2.5693,-2.5693,-2.5693,-2.5693,-2.5693,-2.5693,-2.5693,-2.5693,-2.5693,-2.5693,-2.5693,-2.5693,-2.5693,-2.5693,-2.5693,-2.5693,-2.5693,-2.5693,-2.5693,-2.5693,-2.5693,-2.5693,-2.5693,-2.5849,-2.6299,-2.6006,-2.6318,-2.7581,-2.7275,-2.7441,-2.8262,-2.8291,-2.8291,-2.8291,-2.8291,-2.8291,-2.8291,-2.8291,-2.8291,-2.8291,-2.8291,-2.8291,-1.8116,-1.7617,-1.7869,-1.8637,-1.9105,-1.9446,-1.9733,-1.9439,-1.9178,-1.9412,-1.9459,-1.9446,-1.9437,-1.9424,-1.9292,-1.9058,-1.9018,-1.8918,-1.8624,-1.9864,-2.0646,-2.027,-2.1541,-2.242,-2.2418,-2.3243,-2.3967,-2.4275,-2.5175,-2.5693,-2.5693,-2.5693,-2.5693,-2.5693,-2.5693,-2.5693,-2.5693,-2.5693,-2.5693,-2.5693,-2.5693,-2.5693,-2.5693,-2.5693,-2.5977,-2.6396,-2.6484,-2.6523,-2.6484,-2.6055,-2.583,-2.582,-2.5723,-2.5693,-2.5693,-2.5693,-2.5693,-2.5693,-2.5693,-2.5693,-2.5693,-2.5693,-2.5693,-2.5693,-2.5693,-2.5693,-2.5693,-2.5693,-2.5693,-2.5693,-2.5693,-2.5693,-2.5693,-2.5693,-2.5693,-2.5693,-2.5693,-2.5693,-2.5693,-2.5693,-2.5693,-2.5693,-2.5693,-2.5693,-2.5693,-2.5693,-2.5693,-2.5693,-2.5693,-2.5693,-2.5693,-2.5693,-2.5693,-2.5723,-2.582,-2.6103,-2.6504,-2.7119,-2.7393,-2.7764,-2.8271,-2.8291,-2.8291,-2.8291,-2.8291,-2.8291,-2.8291,-2.8291,-2.8291,-2.8291,-2.8291,-2.8291,-1.847,-1.8035,-1.8196,-1.8951,-1.9252,-1.9372,-1.9379,-1.9145,-1.8925,-1.8945,-1.8945,-1.8945,-1.8945,-1.8945,-1.8898,-1.8738,-1.8718,-1.8611,-1.8317,-1.8905,-1.9259,-1.8939,-2.0143,-2.1198,-2.1667,-2.2918,-2.3949,-2.4609,-2.5333,-2.5693,-2.5693,-2.5693,-2.5693,-2.5693,-2.5693,-2.5693,-2.5693,-2.5693,-2.5693,-2.5693,-2.5693,-2.5693,-2.5693,-2.5693,-2.581,-2.6074,-2.6074,-2.6074,-2.6055,-2.5781,-2.5693,-2.5693,-2.5693,-2.5693,-2.5693,-2.5693,-2.5693,-2.5693,-2.5693,-2.5693,-2.5693,-2.5693,-2.5693,-2.5693,-2.5693,-2.5693,-2.5693,-2.5693,-2.5693,-2.5693,-2.5693,-2.5693,-2.5693,-2.5693,-2.5693,-2.5693,-2.5693,-2.5693,-2.5693,-2.5693,-2.5693,-2.5693,-2.5693,-2.5693,-2.5693,-2.5693,-2.5693,-2.5693,-2.5693,-2.5693,-2.5693,-2.5693,-2.5693,-2.5771,-2.6035,-2.626,-2.666,-2.7285,-2.7539,-2.7851,-2.8271,-2.8291,-2.8291,-2.8291,-2.8291,-2.8291,-2.8291,-2.8291,-2.8291,-2.8291,-2.8291,-2.8291,-1.8886,-1.8534,-1.8477,-1.9065,-1.9219,-1.9152,-1.8905,-1.8811,-1.8704,-1.8464,-1.8457,-1.849,-1.849,-1.849,-1.847,-1.8424,-1.841,-1.831,-1.7955,-1.7916,-1.7869,-1.7615,-1.8558,-1.9723,-2.0888,-2.2416,-2.3692,-2.4559,-2.5274,-2.5586,-2.5382,-2.5586,-2.5693,-2.5693,-2.5693,-2.5693,-2.5693,-2.5693,-2.5586,-2.5333,-2.5333,-2.5479,-2.5693,-2.5693,-2.5693,-2.5693,-2.5693,-2.5693,-2.5693,-2.5693,-2.5693,-2.5693,-2.5693,-2.5693,-2.5693,-2.5693,-2.5693,-2.5693,-2.5693,-2.5693,-2.5693,-2.5693,-2.5693,-2.5693,-2.5693,-2.5693,-2.5693,-2.5693,-2.5693,-2.5693,-2.5693,-2.5693,-2.5693,-2.5693,-2.5693,-2.5693,-2.5693,-2.5693,-2.5693,-2.5693,-2.5693,-2.5693,-2.5693,-2.5693,-2.5693,-2.5693,-2.5693,-2.5693,-2.5693,-2.5693,-2.5693,-2.5693,-2.5693,-2.584,-2.625,-2.6348,-2.6728,-2.7552,-2.7679,-2.7851,-2.8271,-2.8291,-2.8291,-2.8291,-2.8291,-2.8291,-2.8291,-2.8291,-2.8291,-2.8291,-2.8291,-2.8291,-1.8021,-1.7717,-1.7849,-1.8457,-1.8611,-1.8597,-1.8557,-1.835,-1.8095,-1.8055,-1.831,-1.849,-1.849,-1.849,-1.8404,-1.8089,-1.8049,-1.7942,-1.7689,-1.7642,-1.7629,-1.7589,-1.7733,-1.7937,-1.814,-2.0479,-2.155,-2.0495,-2.3701,-2.5177,-2.4048,-2.5069,-2.5693,-2.5693,-2.5693,-2.5693,-2.5693,-2.5693,-2.5118,-2.3949,-2.3949,-2.4559,-2.5693,-2.5693,-2.5693,-2.5693,-2.5693,-2.5693,-2.5693,-2.5693,-2.5693,-2.5693,-2.5693,-2.5693,-2.5693,-2.5693,-2.5693,-2.5693,-2.5693,-2.5693,-2.5693,-2.5693,-2.5693,-2.5693,-2.5693,-2.5693,-2.5693,-2.5693,-2.5693,-2.5693,-2.5693,-2.5693,-2.5693,-2.5693,-2.5693,-2.5693,-2.5693,-2.5693,-2.5693,-2.5693,-2.5693,-2.5693,-2.5693,-2.5693,-2.5693,-2.5693,-2.5693,-2.5693,-2.5693,-2.5693,-2.5693,-2.5693,-2.5693,-2.5713,-2.5771,-2.6172,-2.6592,-2.707,-2.7461,-2.7851,-2.8271,-2.8291,-2.8291,-2.8291,-2.8291,-2.8291,-2.8291,-2.8291,-2.8291,-2.8291,-2.8291,-2.8291,-1.7577,-1.7462,-1.7729,-1.8337,-1.849,-1.8444,-1.8277,-1.8089,-1.7942,-1.7822,-1.7889,-1.7983,-1.7983,-1.7983,-1.7936,-1.7809,-1.7789,-1.7736,-1.7602,-1.7582,-1.7582,-1.7582,-1.8244,-1.8708,-1.8708,-2.0538,-2.1752,-2.1912,-2.3543,-2.4658,-2.4815,-2.4658,-2.4913,-2.5684,-2.4971,-2.4922,-2.5684,-2.5693,-2.5382,-2.4815,-2.4048,-2.4402,-2.5693,-2.5693,-2.5693,-2.5693,-2.5693,-2.5693,-2.5693,-2.5693,-2.5693,-2.5693,-2.5693,-2.5693,-2.5693,-2.5693,-2.5693,-2.5693,-2.5693,-2.5693,-2.5693,-2.5693,-2.5693,-2.5693,-2.5693,-2.5693,-2.5693,-2.5693,-2.5693,-2.5693,-2.5693,-2.5693,-2.5693,-2.5693,-2.5693,-2.5693,-2.5693,-2.5693,-2.5693,-2.5693,-2.5693,-2.5693,-2.5693,-2.5693,-2.5693,-2.5693,-2.5693,-2.5693,-2.5693,-2.5693,-2.5693,-2.5693,-2.5693,-2.5791,-2.6084,-2.6494,-2.6924,-2.7353,-2.7783,-2.8096,-2.8281,-2.8291,-2.8291,-2.8291,-2.8291,-2.8291,-2.8291,-2.8291,-2.8291,-2.8291,-2.8291,-2.8291,-1.7393,-1.7221,-1.7301,-1.7976,-1.8203,-1.8203,-1.7983,-1.7876,-1.7862,-1.7629,-1.7582,-1.7582,-1.7582,-1.7582,-1.7582,-1.7582,-1.7582,-1.7582,-1.7582,-1.7582,-1.7582,-1.7582,-1.8506,-1.9065,-1.9065,-2.0333,-2.1448,-2.2114,-2.3126,-2.3998,-2.4658,-2.4402,-2.4667,-2.5684,-2.4716,-2.4716,-2.5684,-2.5382,-2.5382,-2.5684,-2.4353,-2.4196,-2.5226,-2.5538,-2.5528,-2.5226,-2.5538,-2.5693,-2.5693,-2.5693,-2.5693,-2.5693,-2.5693,-2.5693,-2.5693,-2.5693,-2.5693,-2.5693,-2.5693,-2.5693,-2.5693,-2.5693,-2.5693,-2.5693,-2.5693,-2.5693,-2.5693,-2.5693,-2.5693,-2.5693,-2.5693,-2.5693,-2.5693,-2.5693,-2.5693,-2.5693,-2.5693,-2.5693,-2.5693,-2.5693,-2.5693,-2.5693,-2.5693,-2.5693,-2.5693,-2.5693,-2.5693,-2.5693,-2.5693,-2.5693,-2.5693,-2.5693,-2.5791,-2.6035,-2.6357,-2.6875,-2.7314,-2.7699,-2.8057,-2.8291,-2.8291,-2.8291,-2.8291,-2.8291,-2.8291,-2.8291,-2.8291,-2.8291,-2.8291,-2.8291,-2.8291,-2.8291,-1.7446,-1.6706,-1.6126,-1.7052,-1.7481,-1.7622,-1.7609,-1.7609,-1.7602,-1.7589,-1.7582,-1.7582,-1.7582,-1.7582,-1.7582,-1.7582,-1.7582,-1.7582,-1.7582,-1.7582,-1.7582,-1.7582,-1.7687,-1.7681,-1.7681,-1.8909,-1.922,-1.7989,-2.1507,-2.3176,-2.1954,-2.4254,-2.5635,-2.5693,-2.5635,-2.5635,-2.5693,-2.4461,-2.4461,-2.5684,-2.4353,-2.3741,-2.384,-2.5118,-2.502,-2.389,-2.5177,-2.5693,-2.5693,-2.5693,-2.5693,-2.5693,-2.5693,-2.5693,-2.5693,-2.5693,-2.5693,-2.5693,-2.5693,-2.5693,-2.5693,-2.5693,-2.5693,-2.5693,-2.5693,-2.5693,-2.5693,-2.5693,-2.5693,-2.5693,-2.5693,-2.5693,-2.5693,-2.5693,-2.5693,-2.5693,-2.5693,-2.5693,-2.5693,-2.5693,-2.5693,-2.5693,-2.5693,-2.5693,-2.5693,-2.5693,-2.5693,-2.5693,-2.5693,-2.5693,-2.5693,-2.5693,-2.6113,-2.6367,-2.6387,-2.7158,-2.7689,-2.7718,-2.8057,-2.8291,-2.8291,-2.8291,-2.8291,-2.8291,-2.8291,-2.8291,-2.8291,-2.8291,-2.8291,-2.8291,-2.8291,-2.8291,-1.7032,-1.6352,-1.5952,-1.646,-1.6998,-1.7353,-1.7353,-1.7501,-1.7582,-1.7582,-1.7582,-1.7582,-1.7582,-1.7582,-1.7582,-1.7582,-1.7582,-1.7582,-1.7582,-1.7582,-1.7582,-1.7582,-1.7582,-1.7582,-1.7582,-1.8042,-1.8454,-1.8864,-2.0238,-2.1608,-2.2918,-2.3076,-2.3939,-2.5635,-2.4873,-2.4815,-2.5684,-2.4353,-2.3939,-2.4402,-2.3076,-2.2868,-2.3741,-2.4205,-2.4609,-2.502,-2.5479,-2.5693,-2.5693,-2.5693,-2.5693,-2.5693,-2.5693,-2.5693,-2.5693,-2.5693,-2.5693,-2.5693,-2.5693,-2.5693,-2.5693,-2.5693,-2.5693,-2.5693,-2.5693,-2.5693,-2.5693,-2.5693,-2.5693,-2.5693,-2.5693,-2.5693,-2.5693,-2.5693,-2.5693,-2.5693,-2.5693,-2.5693,-2.5693,-2.5693,-2.5693,-2.5693,-2.5693,-2.5693,-2.5693,-2.5693,-2.5693,-2.5693,-2.5693,-2.5693,-2.5801,-2.6133,-2.6299,-2.6611,-2.7209,-2.7542,-2.7836,-2.8057,-2.8203,-2.8291,-2.8291,-2.7384,-2.733,-2.8291,-2.7384,-2.733,-2.8291,-2.8291,-2.8291,-2.8291,-2.8291,-2.8291,-1.7196,-1.6565,-1.6106,-1.6242,-1.6616,-1.6985,-1.728,-1.742,-1.7514,-1.7562,-1.7582,-1.7582,-1.7582,-1.7582,-1.7582,-1.7582,-1.7582,-1.7582,-1.7582,-1.7582,-1.7582,-1.7582,-1.7582,-1.7582,-1.7582,-1.7582,-1.7989,-1.8864,-1.9775,-2.1092,-2.2926,-2.2617,-2.3176,-2.4971,-2.4609,-2.4815,-2.5684,-2.4815,-2.4353,-2.4353,-2.3484,-2.3276,-2.3741,-2.4146,-2.4609,-2.5069,-2.5479,-2.5693,-2.5693,-2.5693,-2.5693,-2.5693,-2.5693,-2.5693,-2.5693,-2.5693,-2.5693,-2.5693,-2.5693,-2.5693,-2.5693,-2.5693,-2.5693,-2.5693,-2.5693,-2.5693,-2.5693,-2.5693,-2.5693,-2.5693,-2.5693,-2.5693,-2.5693,-2.5693,-2.5693,-2.5693,-2.5693,-2.5693,-2.5586,-2.5118,-2.5382,-2.5586,-2.5128,-2.5382,-2.5693,-2.5693,-2.5693,-2.5538,-2.5079,-2.543,-2.5644,-2.5509,-2.6166,-2.6836,-2.7402,-2.7705,-2.7998,-2.8271,-2.7843,-2.7565,-2.7565,-2.61,-2.6045,-2.7501,-2.61,-2.6327,-2.8291,-2.8291,-2.8291,-2.8291,-2.8291,-2.8291,0.0,0.0,0.0,-1.6341,-1.6301,-1.6543,-1.7348,-1.7387,-1.7266,-1.7508,-1.7569,-1.7569,-1.7582,-1.7582,-1.7582,-1.7582,-1.7582,-1.7582,-1.7582,-1.7582,-1.7582,-1.7582,-1.7582,-1.7582,-1.7582,-1.7582,-1.7582,-1.7582,-2.0076,-2.16,-2.1651,-2.2976,-2.3741,-2.3741,-2.502,-2.5693,-2.5693,-2.5693,-2.5684,-2.5635,-2.5635,-2.4971,-2.3741,-2.5069,-2.4971,-2.384,-2.5118,-2.5693,-2.5693,-2.5693,-2.5693,-2.5693,-2.5693,-2.5693,-2.5693,-2.5693,-2.5693,-2.5693,-2.5693,-2.5693,-2.5693,-2.5693,-2.5693,-2.5693,-2.5693,-2.5693,-2.5684,-2.5635,-2.5635,-2.5635,-2.5635,-2.5635,-2.5635,-2.5635,-2.5586,-2.5586,-2.5635,-2.5635,-2.5274,-2.3949,-2.4766,-2.5226,-2.3939,-2.4766,-2.5586,-2.5693,-2.5693,-2.5177,-2.3939,-2.4913,-2.5226,-2.3908,-2.5702,-2.6951,-2.6929,-2.774,-2.8281,-2.8237,-2.6943,-2.6155,-2.61,-2.4599,-2.4488,-2.5991,-2.4544,-2.5215,-2.8184,-2.8184,-2.8184,-2.8237,-2.8237,-2.8237,-1.8722,0.0,0.0,0.0,0.0,0.0,-1.658,-1.6734,-1.6914,-1.7259,-1.732,-1.7387,-1.7542,-1.7582,-1.7582,-1.7582,-1.7582,-1.7582,-1.7582,-1.7582,-1.7582,-1.7582,-1.7582,-1.7582,-1.7582,-1.7582,-1.7582,0.0,-1.8297,-1.9161,-2.0135,-2.2416,-2.4146,-2.5118,-2.5489,-2.5693,-2.5693,-2.5693,-2.5226,-2.4254,-2.4254,-2.4048,-2.3683,-2.4097,-2.4559,-2.5177,-2.5538,-2.5693,-2.5693,-2.5693,-2.5693,-2.5693,-2.5693,-2.5693,-2.5693,-2.5693,-2.5693,-2.5693,-2.5693,-2.5693,-2.5693,-2.5693,-2.5693,-2.5693,-2.5693,-2.5693,-2.5479,-2.451,-2.4254,-2.4254,-2.4254,-2.4254,-2.4254,-2.4254,-2.3534,-2.3076,-2.4048,-2.4254,-2.4146,-2.3791,-2.3998,-2.4146,-2.3741,-2.3176,-2.3484,-2.543,-2.4864,-2.4452,-2.5069,-2.5479,-2.5703,-2.5657,-2.6206,-2.6381,-2.5894,-2.7089,-2.7526,-2.6752,-2.733,-2.7222,-2.6155,-2.4599,-2.3989,-2.4433,-2.2983,-2.3151,-2.5049,-2.5049,-2.5599,-2.6717,-2.6717,-2.7276,-1.937,-1.8569,-1.7854,-1.7828,0.0,0.0,-1.7197,-1.7107,-1.7029,-1.6975,-1.7112,-1.7253,-1.742,-1.7502,-1.7582,-1.7582,-1.7582,-1.7582,-1.7582,-1.7582,-1.7582,-1.7582,-1.7582,-1.7582,-1.7582,-1.7582,-1.7582,-1.7582,-1.8094,-1.9013,-2.0385,-2.3076,-2.4658,-2.4864,-2.543,-2.5693,-2.5693,-2.5693,-2.5333,-2.4501,-2.4501,-2.4501,-2.4501,-2.4501,-2.4971,-2.5693,-2.5693,-2.5693,-2.5693,-2.5693,-2.5693,-2.5693,-2.5693,-2.5693,-2.5693,-2.5693,-2.5693,-2.5693,-2.5693,-2.5693,-2.5693,-2.5693,-2.5693,-2.5586,-2.502,-2.4873,-2.4609,-2.3226,-2.2876,-2.2876,-2.2876,-2.2876,-2.2876,-2.2876,-2.2257,-2.1904,-2.2717,-2.2876,-2.2876,-2.2876,-2.3335,-2.3335,-2.2165,-2.1853,-2.2206,-2.3791,-2.3384,-2.3126,-2.3949,-2.4048,-2.4139,-2.4427,-2.4611,-2.46,-2.4297,-2.5263,-2.5971,-2.6091,-2.5717,-2.538,-2.5151,-2.3103,-2.2266,-2.287,-2.1422,-2.1095,-2.1991,-2.3215,-2.4599,-2.61,-2.61,-2.6888,-2.0125,-1.9834,-1.9757,-1.9647,-1.9132,0.0,-1.8533,-1.801,-1.7403,-1.684,-1.6867,-1.7025,-1.7092,-1.7313,-1.7448,-1.7482,-1.7515,-1.7549,-1.7582,-1.7582,-1.7582,-1.7582,-1.7582,-1.7582,-1.7582,-1.7582,-1.7582,-1.7582,-1.8708,-2.0084,-2.16,-2.3939,-2.4864,-2.3949,-2.5069,-2.5693,-2.5693,-2.5693,-2.5693,-2.5693,-2.5693,-2.5693,-2.5693,-2.5693,-2.5693,-2.5693,-2.5693,-2.5693,-2.5693,-2.5693,-2.5693,-2.5693,-2.5693,-2.5693,-2.5693,-2.5693,-2.5693,-2.5693,-2.5693,-2.5693,-2.5693,-2.5693,-2.5586,-2.5274,-2.4048,-2.3592,-2.3176,-2.1853,-2.1448,-2.1448,-2.1448,-2.1448,-2.1448,-2.1448,-2.1347,-2.1296,-2.1448,-2.1448,-2.1448,-2.1448,-2.2416,-2.2466,-2.0033,-2.0641,-2.155,-2.1904,-2.1803,-2.1752,-2.1904,-2.1803,-2.1702,-2.1702,-2.1999,-2.2347,-2.2605,-2.3075,-2.3993,-2.5655,-2.3303,-2.2371,-2.3487,-2.1045,-2.0206,-2.1309,-2.009,-1.9424,-1.9424,-2.2379,-2.4488,-2.5873,-2.6045,-2.6888,-2.1588,-2.1226,-2.0888,-2.0544,-2.038,0.0,-1.8988,-1.8256,-1.7632,-1.7074,-1.6334,-1.5885,-1.6409,-1.6543,-1.66,-1.684,-1.7074,-1.7367,-1.7549,-1.7582,-1.7582,-1.7582,-1.7582,-1.7582,-1.7582,-1.7582,-1.7582,-1.7582,-1.7838,-1.9065,-2.155,-2.2206,-2.3335,-2.5274,-2.5586,-2.5693,-2.5693,-2.5693,-2.5693,-2.5693,-2.5693,-2.5693,-2.5693,-2.5693,-2.5693,-2.5693,-2.5693,-2.5693,-2.5693,-2.5693,-2.5693,-2.5693,-2.5693,-2.5693,-2.5693,-2.5693,-2.5693,-2.5693,-2.5693,-2.5693,-2.5693,-2.5693,-2.4971,-2.4048,-2.3791,-2.2976,-2.1803,-2.0385,-2.0033,-2.0033,-2.0033,-2.0033,-2.0033,-2.0033,-1.9169,-1.8708,-1.9775,-2.0033,-2.0033,-2.0033,-2.0238,-2.0238,-1.9679,-1.9834,-2.0743,-2.2976,-2.2416,-2.2106,-2.3176,-2.2366,-2.1702,-2.1702,-2.1768,-2.1915,-2.2182,-2.2597,-2.312,-2.3712,-2.3499,-2.2983,-2.2089,-2.1479,-2.0759,-1.9873,-1.954,-1.9424,-1.9424,-2.2379,-2.3933,-2.4267,-2.5544,-2.6888,-2.2314,-2.2054,-2.1964,-2.2171,-2.1922,0.0,0.0,-1.9816,-1.9138,-1.867,-1.7896,-1.7479,-1.8018,-1.7553,-1.7183,-1.7435,-1.7353,-1.7253,-1.7393,-1.7548,-1.7582,-1.7582,-1.7582,-1.7582,-1.7582,-1.7582,-1.7582,-1.7582,-1.8199,-1.9524,-2.16,-2.2307,-2.3642,-2.5635,-2.5693,-2.5693,-2.5693,-2.5693,-2.5693,-2.5693,-2.5693,-2.5693,-2.5693,-2.5693,-2.5693,-2.5635,-2.4971,-2.5069,-2.5635,-2.4971,-2.5118,-2.5693,-2.5693,-2.5693,-2.5693,-2.5693,-2.5693,-2.5693,-2.5693,-2.5693,-2.5693,-2.5693,-2.5274,-2.4452,-2.3126,-2.1296,-1.9517,-1.8805,-1.861,-1.861,-1.861,-1.861,-1.861,-1.861,-1.8094,-1.7786,-1.8454,-1.861,-1.861,-1.861,-1.861,-1.861,-1.861,-1.861,-1.9065,-2.0436,-2.0076,-2.0128,-2.1456,-2.0487,-2.0179,-2.155,-2.0479,-2.0066,-2.1039,-2.0803,-2.1084,-2.212,-2.1808,-2.1593,-2.1586,-2.0866,-2.0148,-1.9424,-1.9424,-1.9424,-1.9424,-2.1593,-2.2702,-2.2702,-2.3479,-2.5041,-2.2754,-2.2754,-2.3008,-2.3535,-2.333,-2.2833,0.0,0.0,0.0,-2.0215,-1.9617,-1.9261,-1.966,-1.8855,-1.8135,-1.8181,-1.7718,-1.7279,-1.7082,-1.728,-1.7435,-1.7548,-1.7549,-1.7582,-1.7582,-1.7528,-1.7522,-1.7582,-1.8554,-1.9913,-2.1592,-2.2717,-2.4048,-2.5635,-2.5693,-2.5693,-2.5693,-2.5693,-2.5693,-2.5693,-2.5693,-2.5693,-2.5693,-2.5693,-2.5693,-2.5635,-2.4304,-2.4461,-2.5586,-2.4254,-2.4501,-2.5693,-2.5693,-2.5693,-2.5693,-2.5693,-2.5693,-2.5693,-2.5693,-2.5693,-2.5635,-2.5382,-2.4971,-2.4048,-2.1651,-1.9361,-1.7582,-1.7582,-1.7582,-1.7582,-1.7582,-1.7582,-1.7582,-1.7582,-1.7582,-1.7582,-1.7582,-1.7582,-1.7582,-1.7582,-1.7582,-1.7582,-1.7582,-1.7786,-1.7996,-1.7996,-1.7996,-1.8401,-1.9472,-1.8454,-1.8454,-2.0684,-1.8909,-1.825,-1.985,-1.9075,-1.9237,-2.0932,-2.0003,-1.9924,-2.1145,-2.0033,-1.9424,-1.9424,-1.9424,-1.9424,-1.9424,-2.0587,-2.1309,-2.1586,-2.1862,-2.3479,-2.314,-2.3578,-2.4043,-2.3335,-2.4004,-2.4404,-2.2795,0.0,-2.1174,-2.0359,0.0,-1.8777,-1.9151,0.0,0.0,-1.7884,-1.7882,-1.7613,-1.6569,-1.6627,-1.6901,-1.7219,-1.7481,-1.7582,-1.7582,-1.74,-1.7353,-1.7562,-1.7497,-1.8716,-2.1533,-2.1853,-2.3076,-2.5635,-2.5693,-2.5693,-2.5693,-2.5693,-2.5693,-2.5693,-2.5693,-2.5693,-2.5693,-2.5693,-2.5693,-2.5635,-2.4304,-2.4461,-2.5586,-2.4254,-2.4501,-2.5693,-2.5693,-2.5693,-2.5693,-2.5693,-2.5693,-2.5693,-2.5693,-2.5693,-2.5479,-2.4304,-2.2265,-2.0033,-1.8499,-1.7838,-1.7582,-1.7582,-1.7582,-1.7582,-1.7582,-1.7582,-1.7582,-1.7582,-1.7582,-1.7582,-1.7582,-1.7582,-1.7582,-1.7582,-1.7582,-1.7582,-1.7582,-1.861,-1.9369,-1.9369,-1.9369,-1.9428,-1.9576,-1.8454,-1.7733,-1.8042,-1.7786,-1.816,-1.9532,-1.8956,-1.9092,-2.0503,-1.9828,-1.9482,-1.9649,-1.9482,-1.9424,-1.9424,-1.9424,-1.9424,-1.9424,-1.9591,-2.0314,-2.1643,-2.2927,-2.4488,-2.3218,-2.3354,-2.3608,-2.3545,0.0,0.0,-2.3359,0.0,-2.2385,0.0,0.0,0.0,0.0,0.0,0.0,0.0,-1.8785,-1.817,-1.8339,-1.7429,-1.6754,-1.6874,-1.7199,-1.7454,-1.7562,-1.7373,-1.732,-1.7562,-1.7367,-1.8534,-2.1533,-2.1702,-2.2926,-2.5635,-2.5693,-2.5693,-2.5693,-2.5693,-2.5693,-2.5693,-2.5693,-2.5693,-2.5693,-2.5693,-2.5693,-2.5635,-2.4304,-2.4461,-2.5586,-2.4254,-2.4501,-2.5693,-2.5693,-2.5693,-2.5693,-2.5693,-2.5226,-2.4559,-2.4559,-2.4048,-2.3285,-2.2717,-2.1202,-1.9472,-1.8916,-1.8199,-1.7582,-1.7582,-1.7582,-1.7582,-1.7582,-1.7582,-1.7582,-1.7582,-1.7582,-1.7582,-1.7582,-1.7582,-1.7582,-1.7582,-1.7582,-1.7582,-1.7582,-1.8094,-1.8454,-1.8454,-1.8454,-1.8454,-1.8454,-1.7943,-1.7891,-1.8662,-1.8042,-1.8146,-1.9472,-1.8935,-1.876,-1.9284,-1.9367,-1.9424,-1.9424,-1.9424,-1.9424,-1.9424,-1.9424,-1.9424,-1.9424,-1.9424,-1.97,-2.0314,-2.0988,-2.204,-2.3179,0.0,0.0,0.0,0.0,0.0,0.0,0.0,0.0,0.0,0.0,0.0,0.0,0.0,-2.1328,-2.1159,0.0,-1.9192,-1.969,-1.8462,-1.7387,-1.7222,-1.7238,-1.7556,-1.8073,-1.7801,-1.7732,-1.8119,-1.7795,-1.8586,-2.1017,-2.1499,-2.2767,-2.5069,-2.5489,-2.5693,-2.5693,-2.5693,-2.5693,-2.5693,-2.5693,-2.5489,-2.5177,-2.5538,-2.5479,-2.5118,-2.4097,-2.4461,-2.5586,-2.4254,-2.4501,-2.5635,-2.5274,-2.5177,-2.5177,-2.5177,-2.4559,-2.3633,-2.3276,-2.2257,-2.1143,-2.1143,-2.0179,-1.9065,-1.9065,-1.8349,-1.7582,-1.7582,-1.7582,-1.7582,-1.7582,-1.7582,-1.7582,-1.7582,-1.7582,-1.7582,-1.7582,-1.7582,-1.7582,-1.7582,-1.7582,-1.7582,-1.7582,-1.7582,-1.7582,-1.7582,-1.7582,-1.7582,-1.7582,-1.7582,-1.7989,-1.8961,-1.8199,-1.7989,-1.8961,-1.8719,-1.8557,-1.8724,-1.9189,-1.9424,-1.9424,-1.9424,-1.9424,-1.9424,-1.9424,-1.9424,-1.9424,-1.9424,-1.9424,-1.9424,-1.9424,-2.0199,0.0,0.0,0.0,-2.3218,0.0,0.0,0.0,0.0,-2.3652,0.0,0.0,0.0,0.0,0.0,0.0,0.0,0.0,0.0,0.0,-1.943,-1.919,-1.8525,-1.7921,-1.808,-1.942,-1.8901,-1.874,-1.9479,-1.8886,-1.8797,-1.9642,-2.0939,-2.2307,-2.3741,-2.502,-2.5693,-2.5693,-2.5693,-2.5693,-2.5693,-2.5693,-2.502,-2.3791,-2.5128,-2.4971,-2.3741,-2.3741,-2.4461,-2.5586,-2.4254,-2.4501,-2.5586,-2.4254,-2.3741,-2.3741,-2.3741,-2.3741,-2.3534,-2.2206,-2.0837,-1.9679,-1.9679,-1.876,-1.7687,-1.7687,-1.7635,-1.7582,-1.7582,-1.7582,-1.7582,-1.7582,-1.7582,-1.7582,-1.7582,-1.7582,-1.7582,-1.7582,-1.7582,-1.7582,-1.7582,-1.7582,-1.7582,-1.7582,-1.7582,-1.7582,-1.7582,-1.7582,-1.7582,-1.7582,-1.7582,-1.7635,-1.7687,-1.7635,-1.7635,-1.7687,-1.8197,-1.8731,-1.9299,-1.9417,-1.9424,-1.9424,-1.9424,-1.9424,-1.9424,-1.9424,-1.9424,-1.9424,-1.9424,-1.9424,-1.9424,-1.9424,-2.0199,0.0,0.0,-2.3276,-2.313,0.0,0.0,0.0,0.0,0.0,0.0,0.0,0.0,0.0,0.0,0.0,0.0,0.0,0.0,0.0,-2.1373,-2.0648,-1.9574,-1.7981,-1.7198,-1.7648,-1.746,-1.7509,-1.797,-1.7571,0.0,-1.9546,-2.0033,-2.1347,-2.3633,-2.4146,-2.4353,-2.4353,-2.5274,-2.4815,-2.3076,-2.3949,-2.4146,-2.3741,-2.4146,-2.4609,-2.502,-2.502,-2.4766,-2.4353,-2.3899,-2.3434,-2.3026,-2.2567,-2.2366,-2.2366,-2.2366,-2.1811,-2.0794,-1.9472,-1.8655,-1.8304,-1.8304,-1.7989,-1.7582,-1.7582,-1.7582,-1.7582,-1.7582,-1.7582,-1.7582,-1.7582,-1.7582,-1.7582,-1.7582,-1.7582,-1.7582,-1.7582,-1.7582,-1.7582,-1.7582,-1.7582,-1.7582,-1.7582,-1.7582,-1.7582,-1.7582,-1.7582,-1.7582,-1.7582,-1.7582,-1.7582,-1.7582,-1.7582,-1.7582,-1.7582,-1.8143,-1.8657,-1.9052,-1.9259,-1.9424,-1.9424,-1.9424,-1.9424,-1.9424,-1.9424,-1.9424,-1.9424,-1.9424,-1.9424,-1.9424,-1.9424,-1.9649,-2.2838,-2.2877,0.0,-2.3052,-2.2896,0.0,-2.2691,0.0,-2.292,0.0,0.0,0.0,0.0,0.0,0.0,0.0,0.0,0.0,0.0,-2.2238,-2.1334,-2.0482,-1.8606,-1.7569,-1.8167,-1.7591,-1.7448,-1.8021,-1.7622,-1.7801,0.0,-1.9324,-2.0385,-2.2165,-2.2717,-2.3226,-2.3692,-2.4559,-2.4353,-2.3126,-2.3998,-2.4146,-2.3741,-2.4196,-2.4609,-2.4971,-2.4971,-2.451,-2.3642,-2.3176,-2.2466,-2.1643,-2.1143,-2.0939,-2.0939,-2.0939,-2.0076,-1.876,-1.7891,-1.7582,-1.7582,-1.7582,-1.7582,-1.7582,-1.7582,-1.7582,-1.7582,-1.7582,-1.7582,-1.7582,-1.7582,-1.7582,-1.7582,-1.7582,-1.7582,-1.7582,-1.7582,-1.7582,-1.7582,-1.7582,-1.7582,-1.7582,-1.7582,-1.7582,-1.7582,-1.7582,-1.7582,-1.7582,-1.7582,-1.7582,-1.7582,-1.7582,-1.7582,-1.7629,-1.7736,-1.8203,-1.8611,-1.8905,-1.9205,-1.9424,-1.9424,-1.9424,-1.9424,-1.9424,-1.9424,-1.9424,-1.9424,-1.9424,-1.9424,-1.9424,-1.9424,-1.9424]},{"header":{"parameterUnit":"m.s-1","parameterCategory":1,"la1":30.6,"la2":29.2853,"lo1":-89.7004,"lo2":-87.6739,"dy":0.0162,"dx":0.0183,"nx":112,"ny":82,"refTime":"2024-08-29T06:00:00:Z","depth":0,"parameterNumber":3,"parameterNumberName":"V-component_of_WINDS"},"data":[0.0,0.0,0.0,0.0,0.0,0.0,0.0,0.0,0.0,0.0,0.0,0.0,0.0,0.0,0.0,0.0,0.0,0.0,0.0,0.0,0.0,0.0,0.0,0.0,0.0,0.0,0.0,0.0,0.0,0.0,0.0,0.0,0.0,0.0,0.0,0.0,0.0,0.0,0.0,0.0,0.0,0.0,0.0,0.0,0.0,0.0,0.0,0.0,0.0,0.0,0.0,0.0,0.0,0.0,0.0,0.0,0.0,0.0,0.0,0.0,0.0,0.0,0.0,0.0,0.0,0.0,0.0,0.0,0.0,0.0,0.0,0.0,0.0,0.0,0.0,0.0,0.0,0.0,0.0,0.0,0.0,0.0,0.0,0.0,0.0,0.0,0.0,0.0,0.0,0.0,2.1958,2.3606,2.3732,2.3226,2.2106,2.1954,2.0685,1.7782,0.0,0.0,0.0,0.0,0.0,0.0,0.0,0.0,0.0,0.0,0.0,0.0,0.0,0.0,0.0,0.0,0.0,0.0,0.0,0.0,0.0,0.0,0.0,0.0,0.0,0.0,0.0,0.0,0.0,0.0,0.0,0.0,0.0,0.0,0.0,0.0,0.0,0.0,0.0,0.0,0.0,0.0,0.0,0.0,0.0,0.0,0.0,0.0,0.0,0.0,0.0,0.0,0.0,0.0,0.0,0.0,0.0,0.0,0.0,0.0,0.0,0.0,0.0,0.0,0.0,0.0,0.0,0.0,0.0,0.0,0.0,0.0,0.0,0.0,0.0,0.0,0.0,0.0,0.0,0.0,0.0,0.0,0.0,0.0,0.0,0.0,0.0,0.0,0.0,0.0,0.0,0.0,0.0,0.0,0.0,0.0,0.0,0.0,0.0,0.0,0.0,0.0,0.0,0.0,2.2275,2.3574,2.3732,2.3642,2.3434,2.3024,2.2108,2.042,0.0,0.0,0.0,0.0,0.0,0.0,0.0,0.0,0.0,0.0,0.0,0.0,0.0,0.0,0.0,0.0,0.0,0.0,0.0,0.0,0.0,0.0,0.0,0.0,0.0,0.0,0.0,0.0,0.0,0.0,0.0,0.0,0.0,0.0,0.0,0.0,0.0,0.0,0.0,0.0,0.0,0.0,0.0,0.0,0.0,0.0,0.0,0.0,0.0,0.0,0.0,0.0,0.0,0.0,0.0,0.0,0.0,0.0,0.0,0.0,0.0,0.0,0.0,0.0,0.0,0.0,0.0,0.0,0.0,0.0,0.0,0.0,0.0,0.0,0.0,0.0,0.0,0.0,0.0,0.0,0.0,0.0,0.0,0.0,0.0,0.0,0.0,0.0,0.0,0.0,0.0,0.0,0.0,0.0,0.0,0.0,0.0,0.0,0.0,0.0,0.0,0.0,0.0,2.1902,2.3104,2.4598,2.4598,2.4466,2.4466,2.4031,2.2749,2.0446,1.8667,0.0,0.0,0.0,0.0,0.0,0.0,0.0,0.0,0.0,0.0,0.0,0.0,0.0,0.0,0.0,0.0,0.0,0.0,0.0,0.0,0.0,0.0,0.0,0.0,0.0,0.0,0.0,0.0,0.0,0.0,0.0,0.0,0.0,0.0,0.0,0.0,0.0,0.0,0.0,0.0,0.0,0.0,0.0,0.0,0.0,0.0,0.0,0.0,0.0,0.0,0.0,0.0,0.0,0.0,0.0,0.0,0.0,0.0,0.0,0.0,0.0,0.0,0.0,0.0,0.0,0.0,0.0,0.0,0.0,0.0,0.0,0.0,0.0,0.0,0.0,0.0,0.0,0.0,0.0,0.0,0.0,0.0,0.0,0.0,0.0,0.0,0.0,0.0,0.0,0.0,0.0,0.0,0.0,0.0,0.0,0.0,0.0,0.0,0.0,0.0,0.0,0.0,2.3149,2.3949,2.5372,2.5273,2.5077,2.4922,2.4336,2.2857,2.0276,1.9132,0.0,0.0,0.0,0.0,0.0,0.0,0.0,0.0,0.0,0.0,0.0,0.0,0.0,0.0,0.0,0.0,0.0,0.0,0.0,0.0,0.0,0.0,0.0,0.0,0.0,0.0,0.0,0.0,0.0,0.0,0.0,0.0,0.0,0.0,0.0,0.0,0.0,0.0,0.0,0.0,0.0,0.0,0.0,0.0,0.0,0.0,0.0,0.0,0.0,0.0,0.0,0.0,0.0,0.0,0.0,0.0,0.0,0.0,0.0,0.0,0.0,0.0,0.0,0.0,0.0,0.0,0.0,0.0,0.0,0.0,0.0,0.0,0.0,0.0,0.0,0.0,0.0,0.0,0.0,0.0,0.0,0.0,0.0,0.0,0.0,0.0,0.0,0.0,0.0,0.0,0.0,0.0,0.0,0.0,0.0,0.0,0.0,0.0,0.0,0.0,0.0,0.0,2.335,2.4531,2.5059,2.5135,2.4902,2.4502,2.334,2.2204,2.1168,1.9178,0.0,0.0,0.0,0.0,0.0,0.0,0.0,0.0,0.0,0.0,0.0,0.0,0.0,0.0,0.0,0.0,0.0,0.0,0.0,0.0,0.0,0.0,0.0,0.0,0.0,0.0,0.0,0.0,0.0,0.0,0.0,0.0,0.0,0.0,0.0,0.0,0.0,0.0,0.0,0.0,0.0,0.0,0.0,0.0,0.0,0.0,0.0,0.0,0.0,0.0,0.0,0.0,0.0,0.0,0.0,0.0,0.0,0.0,0.0,0.0,0.0,0.0,0.0,0.0,0.0,0.0,0.0,0.0,0.0,0.0,0.0,0.0,0.0,0.0,0.0,0.0,0.0,0.0,0.0,0.0,0.0,0.0,0.0,0.0,0.0,0.0,0.0,0.0,0.0,0.0,0.0,0.0,0.0,0.0,0.0,0.0,0.0,0.0,0.0,0.0,0.0,0.0,2.251,2.3603,2.456,2.4424,2.4209,2.4043,2.3096,2.1914,2.0459,0.0,0.0,0.0,0.0,0.0,0.0,0.0,0.0,0.0,0.0,0.0,0.0,0.0,0.0,0.0,0.0,0.0,0.0,0.0,0.0,0.0,0.0,0.0,0.0,0.0,0.0,0.0,0.0,0.0,0.0,0.0,0.0,0.0,0.0,0.0,0.0,0.0,0.0,0.0,0.0,0.0,0.0,0.0,0.0,0.0,0.0,0.0,0.0,0.0,0.0,0.0,0.0,0.0,0.0,0.0,0.0,0.0,0.0,0.0,0.0,0.0,0.0,0.0,0.0,0.0,0.0,0.0,0.0,0.0,0.0,0.0,0.0,0.0,0.0,0.0,0.0,0.0,0.0,0.0,0.0,0.0,0.0,0.0,0.0,0.0,0.0,0.0,0.0,0.0,0.0,0.0,0.0,0.0,0.0,0.0,0.0,0.0,0.0,0.0,0.0,0.0,0.0,2.1105,2.25,2.3626,2.4167,2.3965,2.374,2.3594,2.2676,2.1475,2.001,0.0,0.0,0.0,0.0,0.0,0.0,0.0,0.0,0.0,0.0,0.0,0.0,0.0,0.0,0.0,0.0,0.0,0.0,0.0,0.0,0.0,0.0,0.0,0.0,0.0,0.0,0.0,0.0,0.0,0.0,0.0,0.0,0.0,0.0,0.0,0.0,0.0,0.0,0.0,0.0,0.0,0.0,0.0,0.0,0.0,0.0,0.0,0.0,0.0,0.0,0.0,0.0,0.0,0.0,0.0,0.0,0.0,0.0,0.0,0.0,0.0,0.0,0.0,0.0,0.0,0.0,0.0,0.0,0.0,0.0,0.0,0.0,0.0,0.0,0.0,0.0,0.0,0.0,0.0,0.0,0.0,0.0,0.0,0.0,0.0,0.0,0.0,0.0,0.0,0.0,0.0,0.0,0.0,0.0,0.0,0.0,0.0,0.0,0.0,0.0,0.0,0.0,2.1283,2.3654,2.4985,2.3914,2.3779,2.3603,2.313,2.1931,2.082,0.0,0.0,0.0,0.0,0.0,0.0,0.0,0.0,0.0,0.0,0.0,0.0,0.0,0.0,0.0,0.0,0.0,0.0,0.0,0.0,0.0,0.0,0.0,0.0,0.0,0.0,0.0,0.0,0.0,0.0,0.0,0.0,0.0,0.0,0.0,0.0,0.0,0.0,0.0,0.0,0.0,0.0,0.0,0.0,0.0,0.0,0.0,0.0,0.0,0.0,0.0,0.0,0.0,0.0,0.0,0.0,0.0,0.0,0.0,0.0,0.0,0.0,0.0,0.0,0.0,0.0,0.0,0.0,0.0,0.0,0.0,0.0,0.0,0.0,0.0,0.0,0.0,0.0,0.0,0.0,0.0,0.0,0.0,0.0,0.0,0.0,0.0,0.0,0.0,0.0,0.0,0.0,0.0,0.0,0.0,0.0,0.0,0.0,0.0,0.0,0.0,0.0,0.0,2.2287,2.3856,2.4879,2.4545,2.3793,2.3237,2.311,2.2256,2.1055,1.957,0.0,0.0,0.0,0.0,0.0,0.0,0.0,0.0,0.0,0.0,0.0,0.0,0.0,0.0,0.0,0.0,0.0,0.0,0.0,0.0,0.0,0.0,0.0,0.0,0.0,0.0,0.0,0.0,0.0,0.0,0.0,0.0,0.0,0.0,0.0,0.0,0.0,0.0,0.0,0.0,0.0,0.0,0.0,0.0,0.0,0.0,0.0,0.0,0.0,0.0,0.0,0.0,0.0,0.0,0.0,0.0,0.0,0.0,0.0,0.0,0.0,0.0,0.0,0.0,0.0,0.0,0.0,0.0,0.0,0.0,0.0,0.0,0.0,0.0,0.0,0.0,0.0,0.0,0.0,0.0,0.0,0.0,0.0,0.0,0.0,0.0,0.0,0.0,0.0,0.0,0.0,0.0,0.0,0.0,0.0,0.0,0.0,0.0,0.0,0.0,0.0,0.0,2.3095,2.4814,2.5953,2.5504,2.4893,2.4478,2.4478,2.365,2.2468,2.0845,0.0,0.0,0.0,0.0,0.0,0.0,0.0,0.0,0.0,0.0,0.0,0.0,0.0,0.0,0.0,0.0,0.0,0.0,0.0,0.0,0.0,0.0,0.0,0.0,0.0,0.0,0.0,0.0,0.0,0.0,0.0,0.0,0.0,0.0,0.0,0.0,0.0,0.0,0.0,0.0,0.0,0.0,0.0,0.0,0.0,0.0,0.0,0.0,0.0,0.0,0.0,0.0,0.0,0.0,0.0,0.0,0.0,0.0,0.0,0.0,0.0,0.0,0.0,0.0,0.0,0.0,0.0,0.0,0.0,0.0,0.0,0.0,0.0,0.0,0.0,0.0,0.0,0.0,0.0,0.0,0.0,0.0,0.0,0.0,0.0,0.0,0.0,0.0,0.0,0.0,0.0,0.0,0.0,0.0,0.0,0.0,0.0,0.0,0.0,0.0,0.0,0.0,2.3805,2.6255,2.7723,2.676,2.6565,2.6524,2.6524,2.5609,2.4482,2.3073,0.0,0.0,0.0,0.0,0.0,0.0,0.0,0.0,0.0,0.0,0.0,0.0,0.0,0.0,0.0,0.0,0.0,0.0,0.0,0.0,0.0,0.0,0.0,0.0,0.0,0.0,0.0,0.0,0.0,0.0,0.0,0.0,0.0,0.0,0.0,0.0,0.0,0.0,0.0,0.0,0.0,0.0,0.0,0.0,0.0,0.0,0.0,0.0,0.0,0.0,0.0,0.0,0.0,0.0,0.0,0.0,0.0,0.0,0.0,0.0,3.163,3.0434,0.0,0.0,0.0,0.0,0.0,0.0,0.0,0.0,0.0,0.0,0.0,0.0,0.0,0.0,0.0,0.0,0.0,0.0,0.0,0.0,0.0,0.0,0.0,0.0,0.0,0.0,0.0,0.0,0.0,0.0,0.0,0.0,0.0,0.0,0.0,0.0,0.0,0.0,0.0,0.0,2.5173,2.6888,2.8016,2.7763,2.7005,2.6524,2.6524,2.5963,2.5026,2.3616,2.2314,0.0,0.0,0.0,0.0,0.0,0.0,0.0,0.0,0.0,0.0,0.0,0.0,0.0,0.0,0.0,0.0,0.0,0.0,0.0,0.0,0.0,0.0,0.0,0.0,0.0,0.0,0.0,0.0,0.0,0.0,0.0,0.0,0.0,0.0,0.0,0.0,0.0,0.0,0.0,0.0,0.0,0.0,0.0,0.0,0.0,0.0,0.0,0.0,0.0,0.0,0.0,0.0,0.0,0.0,0.0,0.0,0.0,0.0,0.0,3.3829,3.311,0.0,0.0,0.0,0.0,0.0,0.0,0.0,0.0,0.0,0.0,0.0,0.0,0.0,0.0,0.0,0.0,0.0,0.0,0.0,0.0,0.0,0.0,0.0,0.0,0.0,0.0,0.0,0.0,0.0,0.0,0.0,0.0,0.0,0.0,0.0,0.0,0.0,0.0,0.0,0.0,2.5971,2.7459,2.8592,2.8873,2.841,2.8091,2.8091,2.7605,2.6871,2.5886,2.4237,0.0,0.0,0.0,0.0,0.0,0.0,0.0,0.0,0.0,0.0,0.0,0.0,0.0,0.0,0.0,0.0,0.0,0.0,0.0,0.0,0.0,0.0,0.0,0.0,0.0,0.0,0.0,0.0,0.0,0.0,0.0,0.0,0.0,0.0,0.0,0.0,0.0,0.0,0.0,0.0,0.0,0.0,0.0,0.0,0.0,0.0,0.0,0.0,0.0,0.0,0.0,0.0,0.0,3.6941,3.7,3.7,3.7,3.7,3.6926,3.5818,3.5774,3.6327,3.4233,0.0,0.0,0.0,0.0,0.0,0.0,0.0,0.0,0.0,0.0,0.0,0.0,0.0,0.0,0.0,0.0,0.0,0.0,0.0,0.0,0.0,0.0,0.0,0.0,3.5537,3.4481,3.2188,0.0,0.0,0.0,0.0,0.0,0.0,0.0,0.0,0.0,0.0,0.0,2.6524,2.7959,2.9076,2.9591,2.9553,2.9541,2.9641,2.9202,2.87,2.8285,2.6267,2.4903,0.0,0.0,0.0,0.0,0.0,0.0,0.0,0.0,0.0,0.0,0.0,0.0,0.0,0.0,0.0,0.0,0.0,0.0,0.0,0.0,0.0,0.0,0.0,0.0,0.0,0.0,0.0,0.0,0.0,0.0,0.0,0.0,3.2168,3.3006,0.0,0.0,0.0,0.0,0.0,0.0,0.0,0.0,0.0,0.0,0.0,0.0,0.0,3.706,3.7165,3.8317,3.8646,3.8153,3.8751,3.9035,3.9035,3.9035,3.9035,3.902,3.8841,0.0,3.6492,3.6686,0.0,0.0,0.0,0.0,0.0,0.0,0.0,0.0,0.0,0.0,0.0,0.0,0.0,0.0,0.0,0.0,0.0,0.0,0.0,0.0,0.0,0.0,3.7898,3.7988,3.7933,3.7774,0.0,3.3566,3.0121,2.9826,2.9303,0.0,0.0,0.0,0.0,0.0,0.0,0.0,2.719,2.8197,2.8913,2.9001,2.8612,2.8524,2.8963,2.8938,2.8863,2.8787,2.805,2.7376,2.6862,2.527,0.0,0.0,0.0,0.0,0.0,0.0,0.0,0.0,0.0,0.0,0.0,0.0,0.0,0.0,0.0,0.0,0.0,0.0,0.0,0.0,0.0,0.0,0.0,0.0,0.0,0.0,0.0,0.0,0.0,3.2003,3.3724,3.4039,3.4382,3.4472,0.0,0.0,0.0,0.0,0.0,0.0,0.0,0.0,0.0,3.8646,3.8945,3.9275,3.9634,3.9858,4.0052,4.0237,4.0161,4.0378,4.0876,4.0876,4.0876,4.0876,4.0876,4.0395,3.9506,3.8534,3.7909,3.7529,0.0,0.0,0.0,0.0,3.739,3.7472,3.9657,4.021,3.9817,3.9116,0.0,0.0,0.0,0.0,0.0,0.0,0.0,0.0,0.0,0.0,3.9097,3.9013,3.8975,3.8975,3.8975,3.6788,3.4375,0.0,3.2311,3.1194,2.8061,0.0,0.0,0.0,0.0,2.7756,2.8472,2.8475,2.8586,2.8863,2.8436,2.821,2.8448,2.8712,2.8888,2.8888,2.8411,2.8134,2.821,2.6628,2.5624,0.0,0.0,0.0,0.0,0.0,0.0,0.0,0.0,0.0,0.0,0.0,0.0,0.0,0.0,0.0,0.0,0.0,0.0,0.0,0.0,0.0,0.0,0.0,0.0,0.0,0.0,0.0,0.0,3.3739,3.5087,3.5237,3.5684,3.5729,0.0,0.0,0.0,0.0,0.0,0.0,3.8123,3.8332,3.911,4.0606,4.1061,4.142,4.1753,4.1474,4.1612,4.206,4.1341,4.1379,4.1997,4.1997,4.1997,4.1997,4.1997,4.2125,4.2172,4.0324,3.9819,4.0151,3.9167,3.8666,3.8615,3.9499,3.9833,4.0128,4.2183,4.2746,4.2446,4.1661,4.1028,4.0078,3.7404,0.0,0.0,0.0,0.0,3.9578,3.9803,3.9937,3.9936,3.9778,3.9439,3.9155,3.9155,3.8616,3.7516,0.0,3.4976,3.3743,2.9901,0.0,0.0,0.0,0.0,2.9005,2.9641,2.898,2.8527,2.8674,2.8097,2.7745,2.7883,2.8273,2.8561,2.8675,2.8335,2.8285,2.8662,2.7544,2.6851,2.6713,0.0,0.0,0.0,0.0,0.0,0.0,0.0,0.0,0.0,0.0,0.0,0.0,0.0,0.0,0.0,0.0,0.0,0.0,0.0,0.0,0.0,0.0,0.0,0.0,0.0,0.0,0.0,0.0,0.0,3.7195,3.7285,0.0,0.0,0.0,0.0,3.7225,3.8482,3.9529,4.0217,4.0846,4.1272,4.1324,4.2827,4.3355,4.2751,4.3532,4.3609,4.3005,4.2301,4.1965,4.1997,4.1997,4.1997,4.1997,4.1997,4.2458,4.3169,4.2204,4.1485,4.094,4.0876,4.0458,4.0079,4.157,4.2129,4.2377,4.3945,4.3973,4.3466,4.4153,4.297,4.1231,4.1026,3.9973,0.0,0.0,4.0978,4.1224,4.2675,4.1853,4.0644,4.0641,3.9523,3.8437,3.8437,3.7913,3.74,0.0,3.6768,3.567,3.3343,0.0,3.2444,3.1024,3.1239,3.1287,3.044,2.9808,2.909,2.8244,2.718,2.6788,2.7281,2.7344,2.7595,2.8109,2.8122,2.8122,2.8147,2.8059,2.777,2.7291,2.67,0.0,0.0,0.0,0.0,0.0,0.0,0.0,0.0,0.0,0.0,0.0,0.0,0.0,0.0,0.0,0.0,0.0,0.0,0.0,0.0,0.0,0.0,0.0,0.0,0.0,0.0,0.0,0.0,3.8885,3.9244,0.0,3.8427,3.8751,3.9095,3.932,4.0172,4.0965,4.1662,4.1916,4.2207,4.2626,4.3186,4.3364,4.3122,4.2631,4.2825,4.366,4.2541,4.2583,4.3663,4.3663,4.3663,4.3663,4.3663,4.3856,4.4093,4.3798,4.3514,4.3311,4.3311,4.3174,4.3032,4.359,4.3793,4.3855,4.4412,4.4401,4.4215,4.4513,4.3721,4.2651,4.2651,4.2284,4.1949,4.2484,4.2991,4.3319,4.33,4.2505,4.1514,4.0943,4.0036,3.9147,3.8619,3.8351,3.7895,3.6997,3.6641,3.5796,3.3587,3.3677,3.3668,3.2577,3.2549,3.2665,3.2702,3.1316,3.0201,2.9856,2.8812,2.8197,2.8378,2.8705,2.8979,2.9179,2.9192,2.9331,2.9704,2.8839,2.8516,2.8899,2.7839,2.644,0.0,0.0,0.0,0.0,0.0,0.0,0.0,0.0,0.0,0.0,0.0,0.0,0.0,0.0,0.0,0.0,0.0,0.0,0.0,0.0,0.0,0.0,0.0,0.0,0.0,3.9606,4.0401,4.0509,4.1102,4.1289,4.0731,4.1005,4.1419,4.1981,4.1843,4.2189,4.3167,4.2881,4.2895,4.329,4.363,4.395,4.4289,4.3503,4.375,4.4919,4.3792,4.3717,4.4615,4.4615,4.4615,4.4615,4.4615,4.4615,4.4615,4.4615,4.4615,4.4615,4.4615,4.4615,4.4615,4.4615,4.4615,4.4615,4.4615,4.4615,4.4615,4.4615,4.4231,4.3809,4.3809,4.3809,4.3809,4.3809,4.4181,4.4418,4.3556,4.2758,4.1989,4.113,4.0184,3.9322,3.8795,3.8276,3.7647,3.6719,3.6511,3.5952,3.427,3.4433,3.4641,3.4046,3.393,3.3943,3.4003,3.259,3.1473,3.1169,3.027,2.9592,2.9352,2.9373,2.9457,2.9545,2.9239,2.9383,3.0044,2.9053,2.8791,2.936,2.8499,2.7674,2.6908,0.0,0.0,0.0,0.0,0.0,0.0,0.0,0.0,0.0,0.0,0.0,0.0,0.0,0.0,0.0,0.0,0.0,0.0,0.0,0.0,0.0,0.0,0.0,4.0324,4.068,4.1371,4.2109,4.2767,4.3201,4.3297,4.3044,4.3545,4.5101,4.3547,4.3182,4.4706,4.3888,4.3329,4.3329,4.4297,4.5248,4.6173,4.6369,4.6539,4.6756,4.6012,4.5285,4.4615,4.4615,4.4615,4.4615,4.4615,4.4615,4.4615,4.4615,4.4615,4.4615,4.4615,4.4615,4.4615,4.4615,4.4615,4.4615,4.4615,4.4615,4.4615,4.4615,4.4615,4.4615,4.4615,4.4615,4.4615,4.4615,4.4615,4.4401,4.3623,4.2796,4.2017,4.1202,3.9888,3.883,3.88,3.7676,3.6661,3.663,3.6555,3.6286,3.5609,3.5504,3.5504,3.5504,3.5504,0.0,3.4177,3.358,3.2878,3.1971,3.1394,3.0829,3.0165,2.9334,2.8912,2.9103,2.8312,2.8214,2.9062,2.8784,2.8588,2.8601,2.8743,2.9348,3.0349,0.0,0.0,0.0,0.0,0.0,0.0,0.0,0.0,0.0,0.0,0.0,0.0,0.0,0.0,0.0,0.0,0.0,0.0,0.0,0.0,0.0,4.2354,4.2962,4.2523,4.3118,4.383,4.4423,4.4655,4.4935,4.5351,4.5311,4.5432,4.5869,4.5441,4.5044,4.4796,4.4548,4.4412,4.4412,4.4662,4.5248,4.6173,4.5761,4.5636,4.5761,4.5078,4.4708,4.4615,4.4615,4.4615,4.4615,4.4615,4.4615,4.4615,4.4615,4.4615,4.4615,4.4615,4.4615,4.4615,4.4615,4.4615,4.4615,4.4615,4.4615,4.4615,4.4615,4.4615,4.4615,4.4615,4.4615,4.4615,4.4615,4.4615,4.4401,4.3623,4.2833,4.2091,4.1325,4.0438,3.9578,3.8985,3.8556,3.8117,3.7557,3.6984,3.6347,3.5617,3.5504,3.5504,3.5504,3.5504,0.0,3.5133,3.454,3.4061,3.3774,3.3201,3.2746,3.2539,3.1868,3.1487,3.154,3.0876,3.0788,3.1511,3.0857,3.0697,3.1162,3.1306,3.1529,0.0,0.0,0.0,0.0,0.0,0.0,0.0,0.0,0.0,0.0,0.0,0.0,0.0,0.0,0.0,0.0,0.0,0.0,0.0,0.0,0.0,0.0,4.3673,4.4485,4.479,4.4688,4.4923,4.5874,4.5979,4.6341,4.7275,4.702,4.6952,4.734,4.6627,4.6154,4.5992,4.5613,4.5395,4.5395,4.5395,4.585,4.6781,4.6394,4.629,4.6429,4.5727,4.5295,4.5043,4.475,4.4615,4.4615,4.4615,4.4615,4.4615,4.4615,4.4615,0.0,0.0,0.0,0.0,0.0,4.4615,4.4615,4.4615,4.4615,4.4615,4.4615,4.4615,4.4615,4.4615,4.4615,4.4615,4.4615,4.435,4.391,4.3149,4.2388,4.1644,4.0899,4.0417,3.9978,3.9489,3.9139,3.8772,3.833,3.7645,0.0,3.6538,3.5941,3.5504,3.5504,3.5504,3.5504,3.5504,3.516,3.4906,3.4906,3.4562,3.4218,3.3933,3.322,0.0,0.0,0.0,3.1971,3.2354,3.2169,0.0,0.0,0.0,0.0,0.0,0.0,0.0,0.0,3.3367,3.2953,0.0,0.0,0.0,0.0,0.0,0.0,0.0,0.0,0.0,0.0,0.0,0.0,0.0,0.0,0.0,0.0,4.4942,4.6075,4.6819,4.5635,4.5275,4.6752,4.6836,4.7378,4.8866,4.8257,4.8112,4.894,4.744,4.685,4.7556,4.6815,0.0,0.0,0.0,4.6815,4.777,4.777,4.7794,4.7872,4.7141,4.6413,4.5669,4.4953,4.4615,4.4615,4.4615,4.4615,4.4615,4.4615,4.4615,4.4615,4.4615,4.4615,4.4615,4.4615,4.4615,4.4615,4.4615,0.0,0.0,4.4615,4.4615,4.4615,4.4615,4.4615,4.4615,4.4615,4.4079,4.3352,4.2506,4.1813,4.1119,4.0299,4.0096,4.0096,4.0096,3.9542,3.9032,3.9032,3.8414,3.7921,3.7921,3.6662,3.5619,3.5619,3.5554,3.5504,3.5504,3.5504,3.5504,3.5504,0.0,0.0,3.4668,3.3818,3.3428,3.3603,3.2891,3.2478,3.2564,3.3206,3.3877,3.4549,3.5218,3.6505,3.8392,3.8467,3.8826,3.9313,3.4934,3.3698,0.0,0.0,0.0,0.0,0.0,0.0,0.0,0.0,0.0,0.0,0.0,0.0,0.0,0.0,0.0,4.5821,4.638,4.6836,4.7597,4.643,4.6041,4.753,4.7158,4.7378,4.8866,4.8829,4.8798,4.9001,4.8656,4.8225,4.7622,4.7423,4.734,4.734,4.734,4.777,4.8719,4.8719,4.8459,4.7872,0.0,0.0,4.5669,4.4953,4.4615,4.4615,4.4615,4.4615,4.4615,4.4615,4.4615,4.4615,4.4615,4.4615,4.4615,4.4615,4.4615,4.4615,4.4615,4.4615,4.4615,4.4615,4.4615,4.4615,4.4615,4.4615,0.0,4.4615,4.4496,4.4056,4.2658,4.2185,4.1745,4.0417,4.0096,4.0096,4.0096,3.9978,3.9876,3.9876,3.9236,3.869,3.869,3.7424,3.6384,3.6384,3.5894,3.5504,3.5504,3.5504,3.5504,3.5504,3.5504,3.5444,3.5325,3.4658,3.4286,3.4292,3.4152,3.4295,3.4845,3.5499,3.6172,3.6762,3.7451,3.7983,3.8392,3.8945,3.9254,3.9373,3.8415,3.8168,0.0,0.0,0.0,0.0,0.0,0.0,0.0,0.0,0.0,0.0,0.0,4.2091,4.3234,0.0,4.5602,4.7107,4.7361,4.7614,4.8359,4.7513,4.709,4.7804,4.7259,4.7378,4.8866,4.9001,4.9001,4.9001,4.9001,4.8798,4.8338,4.8289,4.8289,4.8289,4.8289,4.8513,4.9001,4.9001,4.8832,4.8443,4.7327,4.6599,4.621,4.5094,4.4615,4.4615,4.4615,4.4615,4.4615,4.4615,4.4615,4.4615,4.4615,4.4615,4.4615,4.4615,4.4615,4.4615,4.4615,4.4615,4.4615,4.4615,4.4615,4.4615,4.4615,4.4615,4.4615,4.4615,4.4056,4.3278,4.2489,4.1745,4.1027,4.0282,4.0096,4.0096,4.0096,4.0096,4.0096,4.0096,3.9782,3.9489,3.9489,3.8536,3.7629,3.7263,3.6538,3.6054,3.6054,3.5733,3.5504,3.5504,3.5504,3.5504,3.5504,3.519,3.4996,3.4996,3.4996,3.5295,3.5968,3.6611,3.724,3.7883,3.8556,3.8901,3.8901,3.9245,3.9388,3.9388,3.9388,3.9388,0.0,0.0,0.0,0.0,0.0,0.0,0.0,4.1945,4.1732,4.198,4.2993,4.4096,4.4874,4.6109,4.7259,4.8003,4.8091,4.8342,4.8917,4.8376,4.7889,4.7889,4.7394,4.753,4.8866,4.9001,4.9001,4.9001,4.9001,4.9001,4.9001,4.9001,4.9001,4.9001,4.9001,4.9001,4.9001,4.9001,4.9001,4.8984,4.7648,4.6938,4.6735,4.5427,4.475,4.4615,4.4615,4.4615,4.4615,4.4615,4.4615,4.4615,4.4615,4.4615,4.4615,4.4615,4.4615,4.4615,4.4615,4.4615,4.4615,4.4615,4.4615,4.4615,4.4615,4.4615,4.4615,4.4615,4.3572,4.2472,4.2337,4.1314,4.0282,4.013,4.0096,4.0096,4.0096,4.0096,4.0096,4.0096,4.0096,4.0096,4.0096,3.9542,3.887,3.8121,3.7352,3.6813,3.6813,3.618,3.5701,3.5701,3.5587,3.5504,3.5504,3.5504,3.5504,3.5504,3.5624,3.5983,3.6641,3.727,3.7913,3.8571,3.9125,3.9388,3.9388,3.9388,3.9388,3.9388,3.9388,3.9388,4.376,4.3322,4.2693,4.3561,4.3363,4.3629,0.0,4.5317,4.422,4.4897,4.5234,4.5669,4.6413,4.7225,4.8007,4.8765,4.8883,4.8917,4.8984,4.8376,4.7889,4.7889,4.7821,4.8105,4.8934,4.9001,4.9001,4.9001,4.9001,4.9001,4.9001,4.9001,4.9001,4.9001,4.9001,4.9001,4.9001,4.9001,4.9001,4.8984,4.8189,4.7445,4.6752,4.5957,4.5213,4.4615,4.4615,4.4615,4.4615,4.4615,4.4615,4.4615,4.4615,4.4615,4.4615,4.4615,4.4615,4.4615,4.4615,4.4615,4.4615,4.4615,4.4615,4.4615,4.4615,4.4615,4.4615,4.4615,4.3961,4.3149,4.2472,4.1677,4.0916,4.0265,4.0096,4.0096,4.0096,4.0096,4.0096,4.0096,4.0096,4.0096,4.0096,4.002,3.9705,3.8897,3.8133,3.7661,3.7661,3.698,3.6477,3.6477,3.5894,3.5504,3.5504,3.5504,3.5504,3.5504,3.6058,3.6656,3.7285,3.7943,3.8601,3.929,3.9343,3.9388,3.9388,3.9388,3.9388,3.9388,3.9388,3.9388,4.5406,4.5333,4.4856,4.617,4.6306,4.6261,4.6722,4.6183,4.5456,4.5047,4.5711,4.643,4.6735,4.775,4.8781,4.9509,4.9272,4.9154,4.9576,4.8646,4.7889,4.7889,4.7889,4.8007,4.8342,4.8748,4.9001,4.9001,4.9001,4.9001,4.9001,4.9001,4.9001,4.9001,4.9001,4.9001,4.9001,4.9001,4.9001,4.9001,4.8257,4.772,4.7411,4.6244,4.5297,4.4615,4.4615,4.4615,4.4615,4.4615,4.4615,4.4615,4.4615,4.4615,4.4615,4.4615,4.4615,4.4615,4.4615,4.4615,4.4615,4.4615,4.4615,4.4615,4.4615,4.4615,4.4615,4.4615,4.4012,4.3325,4.3031,4.2083,4.1119,4.0798,4.0417,4.0096,4.0096,4.0096,4.0096,4.0096,4.0096,4.0096,4.0096,4.0096,3.9995,3.9636,3.8924,3.8442,3.8442,3.7761,3.713,3.663,3.5943,3.5504,3.5504,3.5504,3.5504,3.5504,3.6118,3.6761,3.7389,3.8033,3.8721,3.9373,3.9388,3.9388,3.9388,3.9388,3.9388,3.9388,3.9388,3.9388,4.592,4.6324,4.6507,4.7682,4.8141,4.7997,4.6914,4.6524,4.6094,4.5062,4.5727,4.6549,4.6752,4.7834,4.9001,4.9949,4.9644,4.9492,5.0016,4.9018,4.8139,4.7906,4.7889,4.7889,4.7889,4.8578,4.9001,4.9001,4.9187,4.9306,4.9306,4.9306,4.9306,4.9306,4.912,4.9001,4.9001,4.9001,4.9001,4.9001,4.8477,4.8091,4.7838,4.638,4.5399,4.4874,4.4699,4.4615,4.4615,4.4615,4.4615,4.4615,4.4615,4.4615,4.4615,4.4615,4.4615,4.4615,4.4615,4.4615,4.4615,4.4615,4.4615,4.4615,4.4615,4.4615,4.4615,4.4615,4.4012,4.3392,4.3392,4.2472,4.1508,4.1508,4.1085,4.0654,4.0468,4.0417,4.035,4.0146,4.0096,4.0096,4.0096,4.0096,4.0096,4.0096,3.9778,3.9468,3.9252,3.8569,3.779,3.7024,3.6446,3.6148,3.6148,3.6093,3.6086,3.6086,3.667,3.721,3.7659,3.8317,3.8901,3.9373,3.9388,3.9388,3.9388,3.9388,3.9388,3.9388,3.9388,3.9388,4.5168,4.5883,4.7076,4.7113,4.7718,4.8152,4.7509,4.6864,4.6216,4.5597,4.5614,4.5957,4.6667,4.7428,4.8426,4.9847,5.0067,5.0067,5.0084,4.9441,4.8714,4.7973,4.7889,4.7889,4.7889,4.8578,4.9001,4.9001,4.9661,5.005,5.005,5.005,5.005,5.005,4.9373,4.9001,4.9001,4.9001,4.9001,4.9001,4.8984,4.8595,4.7838,4.638,4.5703,4.5635,4.4891,4.4615,4.4615,4.4615,4.4615,4.4615,4.4615,4.4615,4.4615,4.4615,4.4615,4.4615,4.4615,4.4615,4.4615,4.4615,4.4615,4.4615,4.4615,4.4615,4.4615,4.4615,4.4012,4.3392,4.3392,4.2844,4.2252,4.2252,4.2236,4.2033,4.1322,4.117,4.095,4.0248,4.0096,4.0096,4.0096,4.0096,4.0096,4.0096,4.0696,4.0874,4.0172,3.9342,3.858,3.7835,3.7719,3.7735,3.7735,3.7621,3.7544,3.7544,3.8046,3.8347,3.8362,3.902,3.9394,3.9388,3.9388,3.9388,3.9388,3.9388,3.9388,3.9388,3.9388,3.9388,4.614,4.6691,4.7223,4.7755,4.8104,4.8152,4.7551,4.6887,4.624,4.5622,4.5597,4.5788,4.6024,4.7073,4.8392,4.9847,5.0084,5.0422,5.142,5.049,4.9458,4.8731,4.9069,4.8984,4.7973,4.8578,4.9204,4.9678,4.9949,5.0304,5.0811,5.0371,5.0084,5.0084,4.9373,4.9001,4.9001,4.9001,4.9001,4.9001,4.9001,4.8612,4.7872,4.7382,4.665,4.5703,4.5432,4.5043,4.4615,4.4615,4.4615,4.4615,4.4615,4.4615,4.4615,4.4615,4.4615,4.4615,4.4615,4.4615,4.4615,4.4615,4.4615,4.4615,4.4615,4.4615,4.4615,4.4615,4.4429,4.4198,4.4198,4.3623,4.3031,4.3031,4.2658,4.2219,4.1982,4.1931,4.1847,4.1619,4.1153,4.0984,4.1474,4.1136,4.1001,4.15,4.0942,4.0713,4.1484,3.9994,3.9205,3.9964,3.9134,3.8745,3.9223,3.9223,3.9198,3.9198,3.9787,3.9866,3.9281,3.9906,3.999,3.9409,3.9388,3.9388,3.9388,3.9388,3.9388,3.9388,3.9388,3.9388,4.6746,4.7094,4.7278,4.8104,4.8306,4.8152,4.7551,4.7084,4.6571,4.594,4.5717,4.5708,4.5981,4.6622,4.7784,4.9763,5.0084,5.0608,5.2097,5.1251,5.0321,4.9847,4.9965,4.983,4.9171,4.9526,4.9881,5.0067,5.0574,5.1099,5.1589,5.115,5.076,5.049,4.9779,4.9272,4.9001,4.9001,4.9001,4.9001,4.9001,4.8748,4.8291,4.7767,4.6989,4.6058,4.5534,4.5026,4.4615,4.4615,4.4615,4.4615,4.4615,4.4615,4.4615,4.4615,4.4615,4.4615,4.4615,4.4615,4.4615,4.4615,4.4615,4.4615,4.4615,4.4615,4.4615,4.4615,4.4615,4.4615,4.4615,4.4215,4.3826,4.3826,4.347,4.3031,4.276,4.2692,4.2625,4.2337,4.1914,4.1745,4.2219,4.1914,4.1847,4.2591,4.1644,4.1247,4.2168,4.1037,4.049,4.1499,4.0715,4.0316,4.0787,4.0801,4.0799,4.0799,4.1143,4.1103,4.0554,4.0945,4.0894,4.0359,4.0025,3.9864,3.9864,3.9538,3.9388,3.9388,3.9388,3.9388,4.6892,4.7131,4.7333,4.8122,4.8306,4.8152,4.7572,4.7428,4.7216,4.6571,4.594,4.5719,4.6403,4.6127,4.6701,4.9576,5.0101,5.0659,5.2147,5.1775,5.1286,5.1268,5.0676,5.0524,5.115,5.1252,5.1014,5.0253,5.1505,5.2317,5.2367,5.2317,5.1961,5.1202,5.0473,4.9746,4.9018,4.9001,4.9001,4.9001,4.9001,4.9001,4.8951,4.7547,4.6853,4.6718,4.5326,4.4682,4.4615,4.4615,4.4615,4.4615,4.4615,4.4615,4.4615,4.4615,4.4615,4.4615,4.4615,4.4615,4.4615,4.4615,4.4615,4.4615,4.4615,4.4615,4.4615,4.4615,4.4615,4.4615,4.4615,4.4615,4.4615,4.4615,4.4615,4.4384,4.3639,4.3443,4.3267,4.254,4.2405,4.2388,4.2354,4.2388,4.2658,4.3369,4.2861,4.2405,4.2405,4.2337,4.232,4.2405,4.2371,4.2354,4.2405,4.2377,4.2327,4.2327,4.2194,4.2125,4.2062,4.2062,4.2062,4.1997,4.118,4.0758,4.0743,3.9935,3.9553,3.9553,3.9553,3.9553,4.7039,4.7535,4.8049,4.8251,4.8306,4.8267,4.8113,4.7736,4.7363,4.7172,4.6257,4.5563,4.5754,4.6195,4.7124,4.8984,5.0202,5.1454,5.2993,5.3044,5.2706,5.2097,5.2384,5.2266,5.1269,5.2249,5.2587,5.1792,5.208,5.2553,5.3162,5.2638,5.1961,5.1202,5.0473,4.9746,4.9018,4.9001,4.9001,4.9001,4.9001,4.9001,4.8984,4.8612,4.7834,4.6769,4.6397,4.563,4.4615,4.4615,4.4615,4.4615,4.4615,4.4615,4.4615,4.4615,4.4615,4.4615,4.4615,4.4615,4.4615,4.4615,4.4615,4.4615,4.4615,4.4615,4.4615,4.4615,4.4615,4.4615,4.4615,4.4615,4.4615,4.4615,4.4615,4.4547,4.4333,4.4282,4.4231,4.4056,4.4022,4.3809,4.3234,4.3606,4.409,4.4265,4.4113,4.4022,4.4022,4.3024,4.2726,4.3904,4.347,4.3369,4.3972,4.3979,4.3984,4.3984,4.3963,4.3651,4.3017,4.2986,4.2645,4.2029,4.1772,4.1674,4.1674,4.1445,4.1346,4.1346,4.1346,4.1346,4.7516,4.7957,4.8306,4.8306,4.8306,4.8214,4.7846,4.7505,4.7159,4.6795,4.6007,4.5254,4.4963,4.5684,4.6802,4.8291,4.9763,5.1488,5.367,5.3704,5.345,5.3315,5.3416,5.3162,5.23,5.2993,5.3315,5.2858,5.2841,5.3027,5.3484,5.3078,5.2334,5.1219,5.0811,5.0067,4.9018,4.9001,4.9001,4.9001,4.9001,4.9001,4.8984,4.8663,4.7902,4.6769,0.0,4.5652,4.4615,4.4615,4.4615,4.4615,4.4615,4.4615,4.4615,4.4615,4.4615,4.4615,4.4615,4.4615,4.4615,4.4615,4.4615,4.4615,4.4615,4.4615,4.4615,4.4615,4.4615,4.4615,4.4615,4.4615,4.4615,4.4615,4.4615,4.4615,4.4615,4.4615,4.4615,4.4615,4.4615,4.4479,4.3995,4.4282,4.4615,4.4615,4.4615,4.4615,4.4615,4.3853,4.365,4.4513,4.4198,4.4096,4.4564,4.4615,4.4615,4.4615,4.4615,4.4384,4.3873,4.3873,4.3651,4.3152,4.2785,4.2583,4.2583,4.2189,4.1997,4.1997,4.1997,4.1997,4.8122,4.8306,4.8306,4.8306,4.8306,4.8104,4.7278,4.7094,4.6874,4.6103,4.5543,4.4998,4.4382,4.5061,4.621,4.777,4.9204,5.1133,5.416,5.4042,5.3873,5.4515,5.4042,5.3619,5.3518,5.3501,5.3501,5.3501,5.3501,5.3501,5.3501,5.3501,5.2807,5.1236,5.0999,5.0304,4.9018,4.9001,4.9001,4.9001,4.9001,4.9001,4.8984,4.8359,4.7648,4.6904,4.6278,4.5517,4.475,4.475,4.4699,4.4615,4.4615,4.4615,4.4615,4.4615,4.4615,4.4615,4.4615,4.4615,4.4615,4.4615,4.4615,4.4615,4.4615,4.4615,4.4615,4.4615,4.4615,4.4615,4.4615,4.4615,4.4615,4.4615,4.4615,4.4615,4.4615,4.4615,4.4615,4.4615,4.4615,4.4615,4.4615,4.4615,4.4615,4.4615,4.4615,4.4615,4.4615,4.4615,4.4615,4.4615,4.4615,4.4615,4.4615,4.4615,4.4615,4.4615,4.4615,4.4615,4.4615,4.4615,4.4615,4.4615,4.3844,4.3472,4.3472,4.2707,4.2347,4.2347,4.2347,4.2347,4.8269,4.8306,4.8306,4.8306,4.8306,4.8104,4.7278,4.7094,4.6926,4.6293,4.564,4.5194,4.5244,4.5497,4.638,4.8477,4.9543,5.1133,5.416,5.4482,5.4448,5.4566,5.4482,5.416,5.3568,5.3501,5.3501,5.3501,5.3501,5.3501,5.3501,5.3501,5.2807,5.1236,5.0033,4.9272,4.9001,4.9001,4.9001,4.9001,4.9001,4.9001,4.9001,4.8883,4.8426,4.7716,4.7551,0.0,4.5517,4.5517,4.5145,4.4615,4.4615,4.4615,4.4615,4.4615,4.4615,4.4615,4.4615,4.4615,4.4615,4.4615,4.4615,4.4615,4.4615,4.4615,4.4615,4.4615,4.4615,4.4615,4.4615,4.4615,4.4615,4.4615,4.4615,4.4615,4.4615,4.4615,4.4615,4.4615,4.4615,4.4615,4.4615,4.4615,4.4615,4.4615,4.4615,4.4615,4.4615,4.4615,4.4615,4.4615,4.4615,4.4615,4.4615,4.4615,4.4615,4.4615,4.4615,4.4615,4.4615,4.4615,4.4615,4.4615,4.4457,4.4384,4.4384,4.4224,4.415,4.415,4.415,4.415,4.8196,4.8306,4.8306,4.8306,4.8306,4.7994,4.6764,4.6801,4.6686,4.5247,4.5071,4.5012,4.4416,4.5073,4.6058,4.7107,4.8223,5.0152,5.3551,5.367,5.3991,5.5564,5.5057,5.4448,5.411,5.3737,5.3501,5.3501,5.3501,5.3501,5.3501,5.2756,5.1792,5.0659,4.9576,4.9001,4.9001,4.9001,4.9001,4.9001,4.9001,4.9001,4.9001,4.9001,4.8612,4.7889,4.7889,4.7043,4.5703,4.5703,4.5263,4.4615,4.4615,4.4615,4.4615,4.4615,4.4615,4.4615,4.4615,4.4615,4.4615,4.4615,4.4615,4.4615,4.4615,4.4615,4.4615,4.4615,4.4615,4.4615,4.4615,4.4615,4.4615,4.4615,4.4615,4.4615,4.4615,4.4615,4.4615,4.4615,4.4615,4.4615,4.4615,4.4615,4.4615,4.4615,4.4615,4.4615,4.4615,4.4615,4.4615,4.4615,4.4615,4.4615,4.4615,4.4615,4.4615,4.4615,4.4615,4.4615,4.4615,4.4615,4.4615,4.4615,4.4615,4.4615,4.4615,4.4615,4.4615,4.4615,4.4615,4.4615,4.7865,4.8177,4.8306,4.8306,4.8306,4.7884,4.6269,4.6414,4.6331,4.4268,4.4463,4.4692,4.3688,4.4572,4.5568,4.5889,4.7056,4.9171,5.2739,5.2976,5.3737,5.6275,5.5547,5.4769,5.4617,5.3923,5.3501,5.3501,5.3501,5.3501,5.3501,5.2046,5.0947,5.0338,4.9475,4.9001,4.9001,4.9001,4.9001,4.9001,4.9001,4.9001,4.9001,4.9001,4.8697,4.8125,4.8125,4.7394,4.6177,4.6007,4.55,4.4835,4.4666,4.4615,4.4615,4.4615,4.4615,4.4615,4.4615,4.4615,4.4615,4.4615,4.4615,4.4615,4.4615,4.4615,4.4615,4.4615,4.4615,4.4615,4.4615,4.4615,4.4615,4.4615,4.4615,4.4615,4.4615,4.4615,4.4615,4.4615,4.4615,4.4615,4.4615,4.4615,4.4615,4.4615,4.4615,4.4615,4.4615,4.4615,4.4615,4.4615,4.4615,4.4615,4.4615,4.4615,4.4615,4.4615,4.4615,4.4615,4.4615,4.4615,4.4615,4.4615,4.4615,4.4615,4.4615,4.4615,4.4615,4.4615,4.4615,4.4615,4.7186,4.7736,4.8306,4.8306,4.8306,4.7884,4.6269,4.6091,4.5855,4.4294,4.42,4.4389,4.4453,4.4592,4.5156,4.6481,4.7378,4.8968,5.1978,5.3551,5.4735,5.57,5.57,5.5344,5.4651,5.3923,5.3501,5.3501,5.3501,5.3501,5.3501,5.2046,5.1183,5.1083,4.9746,4.9001,4.9001,4.9001,4.9001,4.9001,4.9001,4.9001,4.9001,4.9001,4.8968,4.89,4.89,4.8443,0.0,4.6972,4.6261,4.5534,4.484,4.4615,4.4615,4.4615,4.4615,4.4615,4.4615,4.4615,4.4615,4.4615,4.4615,4.4615,4.4615,4.4615,4.4615,4.4615,4.4615,4.4615,4.4615,4.4615,4.4615,4.4615,4.4615,4.4615,4.4615,4.4615,4.4615,4.4615,4.4615,4.4615,4.4615,4.4615,4.4615,4.4615,4.4615,4.4615,4.4615,4.4615,4.4615,4.4615,4.4615,4.4615,4.4615,4.4615,4.4615,4.4615,4.4615,4.4615,4.4615,4.4615,4.4615,4.4615,4.4615,4.4615,4.4615,4.4615,4.4615,4.4615,4.4615,4.4615,4.6966,4.7681,4.8306,4.8306,4.8306,4.7898,4.6417,4.652,4.6402,4.4552,4.4624,4.4949,4.4642,4.4615,4.4801,4.5393,4.5703,4.6786,4.9306,5.0557,5.2181,5.4735,5.4651,5.4617,5.5209,5.4194,5.3501,5.3501,5.3501,5.3298,5.2807,5.1775,5.0811,4.9915,4.9323,4.9001,4.9001,4.9001,4.9001,4.9001,4.9001,4.9001,4.9001,4.9001,4.9001,4.9001,4.9001,4.8325,0.0,4.6921,4.6092,4.4993,4.4716,4.4615,4.4615,4.4615,4.4615,4.4615,4.4615,4.4615,4.4615,4.4615,4.4615,4.4615,4.4615,4.4615,4.4615,4.4615,4.4615,4.4615,4.4615,4.4615,4.4615,4.4615,4.4615,4.4615,4.4615,4.4615,4.4615,4.4615,4.4615,4.4615,4.4615,4.4615,4.4615,4.4615,4.4615,4.4615,4.4615,4.4615,4.4615,4.4615,4.4615,4.4615,4.4615,4.4615,4.4615,4.4615,4.4615,4.4615,4.4615,4.4615,4.4615,4.4615,4.4615,4.4615,4.4615,4.4615,4.4615,4.4615,4.4615,4.4615,4.6581,4.7517,4.8306,4.8306,4.8172,4.7716,4.6473,4.6528,4.6353,4.4667,4.4803,4.5115,4.4682,4.4615,4.4615,4.4615,4.4801,4.5618,4.7601,4.8917,5.0811,5.3907,5.3822,5.3991,5.526,5.4245,5.3501,5.3501,5.3281,5.2807,5.2029,5.1285,5.0405,4.9357,4.912,4.9001,4.9001,4.9001,4.9001,4.9001,4.9001,4.9001,4.9001,4.9001,4.9001,4.8984,4.8781,4.8088,0.0,4.665,4.5855,4.4919,4.4699,4.4615,4.4615,4.4615,4.4615,4.4615,4.4615,4.4615,4.4615,4.4615,4.4615,4.4615,4.4615,4.4615,4.4615,4.4615,4.4615,4.4615,4.4615,4.4615,4.4615,4.4615,4.4615,4.4615,4.4615,4.4615,4.4615,4.4615,4.4615,4.4615,4.4615,4.4615,4.4615,4.4615,4.4615,4.4615,4.4615,4.4615,4.4615,4.4615,4.4615,4.4615,4.4615,4.4615,4.4615,4.4615,4.4615,4.4615,4.4615,4.4615,4.4615,4.4615,4.4615,4.4615,4.4615,4.4615,4.4615,4.4615,4.4615,4.4615,4.5902,4.7076,4.8306,4.8306,4.7856,4.7208,4.6371,4.5853,4.5303,4.4482,4.4458,4.4598,4.4615,4.4615,4.4615,4.4615,4.5213,4.621,4.7686,4.9782,5.1775,5.3331,5.3501,5.3788,5.4532,5.394,5.3501,5.3501,5.2756,5.1995,5.1236,5.0507,5.0084,5.0084,4.9373,4.9001,4.9001,4.9001,4.9001,4.9001,4.9001,4.9001,4.9001,4.9001,4.9001,4.8968,4.824,4.7889,0.0,4.6312,4.5703,4.5618,4.4902,4.4615,4.4615,4.4615,4.4615,4.4615,4.4615,4.4615,4.4615,4.4615,4.4615,4.4615,4.4615,4.4615,4.4615,4.4615,4.4615,4.4615,4.4615,4.4615,4.4615,4.4615,4.4615,4.4615,4.4615,4.4615,4.4615,4.4615,4.4615,4.4615,4.4615,4.4615,4.4615,4.4615,4.4615,4.4615,4.4615,4.4615,4.4615,4.4615,4.4615,4.4615,4.4615,4.4615,4.4615,4.4615,4.4615,4.4615,4.4615,4.4615,4.4615,4.4615,4.4615,4.4615,4.4615,4.4615,4.4615,4.4615,4.4615,4.4615,4.4634,4.5569,4.6561,4.6198,4.6357,4.6288,4.5211,4.5224,4.5303,4.4653,4.4567,4.4615,4.4615,4.4615,4.4936,4.5952,4.6295,4.6972,4.8443,5.0135,5.1589,5.257,5.3602,5.4143,5.3873,5.3636,5.3501,5.3501,5.2756,5.1978,5.1251,5.049,4.9864,4.9357,4.912,4.9001,4.9001,4.9001,4.9001,4.9001,4.9001,4.9001,4.9001,4.9001,4.9001,4.8968,4.824,4.7631,4.7073,4.6109,4.5399,4.4925,4.4699,4.4615,4.4615,4.4615,4.4615,4.4615,4.4615,4.4615,4.4615,4.4615,4.4615,4.4615,4.4615,4.4615,4.4615,4.4615,4.4615,4.4615,4.4615,4.4615,4.4615,4.4615,4.4615,4.4615,4.4615,4.4615,4.4615,4.4615,4.4615,4.4615,4.4615,4.4615,4.4615,4.4615,4.4615,4.4615,4.4615,4.4615,4.4615,4.4615,4.4615,4.4615,4.4615,4.4615,4.4615,4.4615,4.4615,4.4615,4.4615,4.4615,4.4615,4.4615,4.4615,4.4615,4.4615,4.4615,4.4615,4.4615,4.4615,4.4615,4.3578,4.4387,4.5254,4.5177,4.5368,4.5391,4.4916,4.5001,4.5035,4.4682,4.4615,4.4615,4.4615,4.4615,4.5004,4.6194,4.638,4.7005,4.8748,5.0287,5.1606,5.2638,5.3602,5.389,5.3129,5.3331,5.3382,5.3078,5.2334,5.1572,5.0828,5.0084,4.9475,4.9018,4.9001,4.9001,4.9001,4.9001,4.9001,4.9001,4.9001,4.9001,4.9001,4.9001,4.8849,4.8545,4.7817,4.7073,0.0,4.5585,4.4993,4.4615,4.4615,4.4615,4.4615,4.4615,4.4615,4.4615,4.4615,4.4615,4.4615,4.4615,4.4615,4.4615,4.4615,4.4615,4.4615,4.4615,4.4615,4.4615,4.4615,4.4615,4.4615,4.4615,4.4615,4.4615,4.4615,4.4615,4.4615,4.4615,4.4615,4.4615,4.4615,4.4615,4.4615,4.4615,4.4615,4.4615,4.4615,4.4615,4.4615,4.4615,4.4615,4.4615,4.4615,4.4615,4.4615,4.4615,4.4615,4.4615,4.4615,4.4615,4.4615,4.4615,4.4615,4.4615,4.4615,4.4615,4.4615,4.4615,4.4615,4.4615,0.0,4.3474,4.4285,4.4979,4.4773,4.4566,4.5217,4.4964,0.0,4.4615,4.4615,4.4632,4.475,4.4716,4.4987,4.5872,4.6024,4.6769,4.8934,5.0473,5.1928,5.3399,5.3534,5.3213,5.2469,5.301,5.3112,5.2367,5.1589,5.0828,5.0135,4.9407,4.9001,4.9001,4.9001,4.9001,4.9001,4.9001,4.9001,4.9001,4.9001,4.9001,4.9001,4.9001,4.8612,0.0,4.7124,4.638,4.5652,4.4919,4.4615,4.4615,4.4615,4.4615,4.4615,4.4615,4.4615,4.4615,4.4615,4.4615,4.4615,4.4615,4.4615,4.4615,4.4615,4.4615,4.4615,4.4615,4.4615,4.4615,4.4615,4.4615,4.4615,4.4615,4.4615,4.4615,4.4615,4.4615,4.4615,4.4615,4.4615,4.4615,4.4615,4.4615,4.4615,4.4615,4.4615,4.4615,4.4615,4.4615,4.4615,4.4615,4.4615,4.4615,4.4615,4.4615,4.4615,4.4615,4.4615,4.4615,4.4615,4.4615,4.4615,4.4615,4.4615,4.4615,4.4615,4.4615,4.4615,4.4615,4.4615,4.4615,4.1414,0.0,4.327,4.3615,4.4009,4.4234,0.0,4.4268,4.4615,4.4615,4.4615,4.4953,4.6058,4.5821,4.6244,4.8663,4.9069,4.9644,5.1285,5.235,5.3298,5.4228,5.3839,5.3433,5.3247,5.2841,5.2503,5.2317,5.1082,5.027,5.0101,4.9407,4.9001,4.9001,4.9001,4.9001,4.9001,4.9001,4.9001,4.9001,4.9001,4.9001,4.9001,4.9001,4.8612,4.7838,4.7124,4.638,4.5652,4.4919,4.4615,4.4615,4.4615,4.4615,4.4615,4.4615,4.4615,4.4615,4.4615,4.4615,4.4615,4.4615,4.4615,4.4615,4.4615,4.4615,4.4615,4.4615,4.4615,4.4615,4.4615,4.4615,4.4615,4.4615,4.4615,4.4615,4.4615,4.4615,4.4615,4.4615,4.4615,4.4615,4.4615,4.4615,4.4615,4.4615,4.4615,4.4615,4.4615,4.4615,4.4615,4.4615,4.4615,4.4615,4.4615,4.4615,4.4615,4.4615,4.4615,4.4615,4.4615,4.4615,4.4615,4.4615,4.4615,4.4615,4.4615,4.4615,4.4615,4.4615,4.4615,4.4615,4.1508,4.2141,4.2812,4.3649,4.4144,4.4431,4.4467,4.4519,4.4615,4.4615,4.4615,4.4953,4.6092,4.651,4.7335,4.9266,5.0189,5.1165,5.2653,5.323,5.3771,5.4499,5.394,5.3365,5.2993,5.2553,5.2012,5.1336,5.0541,4.9949,4.961,4.9221,4.9001,4.9001,4.9001,4.9001,4.9001,4.9001,4.9001,4.9001,4.9001,4.9001,4.9001,4.9001,4.8409,4.7378,4.6972,4.6177,4.5162,4.4767,4.4615,4.4615,4.4615,4.4615,4.4615,4.4615,4.4615,4.4615,4.4615,4.4615,4.4615,4.4615,4.4615,4.4615,4.4615,4.4615,4.4615,4.4615,4.4615,4.4615,4.4615,4.4615,4.4615,4.4615,4.4615,4.4615,4.4615,4.4615,4.4615,4.4615,4.4615,4.4615,4.4615,4.4615,4.4615,4.4615,4.4615,4.4615,4.4615,4.4615,4.4615,4.4615,4.4615,4.4615,4.4615,4.4615,4.4615,4.4615,4.4615,4.4615,4.4615,4.4615,4.4615,4.4615,4.4615,4.4615,4.4615,4.4615,4.4615,4.4615,4.4615,4.4615,4.2236,4.2799,4.3406,4.4355,4.4682,4.4919,4.5415,4.5043,4.4615,4.4615,4.4615,4.4931,4.5994,4.7133,4.8293,4.9481,5.0776,5.2066,5.3313,5.3501,5.3687,5.4177,5.3704,5.301,5.2215,5.2029,5.1454,5.0185,4.9982,4.9661,4.9035,4.9001,4.9001,4.9001,4.9001,4.9001,4.9001,4.9001,4.9001,4.9001,4.9001,4.9001,4.9001,4.9001,4.8189,4.6786,0.0,0.0,4.4615,4.4615,4.4615,4.4615,4.4615,4.4615,4.4615,4.4615,4.4615,4.4615,4.4615,4.4615,4.4615,4.4615,4.4615,4.4615,4.4615,4.4615,4.4615,4.4615,4.4615,4.4615,4.4615,4.4615,4.4615,4.4615,4.4615,4.4615,4.4615,4.4615,4.4615,4.4615,4.4615,4.4615,4.4615,4.4615,4.4615,4.4615,4.4615,4.4615,4.4615,4.4615,4.4615,4.4615,4.4615,4.4615,4.4615,4.4615,4.4615,4.4615,4.4615,4.4615,4.4615,4.4615,4.4615,4.4615,4.4615,4.4615,4.4615,4.4615,4.4615,4.4615,4.4615,4.4615,4.2851,4.5093,4.6658,4.5003,4.506,4.5399,4.4902,4.4682,4.4615,4.4615,4.4615,4.5371,4.7948,4.8123,4.8959,5.2196,5.297,5.3244,5.345,5.3501,5.3298,5.2723,5.2553,5.2198,5.1454,5.0794,5.0338,5.0101,4.9509,4.912,4.9018,4.9001,4.9001,4.9001,4.9001,4.9001,4.9001,4.9001,4.9001,4.9001,4.9001,4.9001,4.9001,4.9001,4.8189,4.6786,0.0,4.5957,4.4615,4.4615,4.4615,4.4615,4.4615,4.4615,4.4615,4.4615,4.4615,4.4615,4.4615,4.4615,4.4615,4.4615,4.4615,4.4615,4.4615,4.4615,4.4615,4.4615,4.4615,4.4615,4.4615,4.4615,4.4615,4.4615,4.4615,4.4615,4.4615,4.4615,4.4615,4.4615,4.4615,4.4615,4.4615,4.4615,4.4615,4.4615,4.4615,4.4615,4.4615,4.4615,4.4615,4.4615,4.4615,4.4615,4.4615,4.4615,4.4615,4.4615,4.4615,4.4615,4.4615,4.4615,4.4615,4.4615,4.4615,4.4615,4.4615,4.4615,4.4615,4.4615,4.4615,4.4615,4.2625,4.4739,4.6486,4.5462,4.7281,4.9017,4.7847,4.7264,4.6972,4.6972,4.6334,4.6436,4.8519,4.9677,5.1431,5.473,5.4626,5.4106,5.4106,5.3376,5.2706,5.235,5.1961,5.142,5.0676,5.0287,4.9915,4.9543,4.9187,4.9001,4.9001,4.8629,4.8426,4.8426,4.802,4.78,4.78,4.78,4.8206,4.9001,4.9001,4.9001,4.9001,4.9001,4.8409,4.7378,0.0,4.6177,4.5162,4.4767,4.4615,4.4615,4.4615,4.4615,4.4615,4.4615,4.4615,4.4615,4.4615,4.4615,4.4615,4.4615,4.4615,4.4615,4.4615,4.4615,4.4615,4.4615,4.4615,4.4615,4.4615,4.4615,4.4615,4.4615,4.4615,4.4615,4.4615,4.4615,4.4615,4.4615,4.4615,4.4615,4.4615,4.4615,4.4615,4.4615,4.4615,4.4615,4.4615,4.4615,4.4615,4.4615,4.4615,4.4615,4.4615,4.4615,4.4615,4.4615,4.4615,4.4615,4.4615,4.4615,4.4615,4.4615,4.4615,4.4615,4.4615,4.4615,4.4615,4.4615,4.4615,4.4615,4.2455,4.4337,4.6178,4.6187,4.8608,5.0814,5.0032,4.9398,4.908,4.9474,4.8495,4.7956,4.9204,5.1324,5.3593,5.5732,5.5548,5.4996,5.4637,5.3435,5.2444,5.2096,5.1403,5.0659,4.9898,4.983,4.961,4.9035,4.9001,4.8934,4.8748,4.8193,4.7804,4.7665,4.709,4.6786,4.6786,4.6786,4.7445,4.8748,4.8748,4.8832,4.9001,4.9001,4.8612,4.7838,4.7124,4.638,4.5652,4.4919,4.4615,4.4615,4.4615,4.4615,4.4615,4.4615,4.4615,4.4615,4.4615,4.4615,4.4615,4.4615,4.4615,4.4615,4.4615,4.4615,4.4615,4.4615,4.4615,4.4615,4.4615,4.4615,4.4615,4.4615,4.4615,4.4615,4.4615,4.4615,4.4615,4.4615,4.4615,4.4615,4.4615,4.4615,4.4615,4.4615,4.4615,4.4615,4.4615,4.4615,4.4615,4.4615,4.4615,4.4615,4.4615,4.4615,4.4615,4.4615,4.4615,4.4615,4.4615,4.4615,4.4615,4.4615,4.4615,4.4615,4.4615,4.4615,4.4615,4.4615,4.4784,4.4784,4.2936,4.5442,4.7615,4.7557,4.7286,4.7376,4.8757,4.8995,4.9313,5.0817,5.0464,5.0112,5.0899,5.2847,5.4215,5.3816,5.5437,5.6223,5.4799,5.3917,5.2871,5.1466,5.0625,4.9881,4.9154,4.9086,4.9069,4.9001,4.9001,4.8714,4.8007,4.7922,4.7597,4.6887,4.6819,4.6786,4.6786,4.6786,4.7192,4.7973,4.7973,4.8359,4.9001,4.9001,4.8612,4.7838,4.7124,4.638,4.5652,4.4919,4.4615,4.4615,4.4615,4.4615,4.4615,4.4615,4.4615,4.4615,4.4615,4.4615,4.4615,4.4615,4.4615,4.4615,4.4615,4.4615,4.4615,4.4615,4.4615,4.4615,4.4615,4.4615,4.4615,4.4615,4.4615,4.4615,4.4615,4.4615,4.4615,4.4615,4.4615,4.4615,4.4615,4.4615,4.4615,4.4615,4.4615,4.4615,4.4615,4.4615,4.4615,4.4615,4.4615,4.4615,4.4615,4.4615,4.4615,4.4615,4.4615,4.4615,4.4615,4.4615,4.4615,4.4615,4.4615,4.4615,4.4615,4.4615,4.4615,4.4632,4.5297,4.5246,4.2937,4.5215,4.7241,4.7565,4.8487,4.9762,5.1312,5.1654,5.2095,5.376,5.3082,5.2289,5.2591,5.362,5.4548,5.4884,5.5205,5.5205,5.4697,5.3131,5.1675,5.0636,4.9864,4.9306,4.9035,4.9001,4.8815,4.8359,4.8342,4.8003,4.7259,4.6786,4.6413,4.6126,4.5652,4.5444,4.5444,4.5444,4.5788,4.6549,4.7449,4.8308,4.8984,4.8545,4.8426,4.8528,4.731,4.6904,4.6989,4.5788,4.528,4.5229,4.4784,4.4615,4.4615,4.4615,4.4615,4.4615,4.4615,4.4615,4.4615,4.4615,4.4615,4.4615,4.4615,4.4615,4.4615,4.4615,4.4615,4.4615,4.4615,4.4615,4.4615,4.4615,4.4615,4.4615,4.4615,4.4615,4.4615,4.4615,4.4615,4.4615,4.4615,4.4615,4.4615,4.4615,4.4615,4.4615,4.4615,4.4615,4.4615,4.4615,4.4615,4.4615,4.4615,4.4615,4.4615,4.4615,4.501,4.528,4.528,4.528,4.5483,4.5969,4.5089,4.4835,4.528,4.528,4.528,4.5297,4.6041,4.6227,4.2978,4.4921,4.6852,4.7702,4.9451,5.1401,5.3235,5.3647,5.4125,5.5759,5.4903,5.368,5.3163,5.3616,5.4255,5.4906,5.4925,5.4785,5.4589,5.2813,5.1281,5.0547,4.9579,4.9001,4.9001,4.8798,4.846,4.7922,4.7699,4.7242,4.6481,4.5974,4.5602,4.5348,4.484,4.4615,4.4615,4.4615,4.4959,4.572,4.6735,4.7597,4.8291,4.7784,4.797,4.8595,4.7327,4.7225,4.7787,4.6566,4.5906,4.5635,4.4902,4.4615,4.4615,4.4615,4.4615,4.4615,4.4615,4.4615,4.4615,4.4615,4.4615,4.4615,4.4615,4.4615,4.4615,4.4615,4.4615,4.4615,4.4615,4.4615,4.4615,4.4615,4.4615,4.4615,4.4615,4.4615,4.4615,4.4615,4.4615,4.4615,4.4615,4.4615,4.4615,4.4615,4.4615,4.4615,4.4615,4.4615,4.4615,4.4615,4.4615,4.4615,4.4615,4.4615,4.4699,4.4925,4.5635,4.594,4.572,4.5923,4.6278,4.6786,4.5816,4.5534,4.6058,4.6058,4.6058,4.6075,4.6802,4.7022,4.3107,4.4781,4.669,4.8219,4.9734,5.1463,5.3849,5.4399,5.4858,5.6473,5.5629,5.411,5.2419,5.2768,5.3291,5.3291,5.4592,5.5336,5.458,5.3215,5.2012,5.1281,4.9881,4.8984,4.8984,4.8342,4.7872,4.7872,4.7208,4.6464,4.5737,4.5703,4.5348,4.4632,4.4615,4.4615,4.4615,4.4615,4.4987,4.5703,4.5703,4.6075,4.6786,4.6786,4.7192,4.7838,4.7124,4.7225,4.7821,4.7107,4.6346,4.5618,4.4902,4.4615,4.4615,4.4615,4.4615,4.4615,4.4615,4.4615,4.4615,4.4615,4.4615,4.4615,4.4615,4.4615,4.4615,4.4615,4.4615,4.4615,4.4615,4.4615,4.4615,4.4615,4.4615,4.4615,4.4615,4.4615,4.4615,4.4615,4.4615,4.4615,4.4615,4.4615,4.4615,4.4615,4.4615,4.4615,4.4615,4.4615,4.4615,4.4615,4.4615,4.4615,4.4615,4.4615,4.4908,4.5652,4.6397,4.6481,4.5754,4.6413,4.6802,4.6802,4.6802,4.6786,4.6802,4.6802,4.6802,4.6819,4.7581,4.753,4.4134,4.5827,4.7482,4.8942,5.1341,5.3225,5.2803,5.3592,5.4693,5.5739,5.5166,5.415,5.3128,5.3099,5.3253,5.3291,5.364,5.3833,5.3688,5.2401,5.0991,4.9747,4.877,4.8037,4.7496,4.7242,4.6921,4.6397,4.616,4.5703,4.4987,4.4925,4.4835,4.4615,4.4615,4.4615,4.4615,4.4615,4.4716,4.4925,4.4925,4.5568,4.6769,4.6261,4.6718,4.7838,4.7124,4.7225,4.7787,4.6549,4.5585,4.4919,4.4699,4.4615,4.4615,4.4615,4.4615,4.4615,4.4615,4.4615,4.4615,4.4615,4.4615,4.4615,4.4615,4.4615,4.4615,4.4615,4.4615,4.4615,4.4615,4.4615,4.4615,4.4615,4.4615,4.4615,4.4615,4.4615,4.4615,4.4615,4.4615,4.4615,4.4615,4.4615,4.4615,4.4615,4.4615,4.4615,4.4615,4.4615,4.4615,4.4615,4.4615,4.4615,4.4615,4.506,4.5466,4.5703,4.6887,4.7496,4.7246,4.7479,4.7834,4.8342,4.7327,4.7056,4.7581,4.7581,4.7581,4.7597,4.8342,4.8562,4.5087,4.6928,4.861,4.9788,5.2013,5.3757,5.3096,5.3702,5.4546,5.5023,5.473,5.4162,5.3404,5.3226,5.3207,5.3258,5.3226,5.3097,5.284,5.1766,5.0578,4.935,4.8648,4.7945,4.7233,4.688,4.6442,4.5766,4.5432,4.506,4.4632,4.4615,4.4615,4.4615,4.4615,4.4615,4.4615,4.4615,4.4615,4.4615,4.4615,4.5089,4.5906,4.5466,4.5906,4.7039,4.687,4.7056,4.7378,4.6194,4.5432,4.4993,4.4716,4.4615,4.4615,4.4615,4.4615,4.4615,4.4615,4.4615,4.4615,4.4615,4.4615,4.4615,4.4615,4.4615,4.4615,4.4615,4.4615,4.4615,4.4615,4.4615,4.4615,4.4615,4.4615,4.4615,4.4615,4.4615,4.4615,4.4615,4.4615,4.4615,4.4615,4.4615,4.4615,4.4615,4.4615,4.4615,4.4615,4.4615,4.4615,4.4615,4.4615,4.4733,4.4993,4.5179,4.5635,4.6532,4.7141,4.7733,4.8325,4.8359,4.8562,4.9001,4.8122,4.7902,4.8359,4.8359,4.8359,4.8359,4.8798,4.9001,4.5993,4.7901,4.9721,5.0674,5.2068,5.3427,5.4216,5.4289,5.4197,5.4289,5.4289,5.4069,5.3335,5.3185,5.3167,5.3093,5.3096,5.2821,5.1995,5.1268,5.0484,4.9686,4.9002,4.8342,4.7636,4.6932,4.6257,4.5711,4.5015,4.4615,4.4615,4.4615,4.4615,4.4615,4.4615,4.4615,4.4615,4.4615,4.4615,4.4615,4.4615,4.4615,4.4615,4.4615,4.4993,4.5737,4.6413,4.6701,4.6633,4.5906,4.5602,4.5534,4.484,4.4615,4.4615,4.4615,4.4615,4.4615,4.4615,4.4615,4.4615,4.4615,4.4615,4.4615,4.4615,4.4615,4.4615,4.4615,4.4615,4.4615,4.4615,4.4615,4.4615,4.4615,4.4615,4.4615,4.4615,4.4615,4.4615,4.4615,4.4615,4.4615,4.4615,4.4615,4.4615,4.4615,4.4615,4.4615,4.4615,4.4615,4.4615,4.4615,4.4615,4.4886,4.5551,4.5043,4.5585,4.7652,4.7242,4.753,4.8951,4.9001,4.9001,4.9001,4.9001,4.9001,4.9001,4.9001,4.9001,4.9001,4.9001,4.9001,4.6435,4.7752,4.9095,5.1206,5.2491,5.3427,5.4216,5.3408,5.2692,5.3335,5.3463,5.3427,5.3222,5.3185,5.3004,5.2362,5.2252,5.1977,5.1169,5.0428,4.969,4.8937,4.8241,4.7537,4.6737,4.6114,4.5676,4.5535,4.4954,4.4615,4.4615,4.4615,4.4615,4.4615,4.4615,4.4615,4.4615,4.4615,4.4615,4.4615,4.4615,4.4615,4.4615,4.4615,4.4993,4.572,4.5872,4.594,4.5872,4.5128,4.4852,4.4835,4.4666,4.4615,4.4615,4.4615,4.4615,4.4615,4.4615,4.4615,4.4615,4.4615,4.4615,4.4615,4.4615,4.4615,4.4615,4.4615,4.4615,4.4615,4.4615,4.4615,4.4615,4.4615,4.4615,4.4615,4.4615,4.4615,4.4615,4.4615,4.4615,4.4615,4.4615,4.4615,4.4615,4.4615,4.4615,4.4615,4.4615,4.4615,4.4615,4.4615,4.4615,4.4666,4.4835,4.5213,4.5906,4.6972,4.7445,4.8088,4.8968,4.9001,4.9001,4.9001,4.9001,4.9001,4.9001,4.9001,4.9001,4.9001,4.9001,4.9001,4.6148,4.8076,4.9994,5.2068,5.2894,5.3225,5.3243,5.2601,5.1995,5.205,5.205,5.205,5.205,5.205,5.1922,5.1481,5.1426,5.1132,5.0325,4.9898,4.9364,4.8546,4.7889,4.7196,4.6466,4.584,4.5399,4.5089,4.4776,4.4615,4.4615,4.4615,4.4615,4.4615,4.4615,4.4615,4.4615,4.4615,4.4615,4.4615,4.4615,4.4615,4.4615,4.4615,4.4818,4.5162,4.5162,4.5162,4.5128,4.4767,4.4615,4.4615,4.4615,4.4615,4.4615,4.4615,4.4615,4.4615,4.4615,4.4615,4.4615,4.4615,4.4615,4.4615,4.4615,4.4615,4.4615,4.4615,4.4615,4.4615,4.4615,4.4615,4.4615,4.4615,4.4615,4.4615,4.4615,4.4615,4.4615,4.4615,4.4615,4.4615,4.4615,4.4615,4.4615,4.4615,4.4615,4.4615,4.4615,4.4615,4.4615,4.4615,4.4615,4.475,4.5094,4.5483,4.6177,4.7259,4.7699,4.824,4.8968,4.9001,4.9001,4.9001,4.9001,4.9001,4.9001,4.9001,4.9001,4.9001,4.9001,4.9001,4.5176,4.797,5.0765,5.238,5.2803,5.2619,5.194,5.1683,5.1389,5.0729,5.071,5.0802,5.0802,5.0802,5.0747,5.0618,5.0582,5.0306,4.95,4.939,4.9095,4.8398,4.7877,4.7324,4.6778,4.6088,4.5511,4.5115,4.4786,4.4654,4.4748,4.4654,4.4615,4.4615,4.4615,4.4615,4.4615,4.4615,4.4654,4.4776,4.4776,4.4692,4.4615,4.4615,4.4615,4.4615,4.4615,4.4615,4.4615,4.4615,4.4615,4.4615,4.4615,4.4615,4.4615,4.4615,4.4615,4.4615,4.4615,4.4615,4.4615,4.4615,4.4615,4.4615,4.4615,4.4615,4.4615,4.4615,4.4615,4.4615,4.4615,4.4615,4.4615,4.4615,4.4615,4.4615,4.4615,4.4615,4.4615,4.4615,4.4615,4.4615,4.4615,4.4615,4.4615,4.4615,4.4615,4.4615,4.4615,4.4615,4.4615,4.4615,4.4615,4.4869,4.5466,4.5635,4.6295,4.7601,4.7821,4.824,4.8968,4.9001,4.9001,4.9001,4.9001,4.9001,4.9001,4.9001,4.9001,4.9001,4.9001,4.9001,4.2976,4.5856,4.904,5.071,5.1132,5.1096,5.0986,5.0417,4.9886,4.9776,5.0306,5.0802,5.0802,5.0802,5.0563,4.9867,4.9757,4.9463,4.86,4.8471,4.8434,4.8324,4.823,4.8134,4.8037,4.6959,4.6478,4.6995,4.5528,4.4841,4.5346,4.4879,4.4615,4.4615,4.4615,4.4615,4.4615,4.4615,4.4852,4.5399,4.5399,4.5115,4.4615,4.4615,4.4615,4.4615,4.4615,4.4615,4.4615,4.4615,4.4615,4.4615,4.4615,4.4615,4.4615,4.4615,4.4615,4.4615,4.4615,4.4615,4.4615,4.4615,4.4615,4.4615,4.4615,4.4615,4.4615,4.4615,4.4615,4.4615,4.4615,4.4615,4.4615,4.4615,4.4615,4.4615,4.4615,4.4615,4.4615,4.4615,4.4615,4.4615,4.4615,4.4615,4.4615,4.4615,4.4615,4.4615,4.4615,4.4615,4.4615,4.4615,4.4615,4.4649,4.475,4.5331,4.6058,4.6887,4.7564,4.824,4.8968,4.9001,4.9001,4.9001,4.9001,4.9001,4.9001,4.9001,4.9001,4.9001,4.9001,4.9001,4.4338,4.6705,4.871,5.038,5.0802,5.0674,5.0215,4.9867,4.9463,4.8967,4.915,4.9407,4.9407,4.9407,4.9279,4.893,4.8875,4.8728,4.8361,4.8306,4.8306,4.8306,4.7997,4.7797,4.7797,4.6955,4.6383,4.6329,4.5588,4.5062,4.4998,4.5062,4.4944,4.4598,4.4934,4.4961,4.4598,4.4615,4.4748,4.4998,4.5346,4.5178,4.4615,4.4615,4.4615,4.4615,4.4615,4.4615,4.4615,4.4615,4.4615,4.4615,4.4615,4.4615,4.4615,4.4615,4.4615,4.4615,4.4615,4.4615,4.4615,4.4615,4.4615,4.4615,4.4615,4.4615,4.4615,4.4615,4.4615,4.4615,4.4615,4.4615,4.4615,4.4615,4.4615,4.4615,4.4615,4.4615,4.4615,4.4615,4.4615,4.4615,4.4615,4.4615,4.4615,4.4615,4.4615,4.4615,4.4615,4.4615,4.4615,4.4615,4.4615,4.4784,4.5179,4.5889,4.6633,4.7378,4.8122,4.8663,4.8984,4.9001,4.9001,4.9001,4.9001,4.9001,4.9001,4.9001,4.9001,4.9001,4.9001,4.9001,4.4725,4.6524,4.7535,4.9389,5.0013,5.0013,4.9407,4.928,4.9077,4.8434,4.8306,4.8306,4.8306,4.8306,4.8306,4.8306,4.8306,4.8306,4.8306,4.8306,4.8306,4.8306,4.7897,4.7635,4.7635,4.7044,4.6524,4.6233,4.5757,4.5372,4.5062,4.5178,4.5079,4.4598,4.5052,4.5052,4.4598,4.4748,4.4748,4.4598,4.5205,4.5267,4.4814,4.4682,4.4665,4.4814,4.4682,4.4615,4.4615,4.4615,4.4615,4.4615,4.4615,4.4615,4.4615,4.4615,4.4615,4.4615,4.4615,4.4615,4.4615,4.4615,4.4615,4.4615,4.4615,4.4615,4.4615,4.4615,4.4615,4.4615,4.4615,4.4615,4.4615,4.4615,4.4615,4.4615,4.4615,4.4615,4.4615,4.4615,4.4615,4.4615,4.4615,4.4615,4.4615,4.4615,4.4615,4.4615,4.4615,4.4615,4.4615,4.4615,4.4784,4.5094,4.5652,4.6549,4.731,4.7855,4.8595,4.9001,4.9001,4.9001,4.9001,4.9001,4.9001,4.9001,4.9001,4.9001,4.9001,4.9001,4.9001,4.9001,4.1989,4.3379,4.4305,4.6691,4.7865,4.8416,4.8379,4.8379,4.8361,4.8324,4.8306,4.8306,4.8306,4.8306,4.8306,4.8306,4.8306,4.8306,4.8306,4.8306,4.8306,4.8306,4.8267,4.8249,4.8249,4.7697,4.7572,4.8114,4.6519,4.5732,4.6288,4.5258,4.4626,4.4615,4.4626,4.4626,4.4615,4.5169,4.5169,4.4598,4.5205,4.5485,4.5433,4.4852,4.4906,4.5407,4.4841,4.4615,4.4615,4.4615,4.4615,4.4615,4.4615,4.4615,4.4615,4.4615,4.4615,4.4615,4.4615,4.4615,4.4615,4.4615,4.4615,4.4615,4.4615,4.4615,4.4615,4.4615,4.4615,4.4615,4.4615,4.4615,4.4615,4.4615,4.4615,4.4615,4.4615,4.4615,4.4615,4.4615,4.4615,4.4615,4.4615,4.4615,4.4615,4.4615,4.4615,4.4615,4.4615,4.4615,4.4615,4.4615,4.5229,4.5669,4.5703,4.7039,4.7838,4.7889,4.8595,4.9001,4.9001,4.9001,4.9001,4.9001,4.9001,4.9001,4.9001,4.9001,4.9001,4.9001,4.9001,4.9001,4.0616,4.2322,4.3828,4.5223,4.6544,4.7516,4.7516,4.792,4.8306,4.8306,4.8306,4.8306,4.8306,4.8306,4.8306,4.8306,4.8306,4.8306,4.8306,4.8306,4.8306,4.8306,4.8306,4.8306,4.8306,4.8094,4.7917,4.7736,4.7106,4.6472,4.584,4.5783,4.5381,4.4626,4.4988,4.4998,4.4598,4.5205,4.5381,4.5178,4.5783,4.5865,4.5485,4.5284,4.5089,4.4906,4.4692,4.4615,4.4615,4.4615,4.4615,4.4615,4.4615,4.4615,4.4615,4.4615,4.4615,4.4615,4.4615,4.4615,4.4615,4.4615,4.4615,4.4615,4.4615,4.4615,4.4615,4.4615,4.4615,4.4615,4.4615,4.4615,4.4615,4.4615,4.4615,4.4615,4.4615,4.4615,4.4615,4.4615,4.4615,4.4615,4.4615,4.4615,4.4615,4.4615,4.4615,4.4615,4.4615,4.4615,4.4801,4.5263,4.5551,4.6092,4.701,4.7584,4.8091,4.8595,4.8849,4.9001,4.9001,4.9402,4.9432,4.9001,4.9402,4.9432,4.9001,4.9001,4.9001,4.9001,4.9001,4.9001,3.9314,4.0999,4.2792,4.4325,4.5498,4.6507,4.7314,4.77,4.7957,4.8251,4.8306,4.8306,4.8306,4.8306,4.8306,4.8306,4.8306,4.8306,4.8306,4.8306,4.8306,4.8306,4.8306,4.8306,4.8306,4.8306,4.8114,4.7736,4.7302,4.6687,4.5858,4.5989,4.5732,4.4934,4.5089,4.4998,4.4598,4.4998,4.5205,4.5205,4.5597,4.5681,4.5485,4.5294,4.5089,4.4879,4.4692,4.4615,4.4615,4.4615,4.4615,4.4615,4.4615,4.4615,4.4615,4.4615,4.4615,4.4615,4.4615,4.4615,4.4615,4.4615,4.4615,4.4615,4.4615,4.4615,4.4615,4.4615,4.4615,4.4615,4.4615,4.4615,4.4615,4.4615,4.4615,4.4615,4.4615,4.4615,4.4654,4.4852,4.4748,4.4654,4.4869,4.4748,4.4615,4.4615,4.4615,4.4682,4.4896,4.472,4.4868,4.555,4.5897,4.6481,4.7462,4.7986,4.8494,4.8968,4.9212,4.9346,4.9346,5.0004,5.0033,4.9359,5.0004,4.9907,4.9001,4.9001,4.9001,4.9001,4.9001,4.9001,0.0,0.0,0.0,4.3851,4.4636,4.5296,4.7664,4.7608,4.7278,4.8104,4.8269,4.8269,4.8306,4.8306,4.8306,4.8306,4.8306,4.8306,4.8306,4.8306,4.8306,4.8306,4.8306,4.8306,4.8306,4.8306,4.8306,4.8306,4.7154,4.6454,4.643,4.5833,4.5485,4.5485,4.4906,4.4615,4.4615,4.4615,4.4598,4.4626,4.4626,4.4934,4.5485,4.4879,4.4934,4.5433,4.4852,4.4615,4.4615,4.4615,4.4615,4.4615,4.4615,4.4615,4.4615,4.4615,4.4615,4.4615,4.4615,4.4615,4.4615,4.4615,4.4615,4.4615,4.4615,4.4615,4.4598,4.4626,4.4626,4.4626,4.4626,4.4626,4.4626,4.4626,4.4654,4.4654,4.4626,4.4626,4.4786,4.5399,4.5025,4.4814,4.5381,4.5025,4.4654,4.4615,4.4615,4.4841,4.5381,4.4944,4.4814,4.5442,4.6248,4.6798,4.6878,4.8169,4.8984,4.9032,4.9622,4.9976,5.0004,5.0716,5.077,5.0061,5.0743,5.0435,4.9063,4.9063,4.9063,4.9032,4.9032,4.9032,3.6844,0.0,0.0,0.0,0.0,0.0,4.5553,4.5975,4.6471,4.7259,4.7424,4.7608,4.8196,4.8306,4.8306,4.8306,4.8306,4.8306,4.8306,4.8306,4.8306,4.8306,4.8306,4.8306,4.8306,4.8306,4.8306,0.0,4.7977,4.7575,4.715,4.6088,4.5294,4.4852,4.4709,4.4615,4.4615,4.4615,4.4814,4.5258,4.5258,4.5346,4.5494,4.532,4.5115,4.4841,4.4682,4.4615,4.4615,4.4615,4.4615,4.4615,4.4615,4.4615,4.4615,4.4615,4.4615,4.4615,4.4615,4.4615,4.4615,4.4615,4.4615,4.4615,4.4615,4.4615,4.4692,4.5142,4.5258,4.5258,4.5258,4.5258,4.5258,4.5258,4.5571,4.5783,4.5346,4.5258,4.5294,4.5459,4.5372,4.5294,4.5485,4.5732,4.5597,4.472,4.4971,4.5152,4.4879,4.4692,4.4857,4.558,4.5852,4.6629,4.8191,4.8247,4.8651,4.9658,4.9432,4.9492,4.9976,5.0716,5.1008,5.0796,5.1469,5.1393,5.0517,5.0517,5.0241,4.9722,4.9722,4.9462,3.6817,3.7968,3.9405,4.0636,0.0,0.0,4.4508,4.471,4.4948,4.6324,4.6856,4.7241,4.77,4.8086,4.8306,4.8306,4.8306,4.8306,4.8306,4.8306,4.8306,4.8306,4.8306,4.8306,4.8306,4.8306,4.8306,4.8306,4.8075,4.7656,4.7021,4.5783,4.5062,4.4971,4.472,4.4615,4.4615,4.4615,4.4776,4.5125,4.5125,4.5125,4.5125,4.5125,4.4934,4.4615,4.4615,4.4615,4.4615,4.4615,4.4615,4.4615,4.4615,4.4615,4.4615,4.4615,4.4615,4.4615,4.4615,4.4615,4.4615,4.4615,4.4615,4.4654,4.4906,4.4988,4.5089,4.5707,4.5883,4.5883,4.5883,4.5883,4.5883,4.5883,4.6143,4.6312,4.594,4.5883,4.5883,4.5883,4.5673,4.5673,4.6209,4.6336,4.6167,4.5459,4.5648,4.5757,4.5399,4.5346,4.5519,4.5941,4.6286,4.713,4.8732,4.8789,4.9102,4.9987,5.0202,5.0352,5.0445,5.1436,5.1825,5.1519,5.2201,5.2376,5.1964,5.1386,5.0716,5.0004,5.0004,4.9652,3.7455,3.7698,3.8465,4.0961,4.0795,0.0,4.3926,4.3615,4.3209,4.5041,4.603,4.6617,4.6801,4.7406,4.7939,4.8031,4.8122,4.8214,4.8306,4.8306,4.8306,4.8306,4.8306,4.8306,4.8306,4.8306,4.8306,4.8306,4.7797,4.7172,4.6454,4.5381,4.4971,4.5399,4.4879,4.4615,4.4615,4.4615,4.4615,4.4615,4.4615,4.4615,4.4615,4.4615,4.4615,4.4615,4.4615,4.4615,4.4615,4.4615,4.4615,4.4615,4.4615,4.4615,4.4615,4.4615,4.4615,4.4615,4.4615,4.4615,4.4615,4.4615,4.4654,4.4786,4.5346,4.5563,4.5732,4.6336,4.6524,4.6524,4.6524,4.6524,4.6524,4.6524,4.6571,4.6594,4.6524,4.6524,4.6524,4.6524,4.6088,4.6063,4.7194,4.691,4.6478,4.6312,4.6359,4.6383,4.6312,4.6359,4.6407,4.6407,4.7044,4.7787,4.8615,4.9344,4.9881,5.0081,5.1282,5.1759,5.1241,5.2417,5.2809,5.2247,5.2853,5.3185,5.3185,5.1777,5.077,5.01,5.0033,4.9652,3.7963,3.8991,4.0233,4.0212,4.167,0.0,4.1786,4.2111,4.2567,4.2394,4.2831,4.3644,4.4929,4.5296,4.5608,4.6269,4.6911,4.7553,4.8214,4.8306,4.8306,4.8306,4.8306,4.8306,4.8306,4.8306,4.8306,4.8306,4.8191,4.7635,4.6478,4.6167,4.5673,4.4786,4.4654,4.4615,4.4615,4.4615,4.4615,4.4615,4.4615,4.4615,4.4615,4.4615,4.4615,4.4615,4.4615,4.4615,4.4615,4.4615,4.4615,4.4615,4.4615,4.4615,4.4615,4.4615,4.4615,4.4615,4.4615,4.4615,4.4615,4.4615,4.4934,4.5346,4.5459,4.5833,4.6359,4.7021,4.7194,4.7194,4.7194,4.7194,4.7194,4.7194,4.7593,4.7797,4.7302,4.7194,4.7194,4.7194,4.7106,4.7106,4.7363,4.7299,4.6864,4.5833,4.6088,4.6216,4.5732,4.6112,4.6407,4.6407,4.6548,4.6997,4.7842,4.8597,4.9301,4.9994,5.0827,5.1469,5.188,5.2177,5.2531,5.2977,5.3143,5.3185,5.3185,5.1777,5.1034,5.0876,5.0269,4.9652,3.865,3.918,4.0035,4.0412,4.1013,0.0,0.0,4.1314,4.1395,4.2058,4.216,4.2461,4.3633,4.4138,4.4618,4.5421,4.6413,4.7241,4.7626,4.8048,4.8306,4.8306,4.8306,4.8306,4.8306,4.8306,4.8306,4.8306,4.8035,4.7428,4.6454,4.6119,4.5537,4.4626,4.4615,4.4615,4.4615,4.4615,4.4615,4.4615,4.4615,4.4615,4.4615,4.4615,4.4615,4.4626,4.4934,4.4879,4.4626,4.4934,4.4852,4.4615,4.4615,4.4615,4.4615,4.4615,4.4615,4.4615,4.4615,4.4615,4.4615,4.4615,4.4786,4.5152,4.5757,4.6594,4.7409,4.7738,4.7856,4.7856,4.7856,4.7856,4.7856,4.7856,4.8075,4.821,4.7917,4.7856,4.7856,4.7856,4.7856,4.7856,4.7856,4.7856,4.7635,4.6999,4.7154,4.7132,4.6542,4.6977,4.711,4.6478,4.6959,4.7561,4.81,4.9158,4.9973,5.042,5.1532,5.2131,5.2112,5.2468,5.2831,5.3185,5.3185,5.3185,5.3185,5.2131,5.1593,5.1593,5.1223,5.05,3.9411,3.9411,3.9851,4.0764,4.0409,4.0153,0.0,0.0,0.0,4.1793,4.1711,4.1661,4.2402,4.2979,4.3648,4.4579,4.5709,4.6524,4.6617,4.7314,4.7902,4.8048,4.8214,4.8306,4.8306,4.8159,4.8141,4.8306,4.7711,4.7054,4.6436,4.594,4.5346,4.4626,4.4615,4.4615,4.4615,4.4615,4.4615,4.4615,4.4615,4.4615,4.4615,4.4615,4.4615,4.4626,4.5232,4.5169,4.4654,4.5258,4.5125,4.4615,4.4615,4.4615,4.4615,4.4615,4.4615,4.4615,4.4615,4.4615,4.4626,4.4748,4.4934,4.5346,4.643,4.7473,4.8306,4.8306,4.8306,4.8306,4.8306,4.8306,4.8306,4.8306,4.8306,4.8306,4.8306,4.8306,4.8306,4.8306,4.8306,4.8306,4.8306,4.821,4.8132,4.8132,4.8132,4.7937,4.7449,4.7917,4.7917,4.6869,4.7697,4.8329,4.837,4.9854,5.0775,5.0692,5.228,5.2937,5.2335,5.2875,5.3185,5.3185,5.3185,5.3185,5.3185,5.2599,5.2247,5.2112,5.1976,5.1223,4.018,4.0942,4.1644,4.0519,4.1576,4.2269,3.9883,0.0,4.0458,3.9319,0.0,3.9926,4.0721,0.0,0.0,4.2779,4.371,4.4429,4.4912,4.5681,4.6434,4.7149,4.7865,4.8306,4.8306,4.7645,4.7516,4.8251,4.7588,4.6912,4.6442,4.6336,4.5783,4.4626,4.4615,4.4615,4.4615,4.4615,4.4615,4.4615,4.4615,4.4615,4.4615,4.4615,4.4615,4.4626,4.5232,4.5169,4.4654,4.5258,4.5125,4.4615,4.4615,4.4615,4.4615,4.4615,4.4615,4.4615,4.4615,4.4615,4.4692,4.5232,4.6161,4.7194,4.7879,4.8191,4.8306,4.8306,4.8306,4.8306,4.8306,4.8306,4.8306,4.8306,4.8306,4.8306,4.8306,4.8306,4.8306,4.8306,4.8306,4.8306,4.8306,4.7856,4.7491,4.7491,4.7491,4.7488,4.7406,4.7917,4.823,4.8094,4.821,4.8092,4.7593,4.9544,5.0558,4.996,5.1992,5.3164,5.3082,5.3164,5.3185,5.3185,5.3185,5.3185,5.3185,5.3103,5.2747,5.2089,5.1494,5.077,4.0316,4.0553,4.0993,4.0781,0.0,0.0,4.046,0.0,4.0383,0.0,0.0,0.0,0.0,0.0,0.0,0.0,4.2946,4.3866,4.3732,4.4963,4.603,4.6361,4.7094,4.7791,4.8251,4.7571,4.7424,4.8251,4.7553,4.69,4.6442,4.6407,4.5858,4.4626,4.4615,4.4615,4.4615,4.4615,4.4615,4.4615,4.4615,4.4615,4.4615,4.4615,4.4615,4.4626,4.5232,4.5169,4.4654,4.5258,4.5125,4.4615,4.4615,4.4615,4.4615,4.4615,4.4814,4.5115,4.5115,4.5346,4.5699,4.594,4.6659,4.7449,4.7715,4.8035,4.8306,4.8306,4.8306,4.8306,4.8306,4.8306,4.8306,4.8306,4.8306,4.8306,4.8306,4.8306,4.8306,4.8306,4.8306,4.8306,4.8306,4.8075,4.7917,4.7917,4.7917,4.7917,4.7917,4.8152,4.8172,4.7836,4.8094,4.8055,4.7449,4.9489,5.0682,5.0401,5.2145,5.3185,5.3185,5.3185,5.3185,5.3185,5.3185,5.3185,5.3185,5.3185,5.3042,5.2747,5.244,5.1922,4.0248,0.0,0.0,0.0,0.0,0.0,0.0,0.0,0.0,0.0,0.0,0.0,0.0,0.0,4.0112,4.0863,0.0,4.298,4.2711,4.3892,4.5,4.5607,4.6726,4.7587,4.802,4.7141,4.6959,4.7982,4.7123,4.6585,4.6656,4.6501,4.5915,4.4879,4.4709,4.4615,4.4615,4.4615,4.4615,4.4615,4.4615,4.4709,4.4841,4.4682,4.4692,4.4852,4.532,4.5169,4.4654,4.5258,4.5125,4.4626,4.4786,4.4841,4.4841,4.4841,4.5115,4.552,4.5681,4.6143,4.6664,4.6664,4.711,4.7635,4.7635,4.7957,4.8306,4.8306,4.8306,4.8306,4.8306,4.8306,4.8306,4.8306,4.8306,4.8306,4.8306,4.8306,4.8306,4.8306,4.8306,4.8306,4.8306,4.8306,4.8306,4.8306,4.8306,4.8306,4.8306,4.8306,4.8114,4.7677,4.8035,4.8114,4.7677,4.9572,5.0986,5.1444,5.2543,5.3185,5.3185,5.3185,5.3185,5.3185,5.3185,5.3185,5.3185,5.3185,5.3185,5.3185,5.3185,5.2791,0.0,0.0,0.0,4.0316,0.0,0.0,0.0,0.0,4.0967,0.0,0.0,0.0,0.0,0.0,0.0,0.0,0.0,0.0,0.0,4.1906,4.2724,4.4861,4.6992,4.8038,4.747,4.6057,4.5807,4.7319,4.6021,4.5805,4.7273,4.6756,4.6119,4.5485,4.4906,4.4615,4.4615,4.4615,4.4615,4.4615,4.4615,4.4906,4.5459,4.4869,4.4934,4.5485,4.5485,4.5169,4.4654,4.5258,4.5125,4.4654,4.5258,4.5485,4.5485,4.5485,4.5485,4.5571,4.6167,4.6801,4.7363,4.7363,4.7777,4.8267,4.8267,4.8287,4.8306,4.8306,4.8306,4.8306,4.8306,4.8306,4.8306,4.8306,4.8306,4.8306,4.8306,4.8306,4.8306,4.8306,4.8306,4.8306,4.8306,4.8306,4.8306,4.8306,4.8306,4.8306,4.8306,4.8306,4.8287,4.8267,4.8287,4.8287,4.8267,4.9828,5.1463,5.3023,5.3167,5.3185,5.3185,5.3185,5.3185,5.3185,5.3185,5.3185,5.3185,5.3185,5.3185,5.3185,5.3185,5.2791,0.0,0.0,4.0417,4.0163,0.0,0.0,0.0,0.0,0.0,0.0,0.0,0.0,0.0,0.0,0.0,0.0,0.0,0.0,0.0,4.1499,4.2452,4.3579,4.5502,4.6616,4.6427,4.5934,4.6062,4.7119,4.6226,0.0,4.7334,4.7194,4.6571,4.552,4.5294,4.5205,4.5205,4.4786,4.4998,4.5783,4.5399,4.5294,4.5485,4.5294,4.5089,4.4906,4.4906,4.5025,4.5205,4.5425,4.5622,4.5808,4.6014,4.6112,4.6112,4.6112,4.6377,4.6842,4.7449,4.7818,4.7995,4.7995,4.8114,4.8306,4.8306,4.8306,4.8306,4.8306,4.8306,4.8306,4.8306,4.8306,4.8306,4.8306,4.8306,4.8306,4.8306,4.8306,4.8306,4.8306,4.8306,4.8306,4.8306,4.8306,4.8306,4.8306,4.8306,4.8306,4.8306,4.8306,4.8306,4.8306,4.8306,4.8306,4.8306,4.9848,5.1261,5.2344,5.2913,5.3185,5.3185,5.3185,5.3185,5.3185,5.3185,5.3185,5.3185,5.3185,5.3185,5.3185,5.3185,5.3082,3.9656,3.9723,0.0,4.0028,3.9757,0.0,3.9402,0.0,3.9698,0.0,0.0,0.0,0.0,0.0,0.0,0.0,0.0,0.0,0.0,4.1064,4.187,4.2228,4.4234,4.562,4.568,4.5382,4.5751,4.71,4.6207,4.6222,0.0,4.753,4.7021,4.6209,4.594,4.5707,4.5511,4.5115,4.5205,4.5757,4.5372,4.5294,4.5485,4.5267,4.5089,4.4934,4.4934,4.5142,4.5537,4.5732,4.6063,4.6413,4.6664,4.6756,4.6756,4.6756,4.7154,4.7777,4.8172,4.8306,4.8306,4.8306,4.8306,4.8306,4.8306,4.8306,4.8306,4.8306,4.8306,4.8306,4.8306,4.8306,4.8306,4.8306,4.8306,4.8306,4.8306,4.8306,4.8306,4.8306,4.8306,4.8306,4.8306,4.8306,4.8306,4.8306,4.8306,4.8306,4.8306,4.8306,4.8306,4.8306,4.8306,4.8434,4.8728,5.0013,5.1132,5.194,5.2766,5.3185,5.3185,5.3185,5.3185,5.3185,5.3185,5.3185,5.3185,5.3185,5.3185,5.3185,5.3185,5.3185]}]]